Time,TemperatureF,DewpointF,PressureIn,WindDirection,WindDirectionDegrees,WindSpeedMPH,WindSpeedGustMPH,Humidity,HourlyPrecipIn,Conditions,Clouds,dailyrainin,SoftwareType,DateUTC
2013-01-10 00:00:00,33.6,26.9,29.88,South,183,0.0,0.0,76,0.00,,---,0.04,VWS V14.01,2013-01-10 05:00:00,
2013-01-10 00:01:00,29.8,25.0,29.88,South,188,0.0,0.0,82,0.00,,---,0.00,VWS V14.01,2013-01-10 05:01:00,
2013-01-10 00:02:00,29.8,25.3,29.88,South,188,0.0,0.0,83,0.00,,---,0.00,VWS V14.01,2013-01-10 05:02:00,
2013-01-10 00:03:00,33.1,26.4,29.88,South,183,0.0,0.0,76,0.00,,---,0.00,VWS V14.01,2013-01-10 05:03:00,
2013-01-10 00:04:00,33.0,26.3,29.88,South,184,0.0,0.0,76,0.00,,---,0.00,VWS V14.01,2013-01-10 05:04:00,
2013-01-10 00:05:00,29.7,24.9,29.89,South,188,0.0,0.0,82,0.00,,---,0.00,VWS V14.01,2013-01-10 05:05:00,
2013-01-10 00:06:00,32.7,26.3,29.88,South,183,0.0,0.0,77,0.00,,---,0.00,VWS V14.01,2013-01-10 05:06:00,
2013-01-10 00:07:00,29.7,25.2,29.89,South,188,0.0,0.0,83,0.00,,---,0.00,VWS V14.01,2013-01-10 05:07:00,
2013-01-10 00:08:00,32.5,26.1,29.88,South,183,0.0,0.0,77,0.00,,---,0.00,VWS V14.01,2013-01-10 05:08:00,
2013-01-10 00:09:00,32.4,26.3,29.88,South,183,0.0,0.0,78,0.00,,---,0.00,VWS V14.01,2013-01-10 05:09:00,
2013-01-10 00:10:00,32.3,26.2,29.88,South,183,0.0,0.0,78,0.00,,---,0.00,VWS V14.01,2013-01-10 05:10:00,
2013-01-10 00:11:00,32.2,26.1,29.88,South,183,0.0,0.0,78,0.00,,---,0.00,VWS V14.01,2013-01-10 05:11:00,
2013-01-10 00:12:00,29.6,24.8,29.89,South,188,0.0,0.0,82,0.00,,---,0.00,VWS V14.01,2013-01-10 05:12:00,
2013-01-10 00:13:00,31.9,25.8,29.88,South,183,0.0,0.0,78,0.00,,---,0.00,VWS V14.01,2013-01-10 05:13:00,
2013-01-10 00:14:00,31.8,25.7,29.88,South,183,0.0,0.0,78,0.00,,---,0.00,VWS V14.01,2013-01-10 05:14:00,
2013-01-10 00:15:00,31.7,25.6,29.88,South,183,0.0,0.0,78,0.00,,---,0.00,VWS V14.01,2013-01-10 05:15:00,
2013-01-10 00:16:00,31.6,25.5,29.88,South,183,0.0,0.0,78,0.00,,---,0.00,VWS V14.01,2013-01-10 05:16:00,
2013-01-10 00:17:00,29.3,24.8,29.89,South,188,0.0,0.0,83,0.00,,---,0.00,VWS V14.01,2013-01-10 05:17:00,
2013-01-10 00:18:00,31.5,25.8,29.89,South,183,0.0,0.0,79,0.00,,---,0.00,VWS V14.01,2013-01-10 05:18:00,
2013-01-10 00:19:00,31.4,25.6,29.89,South,183,0.0,0.0,79,0.00,,---,0.00,VWS V14.01,2013-01-10 05:19:00,
2013-01-10 00:20:00,31.3,25.6,29.88,South,183,0.0,0.0,79,0.00,,---,0.00,VWS V14.01,2013-01-10 05:20:00,
2013-01-10 00:21:00,31.2,25.5,29.88,South,183,0.0,0.0,79,0.00,,---,0.00,VWS V14.01,2013-01-10 05:21:00,
2013-01-10 00:22:00,29.1,24.6,29.89,South,188,0.0,0.0,83,0.00,,---,0.00,VWS V14.01,2013-01-10 05:22:00,
2013-01-10 00:23:00,31.0,25.3,29.89,South,183,0.0,0.0,79,0.00,,---,0.00,VWS V14.01,2013-01-10 05:23:00,
2013-01-10 00:24:00,30.9,25.5,29.89,South,183,0.0,0.0,80,0.00,,---,0.00,VWS V14.01,2013-01-10 05:24:00,
2013-01-10 00:25:00,30.9,25.5,29.89,South,183,0.0,0.0,80,0.00,,---,0.00,VWS V14.01,2013-01-10 05:25:00,
2013-01-10 00:26:00,30.8,25.4,29.89,South,183,0.0,0.0,80,0.00,,---,0.00,VWS V14.01,2013-01-10 05:26:00,
2013-01-10 00:27:00,30.7,25.3,29.89,South,183,0.0,0.0,80,0.00,,---,0.00,VWS V14.01,2013-01-10 05:27:00,
2013-01-10 00:28:00,28.8,24.6,29.89,South,188,0.0,0.0,84,0.00,,---,0.00,VWS V14.01,2013-01-10 05:28:00,
2013-01-10 00:29:00,30.6,25.5,29.89,South,183,0.0,0.0,81,0.00,,---,0.00,VWS V14.01,2013-01-10 05:29:00,
2013-01-10 00:30:00,30.5,25.4,29.88,South,183,0.0,0.0,81,0.00,,---,0.00,VWS V14.01,2013-01-10 05:30:00,
2013-01-10 00:31:00,30.4,25.3,29.88,South,183,0.0,0.0,81,0.00,,---,0.00,VWS V14.01,2013-01-10 05:31:00,
2013-01-10 00:32:00,30.3,25.2,29.88,SSE,165,0.0,0.0,81,0.00,,---,0.00,VWS V14.01,2013-01-10 05:32:00,
2013-01-10 00:33:00,28.8,24.9,29.89,SSE,168,0.0,2.0,85,0.00,,---,0.00,VWS V14.01,2013-01-10 05:33:00,
2013-01-10 00:34:00,30.2,25.1,29.88,South,186,0.0,0.0,81,0.00,,---,0.00,VWS V14.01,2013-01-10 05:34:00,
2013-01-10 00:35:00,30.1,25.0,29.88,South,186,0.0,0.0,81,0.00,,---,0.00,VWS V14.01,2013-01-10 05:35:00,
2013-01-10 00:36:00,30.1,25.3,29.88,South,186,0.0,0.0,82,0.00,,---,0.00,VWS V14.01,2013-01-10 05:36:00,
2013-01-10 00:37:00,30.1,25.3,29.88,South,186,0.0,0.0,82,0.00,,---,0.00,VWS V14.01,2013-01-10 05:37:00,
2013-01-10 00:38:00,29.4,25.2,29.90,WSW,256,0.0,0.0,84,0.00,,---,0.00,VWS V14.01,2013-01-10 05:38:00,
2013-01-10 00:39:00,30.1,25.3,29.88,South,186,0.0,0.0,82,0.00,,---,0.00,VWS V14.01,2013-01-10 05:39:00,
2013-01-10 00:40:00,30.0,25.2,29.88,South,186,0.0,0.0,82,0.00,,---,0.00,VWS V14.01,2013-01-10 05:40:00,
2013-01-10 00:41:00,29.9,25.1,29.88,South,186,0.0,0.0,82,0.00,,---,0.00,VWS V14.01,2013-01-10 05:41:00,
2013-01-10 00:42:00,29.9,25.1,29.88,South,186,0.0,0.0,82,0.00,,---,0.00,VWS V14.01,2013-01-10 05:42:00,
2013-01-10 00:43:00,29.8,25.3,29.89,SE,132,0.0,0.0,83,0.00,,---,0.00,VWS V14.01,2013-01-10 05:43:00,
2013-01-10 00:44:00,29.8,25.0,29.88,South,188,0.0,0.0,82,0.00,,---,0.00,VWS V14.01,2013-01-10 05:44:00,
2013-01-10 00:45:00,29.8,25.0,29.88,South,188,0.0,0.0,82,0.00,,---,0.00,VWS V14.01,2013-01-10 05:45:00,
2013-01-10 00:46:00,29.8,25.3,29.88,South,188,0.0,0.0,83,0.00,,---,0.00,VWS V14.01,2013-01-10 05:46:00,
2013-01-10 00:47:00,29.7,24.9,29.88,South,188,0.0,0.0,82,0.00,,---,0.00,VWS V14.01,2013-01-10 05:47:00,
2013-01-10 00:48:00,29.9,25.4,29.89,SE,132,0.0,0.0,83,0.00,,---,0.00,VWS V14.01,2013-01-10 05:48:00,
2013-01-10 00:49:00,29.8,25.3,29.89,South,188,0.0,0.0,83,0.00,,---,0.00,VWS V14.01,2013-01-10 05:49:00,
2013-01-10 00:50:00,29.7,24.9,29.89,South,188,0.0,0.0,82,0.00,,---,0.00,VWS V14.01,2013-01-10 05:50:00,
2013-01-10 00:51:00,29.7,25.2,29.89,South,188,0.0,0.0,83,0.00,,---,0.00,VWS V14.01,2013-01-10 05:51:00,
2013-01-10 00:52:00,29.7,25.2,29.89,South,188,0.0,0.0,83,0.00,,---,0.00,VWS V14.01,2013-01-10 05:52:00,
2013-01-10 00:53:00,29.9,25.4,29.90,SE,132,0.0,0.0,83,0.00,,---,0.00,VWS V14.01,2013-01-10 05:53:00,
2013-01-10 00:54:00,29.7,25.2,29.89,South,188,0.0,0.0,83,0.00,,---,0.00,VWS V14.01,2013-01-10 05:54:00,
2013-01-10 00:55:00,29.7,25.2,29.89,South,188,0.0,0.0,83,0.00,,---,0.00,VWS V14.01,2013-01-10 05:55:00,
2013-01-10 00:56:00,29.6,25.1,29.89,South,188,0.0,0.0,83,0.00,,---,0.00,VWS V14.01,2013-01-10 05:56:00,
2013-01-10 00:57:00,29.6,24.8,29.89,South,188,0.0,0.0,82,0.00,,---,0.00,VWS V14.01,2013-01-10 05:57:00,
2013-01-10 00:58:00,29.7,25.2,29.90,SSE,149,0.0,0.0,83,0.00,,---,0.00,VWS V14.01,2013-01-10 05:58:00,
2013-01-10 00:59:00,29.5,24.7,29.89,South,188,0.0,0.0,82,0.00,,---,0.00,VWS V14.01,2013-01-10 05:59:00,
2013-01-10 01:00:00,29.5,24.7,29.89,South,188,0.0,0.0,82,0.00,,---,0.00,VWS V14.01,2013-01-10 06:00:00,
2013-01-10 01:01:00,29.4,24.6,29.89,South,188,0.0,0.0,82,0.00,,---,0.00,VWS V14.01,2013-01-10 06:01:00,
2013-01-10 01:02:00,29.3,24.8,29.89,South,188,0.0,0.0,83,0.00,,---,0.00,VWS V14.01,2013-01-10 06:02:00,
2013-01-10 01:03:00,29.6,25.1,29.90,SW,214,0.0,0.0,83,0.00,,---,0.00,VWS V14.01,2013-01-10 06:03:00,
2013-01-10 01:04:00,29.2,24.7,29.89,South,188,0.0,0.0,83,0.00,,---,0.00,VWS V14.01,2013-01-10 06:04:00,
2013-01-10 01:05:00,29.2,24.7,29.89,South,188,0.0,0.0,83,0.00,,---,0.00,VWS V14.01,2013-01-10 06:05:00,
2013-01-10 01:06:00,29.1,24.6,29.89,South,188,0.0,0.0,83,0.00,,---,0.00,VWS V14.01,2013-01-10 06:06:00,
2013-01-10 01:07:00,29.1,24.6,29.89,South,188,0.0,0.0,83,0.00,,---,0.00,VWS V14.01,2013-01-10 06:07:00,
2013-01-10 01:08:00,29.7,25.5,29.90,SW,214,0.0,0.0,84,0.00,,---,0.00,VWS V14.01,2013-01-10 06:08:00,
2013-01-10 01:09:00,29.0,24.5,29.89,South,188,0.0,0.0,83,0.00,,---,0.00,VWS V14.01,2013-01-10 06:09:00,
2013-01-10 01:10:00,28.9,24.4,29.89,South,188,0.0,0.0,83,0.00,,---,0.00,VWS V14.01,2013-01-10 06:10:00,
2013-01-10 01:11:00,28.9,24.4,29.89,South,188,0.0,0.0,83,0.00,,---,0.00,VWS V14.01,2013-01-10 06:11:00,
2013-01-10 01:12:00,28.8,24.3,29.89,South,188,0.0,0.0,83,0.00,,---,0.00,VWS V14.01,2013-01-10 06:12:00,
2013-01-10 01:13:00,29.9,25.7,29.90,SW,214,0.0,0.0,84,0.00,,---,0.00,VWS V14.01,2013-01-10 06:13:00,
2013-01-10 01:14:00,28.8,24.6,29.89,South,188,0.0,0.0,84,0.00,,---,0.00,VWS V14.01,2013-01-10 06:14:00,
2013-01-10 01:15:00,28.7,24.5,29.89,South,188,0.0,0.0,84,0.00,,---,0.00,VWS V14.01,2013-01-10 06:15:00,
2013-01-10 01:16:00,28.7,24.5,29.89,WNW,294,1.0,1.0,84,0.00,,---,0.00,VWS V14.01,2013-01-10 06:16:00,
2013-01-10 01:17:00,28.8,24.6,29.89,SSW,196,0.0,1.0,84,0.00,,---,0.00,VWS V14.01,2013-01-10 06:17:00,
2013-01-10 01:18:00,30.1,25.9,29.90,SW,214,0.0,0.0,84,0.00,,---,0.00,VWS V14.01,2013-01-10 06:18:00,
2013-01-10 01:19:00,28.9,25.0,29.89,SSE,168,0.0,0.0,85,0.00,,---,0.00,VWS V14.01,2013-01-10 06:19:00,
2013-01-10 01:20:00,29.0,25.1,29.89,SSW,202,1.0,2.0,85,0.00,,---,0.00,VWS V14.01,2013-01-10 06:20:00,
2013-01-10 01:21:00,29.1,24.9,29.89,WNW,291,2.0,2.0,84,0.00,,---,0.00,VWS V14.01,2013-01-10 06:21:00,
2013-01-10 01:22:00,29.3,25.4,29.89,WSW,256,0.0,3.0,85,0.00,,---,0.00,VWS V14.01,2013-01-10 06:22:00,
2013-01-10 01:23:00,30.2,25.7,29.90,SW,214,0.0,0.0,83,0.00,,---,0.00,VWS V14.01,2013-01-10 06:23:00,
2013-01-10 01:24:00,29.5,25.3,29.89,WSW,256,0.0,0.0,84,0.00,,---,0.00,VWS V14.01,2013-01-10 06:24:00,
2013-01-10 01:25:00,29.6,25.1,29.89,WSW,256,0.0,0.0,83,0.00,,---,0.00,VWS V14.01,2013-01-10 06:25:00,
2013-01-10 01:26:00,29.6,25.1,29.89,SE,132,1.0,2.0,83,0.00,,---,0.00,VWS V14.01,2013-01-10 06:26:00,
2013-01-10 01:27:00,29.7,25.2,29.89,SE,132,0.0,1.0,83,0.00,,---,0.00,VWS V14.01,2013-01-10 06:27:00,
2013-01-10 01:28:00,30.2,25.7,29.90,SW,236,0.0,2.0,83,0.00,,---,0.00,VWS V14.01,2013-01-10 06:28:00,
2013-01-10 01:29:00,29.8,25.3,29.89,SE,132,0.0,0.0,83,0.00,,---,0.00,VWS V14.01,2013-01-10 06:29:00,
2013-01-10 01:30:00,29.9,25.4,29.89,SE,132,0.0,0.0,83,0.00,,---,0.00,VWS V14.01,2013-01-10 06:30:00,
2013-01-10 01:31:00,29.9,25.1,29.89,SE,132,0.0,0.0,82,0.00,,---,0.00,VWS V14.01,2013-01-10 06:31:00,
2013-01-10 01:32:00,29.9,25.1,29.89,SE,132,0.0,0.0,82,0.00,,---,0.00,VWS V14.01,2013-01-10 06:32:00,
2013-01-10 01:33:00,30.3,25.8,29.91,SW,236,0.0,0.0,83,0.00,,---,0.00,VWS V14.01,2013-01-10 06:33:00,
2013-01-10 01:34:00,29.9,25.4,29.89,SE,132,0.0,0.0,83,0.00,,---,0.00,VWS V14.01,2013-01-10 06:34:00,
2013-01-10 01:35:00,29.9,25.4,29.89,SE,132,0.0,0.0,83,0.00,,---,0.00,VWS V14.01,2013-01-10 06:35:00,
2013-01-10 01:36:00,29.9,25.4,29.89,SE,132,0.0,0.0,83,0.00,,---,0.00,VWS V14.01,2013-01-10 06:36:00,
2013-01-10 01:37:00,29.9,25.4,29.90,SE,132,0.0,0.0,83,0.00,,---,0.00,VWS V14.01,2013-01-10 06:37:00,
2013-01-10 01:38:00,30.5,26.0,29.92,SW,236,0.0,0.0,83,0.00,,---,0.00,VWS V14.01,2013-01-10 06:38:00,
2013-01-10 01:39:00,29.8,25.0,29.90,SE,132,0.0,0.0,82,0.00,,---,0.00,VWS V14.01,2013-01-10 06:39:00,
2013-01-10 01:40:00,29.8,25.0,29.90,SE,132,0.0,0.0,82,0.00,,---,0.00,VWS V14.01,2013-01-10 06:40:00,
2013-01-10 01:41:00,29.8,25.0,29.90,South,169,2.0,2.0,82,0.00,,---,0.00,VWS V14.01,2013-01-10 06:41:00,
2013-01-10 01:42:00,29.8,25.3,29.90,South,169,0.0,2.0,83,0.00,,---,0.00,VWS V14.01,2013-01-10 06:42:00,
2013-01-10 01:43:00,30.8,26.0,29.92,SSW,208,0.0,0.0,82,0.00,,---,0.00,VWS V14.01,2013-01-10 06:43:00,
2013-01-10 01:44:00,29.7,25.2,29.90,SW,214,1.0,2.0,83,0.00,,---,0.00,VWS V14.01,2013-01-10 06:44:00,
2013-01-10 01:45:00,29.6,24.8,29.90,SW,214,0.0,1.0,82,0.00,,---,0.00,VWS V14.01,2013-01-10 06:45:00,
2013-01-10 01:46:00,29.6,25.1,29.90,SW,214,0.0,1.0,83,0.00,,---,0.00,VWS V14.01,2013-01-10 06:46:00,
2013-01-10 01:47:00,29.6,25.1,29.90,SW,214,0.0,0.0,83,0.00,,---,0.00,VWS V14.01,2013-01-10 06:47:00,
2013-01-10 01:48:00,31.0,26.2,29.92,SSW,207,0.0,0.0,82,0.00,,---,0.00,VWS V14.01,2013-01-10 06:48:00,
2013-01-10 01:49:00,29.6,25.1,29.90,SW,214,0.0,0.0,83,0.00,,---,0.00,VWS V14.01,2013-01-10 06:49:00,
2013-01-10 01:50:00,29.6,25.4,29.90,SW,214,0.0,0.0,84,0.00,,---,0.00,VWS V14.01,2013-01-10 06:50:00,
2013-01-10 01:51:00,29.6,25.4,29.90,SW,214,0.0,0.0,84,0.00,,---,0.00,VWS V14.01,2013-01-10 06:51:00,
2013-01-10 01:52:00,29.6,25.4,29.91,SW,214,0.0,0.0,84,0.00,,---,0.00,VWS V14.01,2013-01-10 06:52:00,
2013-01-10 01:53:00,31.1,26.3,29.93,SSW,208,0.0,0.0,82,0.00,,---,0.00,VWS V14.01,2013-01-10 06:53:00,
2013-01-10 01:54:00,29.7,25.5,29.90,SW,214,0.0,0.0,84,0.00,,---,0.00,VWS V14.01,2013-01-10 06:54:00,
2013-01-10 01:55:00,29.7,25.5,29.90,SW,214,0.0,0.0,84,0.00,,---,0.00,VWS V14.01,2013-01-10 06:55:00,
2013-01-10 01:56:00,29.8,25.6,29.90,SW,214,0.0,0.0,84,0.00,,---,0.00,VWS V14.01,2013-01-10 06:56:00,
2013-01-10 01:57:00,29.8,25.6,29.90,SW,214,0.0,0.0,84,0.00,,---,0.00,VWS V14.01,2013-01-10 06:57:00,
2013-01-10 01:58:00,31.2,26.4,29.93,SSE,168,0.0,1.0,82,0.00,,---,0.00,VWS V14.01,2013-01-10 06:58:00,
2013-01-10 01:59:00,29.9,25.7,29.90,SW,214,0.0,0.0,84,0.00,,---,0.00,VWS V14.01,2013-01-10 06:59:00,
2013-01-10 02:00:00,29.9,25.7,29.91,SW,214,0.0,0.0,84,0.00,,---,0.00,VWS V14.01,2013-01-10 07:00:00,
2013-01-10 02:01:00,30.0,25.8,29.90,SW,214,0.0,0.0,84,0.00,,---,0.00,VWS V14.01,2013-01-10 07:01:00,
2013-01-10 02:02:00,30.1,25.9,29.90,SW,214,0.0,0.0,84,0.00,,---,0.00,VWS V14.01,2013-01-10 07:02:00,
2013-01-10 02:03:00,31.5,26.4,29.93,WNW,284,0.0,0.0,81,0.00,,---,0.00,VWS V14.01,2013-01-10 07:03:00,
2013-01-10 02:04:00,30.1,25.9,29.90,SW,214,0.0,0.0,84,0.00,,---,0.00,VWS V14.01,2013-01-10 07:04:00,
2013-01-10 02:05:00,30.1,25.9,29.90,SW,214,0.0,0.0,84,0.00,,---,0.00,VWS V14.01,2013-01-10 07:05:00,
2013-01-10 02:06:00,30.1,25.9,29.90,SW,214,0.0,0.0,84,0.00,,---,0.00,VWS V14.01,2013-01-10 07:06:00,
2013-01-10 02:07:00,30.2,25.7,29.90,SW,214,0.0,0.0,83,0.00,,---,0.00,VWS V14.01,2013-01-10 07:07:00,
2013-01-10 02:08:00,32.8,27.0,29.94,WNW,299,0.0,1.0,79,0.00,,---,0.00,VWS V14.01,2013-01-10 07:08:00,
2013-01-10 02:09:00,30.2,25.7,29.90,SW,214,0.0,0.0,83,0.00,,---,0.00,VWS V14.01,2013-01-10 07:09:00,
2013-01-10 02:10:00,30.2,25.7,29.90,SW,214,0.0,0.0,83,0.00,,---,0.00,VWS V14.01,2013-01-10 07:10:00,
2013-01-10 02:11:00,30.2,25.7,29.90,SW,214,0.0,0.0,83,0.00,,---,0.00,VWS V14.01,2013-01-10 07:11:00,
2013-01-10 02:12:00,30.2,25.7,29.90,SSW,196,0.0,0.0,83,0.00,,---,0.00,VWS V14.01,2013-01-10 07:12:00,
2013-01-10 02:13:00,33.7,27.3,29.94,NW,311,0.0,1.0,77,0.00,,---,0.00,VWS V14.01,2013-01-10 07:13:00,
2013-01-10 02:14:00,30.2,25.7,29.91,SW,236,0.0,0.0,83,0.00,,---,0.00,VWS V14.01,2013-01-10 07:14:00,
2013-01-10 02:15:00,30.2,25.7,29.91,SW,236,0.0,0.0,83,0.00,,---,0.00,VWS V14.01,2013-01-10 07:15:00,
2013-01-10 02:16:00,30.2,25.7,29.91,SW,236,0.0,0.0,83,0.00,,---,0.00,VWS V14.01,2013-01-10 07:16:00,
2013-01-10 02:17:00,30.3,25.8,29.91,SW,236,0.0,0.0,83,0.00,,---,0.00,VWS V14.01,2013-01-10 07:17:00,
2013-01-10 02:18:00,34.4,28.0,29.95,NNE,12,2.0,3.0,77,0.00,,---,0.00,VWS V14.01,2013-01-10 07:18:00,
2013-01-10 02:19:00,30.3,25.8,29.91,SW,236,0.0,0.0,83,0.00,,---,0.00,VWS V14.01,2013-01-10 07:19:00,
2013-01-10 02:20:00,30.3,25.8,29.91,SW,236,0.0,0.0,83,0.00,,---,0.00,VWS V14.01,2013-01-10 07:20:00,
2013-01-10 02:21:00,30.4,25.9,29.92,SW,236,0.0,0.0,83,0.00,,---,0.00,VWS V14.01,2013-01-10 07:21:00,
2013-01-10 02:22:00,30.4,25.9,29.92,SW,236,0.0,0.0,83,0.00,,---,0.00,VWS V14.01,2013-01-10 07:22:00,
2013-01-10 02:23:00,36.3,28.8,29.95,East,95,0.0,1.0,74,0.00,,---,0.00,VWS V14.01,2013-01-10 07:23:00,
2013-01-10 02:24:00,30.5,26.0,29.92,SW,236,0.0,0.0,83,0.00,,---,0.00,VWS V14.01,2013-01-10 07:24:00,
2013-01-10 02:25:00,30.5,26.0,29.92,SW,236,0.0,0.0,83,0.00,,---,0.00,VWS V14.01,2013-01-10 07:25:00,
2013-01-10 02:26:00,30.6,25.8,29.92,SSW,208,1.0,1.0,82,0.00,,---,0.00,VWS V14.01,2013-01-10 07:26:00,
2013-01-10 02:27:00,30.7,26.2,29.92,SSW,208,0.0,1.0,83,0.00,,---,0.00,VWS V14.01,2013-01-10 07:27:00,
2013-01-10 02:28:00,37.5,29.3,29.95,NE,48,0.0,1.0,72,0.00,,---,0.00,VWS V14.01,2013-01-10 07:28:00,
2013-01-10 02:29:00,30.8,26.0,29.92,SSW,208,0.0,0.0,82,0.00,,---,0.00,VWS V14.01,2013-01-10 07:29:00,
2013-01-10 02:30:00,30.9,26.1,29.92,SSW,208,0.0,0.0,82,0.00,,---,0.00,VWS V14.01,2013-01-10 07:30:00,
2013-01-10 02:31:00,30.9,26.1,29.92,SSW,208,0.0,0.0,82,0.00,,---,0.00,VWS V14.01,2013-01-10 07:31:00,
2013-01-10 02:32:00,31.0,26.2,29.92,SSW,207,0.0,0.0,82,0.00,,---,0.00,VWS V14.01,2013-01-10 07:32:00,
2013-01-10 02:33:00,31.0,26.2,29.92,SSW,207,0.0,0.0,82,0.00,,---,0.00,VWS V14.01,2013-01-10 07:33:00,
2013-01-10 02:34:00,38.2,29.6,29.95,SSE,153,1.0,5.0,71,0.00,,---,0.00,VWS V14.01,2013-01-10 07:34:00,
2013-01-10 02:35:00,31.0,25.9,29.92,SSW,208,0.0,0.0,81,0.00,,---,0.00,VWS V14.01,2013-01-10 07:35:00,
2013-01-10 02:36:00,31.0,26.2,29.92,SSW,207,0.0,0.0,82,0.00,,---,0.00,VWS V14.01,2013-01-10 07:36:00,
2013-01-10 02:37:00,31.0,26.2,29.92,SSW,208,0.0,1.0,82,0.00,,---,0.00,VWS V14.01,2013-01-10 07:37:00,
2013-01-10 02:38:00,31.1,26.3,29.93,SSW,208,0.0,0.0,82,0.00,,---,0.00,VWS V14.01,2013-01-10 07:38:00,
2013-01-10 02:39:00,38.7,30.1,29.95,East,92,0.0,3.0,71,0.00,,---,0.00,VWS V14.01,2013-01-10 07:39:00,
2013-01-10 02:40:00,31.1,26.0,29.93,SSW,207,1.0,2.0,81,0.00,,---,0.00,VWS V14.01,2013-01-10 07:40:00,
2013-01-10 02:41:00,31.1,26.3,29.93,ESE,109,1.0,1.0,82,0.00,,---,0.00,VWS V14.01,2013-01-10 07:41:00,
2013-01-10 02:42:00,31.1,26.3,29.93,SSE,168,0.0,2.0,82,0.00,,---,0.00,VWS V14.01,2013-01-10 07:42:00,
2013-01-10 02:43:00,31.2,26.4,29.93,SSE,168,0.0,1.0,82,0.00,,---,0.00,VWS V14.01,2013-01-10 07:43:00,
2013-01-10 02:44:00,38.9,30.3,29.95,WNW,282,1.0,5.0,71,0.00,,---,0.00,VWS V14.01,2013-01-10 07:44:00,
2013-01-10 02:45:00,31.3,26.2,29.93,WNW,284,0.0,1.0,81,0.00,,---,0.00,VWS V14.01,2013-01-10 07:45:00,
2013-01-10 02:46:00,31.3,26.2,29.93,WNW,284,0.0,0.0,81,0.00,,---,0.00,VWS V14.01,2013-01-10 07:46:00,
2013-01-10 02:47:00,31.4,26.2,29.93,WNW,284,0.0,0.0,81,0.00,,---,0.00,VWS V14.01,2013-01-10 07:47:00,
2013-01-10 02:48:00,31.5,26.4,29.93,WNW,284,0.0,0.0,81,0.00,,---,0.00,VWS V14.01,2013-01-10 07:48:00,
2013-01-10 02:49:00,38.8,30.2,29.96,WNW,288,1.0,2.0,71,0.00,,---,0.00,VWS V14.01,2013-01-10 07:49:00,
2013-01-10 02:50:00,31.7,26.5,29.93,North,5,1.0,3.0,81,0.00,,---,0.00,VWS V14.01,2013-01-10 07:50:00,
2013-01-10 02:51:00,32.1,26.9,29.94,North,5,0.0,1.0,81,0.00,,---,0.00,VWS V14.01,2013-01-10 07:51:00,
2013-01-10 02:52:00,32.5,27.0,29.94,WNW,299,1.0,2.0,80,0.00,,---,0.00,VWS V14.01,2013-01-10 07:52:00,
2013-01-10 02:53:00,32.8,27.0,29.94,WNW,299,0.0,1.0,79,0.00,,---,0.00,VWS V14.01,2013-01-10 07:53:00,
2013-01-10 02:54:00,38.7,30.5,29.96,NW,309,2.0,5.0,72,0.00,,---,0.00,VWS V14.01,2013-01-10 07:54:00,
2013-01-10 02:55:00,33.2,27.1,29.94,NW,311,1.0,1.0,78,0.00,,---,0.00,VWS V14.01,2013-01-10 07:55:00,
2013-01-10 02:56:00,33.4,27.3,29.94,NW,311,0.0,1.0,78,0.00,,---,0.00,VWS V14.01,2013-01-10 07:56:00,
2013-01-10 02:57:00,33.5,27.4,29.94,NW,311,0.0,0.0,78,0.00,,---,0.00,VWS V14.01,2013-01-10 07:57:00,
2013-01-10 02:58:00,33.7,27.3,29.94,NW,311,0.0,1.0,77,0.00,,---,0.00,VWS V14.01,2013-01-10 07:58:00,
2013-01-10 02:59:00,38.5,30.3,29.96,WNW,290,2.0,6.0,72,0.00,,---,0.00,VWS V14.01,2013-01-10 07:59:00,
2013-01-10 03:00:00,33.9,27.5,29.94,NNE,17,1.0,3.0,77,0.00,,---,0.00,VWS V14.01,2013-01-10 08:00:00,
2013-01-10 03:01:00,34.1,27.7,29.95,ENE,67,1.0,2.0,77,0.00,,---,0.00,VWS V14.01,2013-01-10 08:01:00,
2013-01-10 03:02:00,34.2,27.8,29.95,North,5,2.0,5.0,77,0.00,,---,0.00,VWS V14.01,2013-01-10 08:02:00,
2013-01-10 03:03:00,34.4,28.0,29.95,NNE,12,2.0,3.0,77,0.00,,---,0.00,VWS V14.01,2013-01-10 08:03:00,
2013-01-10 03:04:00,34.7,27.9,29.95,NNW,335,0.0,4.0,76,0.00,,---,0.00,VWS V14.01,2013-01-10 08:04:00,
2013-01-10 03:05:00,38.3,30.4,29.96,NW,311,5.0,5.0,73,0.00,,---,0.00,VWS V14.01,2013-01-10 08:05:00,
2013-01-10 03:06:00,35.5,28.4,29.95,NW,323,7.0,7.0,75,0.00,,---,0.00,VWS V14.01,2013-01-10 08:06:00,
2013-01-10 03:07:00,35.9,28.4,29.95,North,10,1.0,7.0,74,0.00,,---,0.00,VWS V14.01,2013-01-10 08:07:00,
2013-01-10 03:08:00,36.3,28.8,29.95,East,95,0.0,1.0,74,0.00,,---,0.00,VWS V14.01,2013-01-10 08:08:00,
2013-01-10 03:09:00,36.6,28.8,29.95,NNE,17,0.0,4.0,73,0.00,,---,0.00,VWS V14.01,2013-01-10 08:09:00,
2013-01-10 03:10:00,38.1,30.2,29.96,WNW,290,1.0,5.0,73,0.00,,---,0.00,VWS V14.01,2013-01-10 08:10:00,
2013-01-10 03:11:00,37.1,28.9,29.95,NNW,332,0.0,1.0,72,0.00,,---,0.00,VWS V14.01,2013-01-10 08:11:00,
2013-01-10 03:12:00,37.3,29.1,29.95,ENE,61,1.0,1.0,72,0.00,,---,0.00,VWS V14.01,2013-01-10 08:12:00,
2013-01-10 03:13:00,37.5,29.3,29.95,NE,48,0.0,1.0,72,0.00,,---,0.00,VWS V14.01,2013-01-10 08:13:00,
2013-01-10 03:14:00,37.6,29.4,29.95,North,11,0.0,4.0,72,0.00,,---,0.00,VWS V14.01,2013-01-10 08:14:00,
2013-01-10 03:15:00,37.9,30.0,29.96,SW,230,0.0,6.0,73,0.00,,---,0.00,VWS V14.01,2013-01-10 08:15:00,
2013-01-10 03:16:00,37.9,29.4,29.95,East,97,0.0,2.0,71,0.00,,---,0.00,VWS V14.01,2013-01-10 08:16:00,
2013-01-10 03:17:00,38.0,29.5,29.95,East,92,0.0,1.0,71,0.00,,---,0.00,VWS V14.01,2013-01-10 08:17:00,
2013-01-10 03:18:00,38.1,29.5,29.95,NNE,15,2.0,4.0,71,0.00,,---,0.00,VWS V14.01,2013-01-10 08:18:00,
2013-01-10 03:19:00,38.2,29.6,29.95,SSE,153,1.0,5.0,71,0.00,,---,0.00,VWS V14.01,2013-01-10 08:19:00,
2013-01-10 03:20:00,37.8,29.9,29.97,SW,226,4.0,4.0,73,0.00,,---,0.00,VWS V14.01,2013-01-10 08:20:00,
2013-01-10 03:21:00,38.5,29.9,29.95,NNW,336,2.0,5.0,71,0.00,,---,0.00,VWS V14.01,2013-01-10 08:21:00,
2013-01-10 03:22:00,38.6,30.0,29.95,NNW,327,0.0,2.0,71,0.00,,---,0.00,VWS V14.01,2013-01-10 08:22:00,
2013-01-10 03:23:00,38.7,30.1,29.95,ENE,67,0.0,3.0,71,0.00,,---,0.00,VWS V14.01,2013-01-10 08:23:00,
2013-01-10 03:24:00,38.7,30.1,29.95,East,92,0.0,3.0,71,0.00,,---,0.00,VWS V14.01,2013-01-10 08:24:00,
2013-01-10 03:25:00,37.7,29.8,29.97,NE,36,1.0,1.0,73,0.00,,---,0.00,VWS V14.01,2013-01-10 08:25:00,
2013-01-10 03:26:00,38.8,30.2,29.95,NNE,33,4.0,4.0,71,0.00,,---,0.00,VWS V14.01,2013-01-10 08:26:00,
2013-01-10 03:27:00,38.8,30.2,29.95,NE,42,0.0,4.0,71,0.00,,---,0.00,VWS V14.01,2013-01-10 08:27:00,
2013-01-10 03:28:00,38.8,30.2,29.95,ESE,117,0.0,5.0,71,0.00,,---,0.00,VWS V14.01,2013-01-10 08:28:00,
2013-01-10 03:29:00,38.9,30.3,29.95,WNW,282,1.0,5.0,71,0.00,,---,0.00,VWS V14.01,2013-01-10 08:29:00,
2013-01-10 03:30:00,38.8,30.2,29.96,NW,313,0.0,2.0,71,0.00,,---,0.00,VWS V14.01,2013-01-10 08:30:00,
2013-01-10 03:31:00,38.8,30.2,29.95,West,266,3.0,3.0,71,0.00,,---,0.00,VWS V14.01,2013-01-10 08:31:00,
2013-01-10 03:32:00,38.8,30.2,29.96,NW,323,2.0,3.0,71,0.00,,---,0.00,VWS V14.01,2013-01-10 08:32:00,
2013-01-10 03:33:00,38.8,30.2,29.96,North,355,0.0,2.0,71,0.00,,---,0.00,VWS V14.01,2013-01-10 08:33:00,
2013-01-10 03:34:00,38.8,30.2,29.96,WNW,288,1.0,2.0,71,0.00,,---,0.00,VWS V14.01,2013-01-10 08:34:00,
2013-01-10 03:35:00,38.8,30.2,29.96,SSE,167,2.0,6.0,71,0.00,,---,0.00,VWS V14.01,2013-01-10 08:35:00,
2013-01-10 03:36:00,38.8,30.6,29.96,SSE,154,0.0,2.0,72,0.00,,---,0.00,VWS V14.01,2013-01-10 08:36:00,
2013-01-10 03:37:00,38.7,30.1,29.96,SE,136,0.0,1.0,71,0.00,,---,0.00,VWS V14.01,2013-01-10 08:37:00,
2013-01-10 03:38:00,38.7,30.1,29.96,East,100,0.0,3.0,71,0.00,,---,0.00,VWS V14.01,2013-01-10 08:38:00,
2013-01-10 03:39:00,38.7,30.5,29.96,NW,309,2.0,5.0,72,0.00,,---,0.00,VWS V14.01,2013-01-10 08:39:00,
2013-01-10 03:40:00,38.6,30.4,29.96,North,9,0.0,2.0,72,0.00,,---,0.00,VWS V14.01,2013-01-10 08:40:00,
2013-01-10 03:41:00,38.6,30.4,29.96,South,175,0.0,2.0,72,0.00,,---,0.00,VWS V14.01,2013-01-10 08:41:00,
2013-01-10 03:42:00,38.5,30.3,29.96,NW,316,1.0,3.0,72,0.00,,---,0.00,VWS V14.01,2013-01-10 08:42:00,
2013-01-10 03:43:00,38.5,30.3,29.96,SE,132,6.0,6.0,72,0.00,,---,0.00,VWS V14.01,2013-01-10 08:43:00,
2013-01-10 03:44:00,38.5,30.3,29.96,WNW,290,2.0,6.0,72,0.00,,---,0.00,VWS V14.01,2013-01-10 08:44:00,
2013-01-10 03:45:00,38.4,30.5,29.96,WNW,296,2.0,9.0,73,0.00,,---,0.00,VWS V14.01,2013-01-10 08:45:00,
2013-01-10 03:46:00,38.4,30.2,29.96,East,80,0.0,3.0,72,0.00,,---,0.00,VWS V14.01,2013-01-10 08:46:00,
2013-01-10 03:47:00,38.3,30.4,29.96,WSW,253,2.0,5.0,73,0.00,,---,0.00,VWS V14.01,2013-01-10 08:47:00,
2013-01-10 03:48:00,38.3,30.4,29.96,ESE,107,3.0,3.0,73,0.00,,---,0.00,VWS V14.01,2013-01-10 08:48:00,
2013-01-10 03:49:00,38.3,30.4,29.96,South,173,0.0,5.0,73,0.00,,---,0.00,VWS V14.01,2013-01-10 08:49:00,
2013-01-10 03:50:00,38.3,30.4,29.96,NW,311,5.0,5.0,73,0.00,,---,0.00,VWS V14.01,2013-01-10 08:50:00,
2013-01-10 03:51:00,38.2,30.3,29.96,WNW,300,1.0,5.0,73,0.00,,---,0.00,VWS V14.01,2013-01-10 08:51:00,
2013-01-10 03:52:00,38.2,30.3,29.96,SSW,209,3.0,3.0,73,0.00,,---,0.00,VWS V14.01,2013-01-10 08:52:00,
2013-01-10 03:53:00,38.2,30.3,29.96,SSE,157,1.0,3.0,73,0.00,,---,0.00,VWS V14.01,2013-01-10 08:53:00,
2013-01-10 03:54:00,38.1,30.2,29.96,SW,214,0.0,3.0,73,0.00,,---,0.00,VWS V14.01,2013-01-10 08:54:00,
2013-01-10 03:55:00,38.1,30.2,29.96,WNW,290,1.0,5.0,73,0.00,,---,0.00,VWS V14.01,2013-01-10 08:55:00,
2013-01-10 03:56:00,38.1,30.2,29.96,SE,125,0.0,2.0,73,0.00,,---,0.00,VWS V14.01,2013-01-10 08:56:00,
2013-01-10 03:57:00,38.1,30.2,29.96,WNW,302,0.0,1.0,73,0.00,,---,0.00,VWS V14.01,2013-01-10 08:57:00,
2013-01-10 03:58:00,38.0,30.1,29.96,ESE,117,1.0,2.0,73,0.00,,---,0.00,VWS V14.01,2013-01-10 08:58:00,
2013-01-10 03:59:00,38.0,30.1,29.96,SE,144,0.0,2.0,73,0.00,,---,0.00,VWS V14.01,2013-01-10 08:59:00,
2013-01-10 04:00:00,37.9,30.0,29.96,SW,230,0.0,6.0,73,0.00,,---,0.00,VWS V14.01,2013-01-10 09:00:00,
2013-01-10 04:01:00,37.9,30.0,29.97,SE,144,1.0,1.0,73,0.00,,---,0.00,VWS V14.01,2013-01-10 09:01:00,
2013-01-10 04:02:00,37.9,30.0,29.97,East,88,0.0,3.0,73,0.00,,---,0.00,VWS V14.01,2013-01-10 09:02:00,
2013-01-10 04:03:00,37.9,30.0,29.97,West,267,1.0,8.0,73,0.00,,---,0.00,VWS V14.01,2013-01-10 09:03:00,
2013-01-10 04:04:00,37.9,30.0,29.97,West,264,2.0,6.0,73,0.00,,---,0.00,VWS V14.01,2013-01-10 09:04:00,
2013-01-10 04:05:00,37.8,29.9,29.97,SW,226,4.0,4.0,73,0.00,,---,0.00,VWS V14.01,2013-01-10 09:05:00,
2013-01-10 04:06:00,37.8,30.3,29.97,West,271,3.0,7.0,74,0.00,,---,0.00,VWS V14.01,2013-01-10 09:06:00,
2013-01-10 04:07:00,37.8,30.3,29.97,NNE,23,2.0,4.0,74,0.00,,---,0.00,VWS V14.01,2013-01-10 09:07:00,
2013-01-10 04:08:00,37.8,30.3,29.97,NNE,17,0.0,5.0,74,0.00,,---,0.00,VWS V14.01,2013-01-10 09:08:00,
2013-01-10 04:09:00,37.7,29.8,29.97,NNE,17,0.0,0.0,73,0.00,,---,0.00,VWS V14.01,2013-01-10 09:09:00,
2013-01-10 04:10:00,37.7,29.8,29.97,NE,36,1.0,1.0,73,0.00,,---,0.00,VWS V14.01,2013-01-10 09:10:00,
2013-01-10 04:11:00,37.6,30.1,29.97,West,265,2.0,4.0,74,0.00,,---,0.00,VWS V14.01,2013-01-10 09:11:00,
2013-01-10 04:12:00,37.6,30.1,29.97,NNW,337,1.0,5.0,74,0.00,,---,0.00,VWS V14.01,2013-01-10 09:12:00,
2013-01-10 04:13:00,37.5,30.0,29.98,West,271,2.0,2.0,74,0.00,,---,0.00,VWS V14.01,2013-01-10 09:13:00,
2013-01-10 04:14:00,37.5,30.0,29.98,SSE,158,2.0,5.0,74,0.00,,---,0.00,VWS V14.01,2013-01-10 09:14:00,
2013-01-10 04:15:00,37.5,30.0,29.98,West,270,4.0,7.0,74,0.00,,---,0.00,VWS V14.01,2013-01-10 09:15:00,
2013-01-10 04:16:00,37.5,30.0,29.98,NNW,338,4.0,11.0,74,0.00,,---,0.00,VWS V14.01,2013-01-10 09:16:00,
2013-01-10 04:17:00,37.6,30.1,29.98,SE,135,2.0,4.0,74,0.00,,---,0.00,VWS V14.01,2013-01-10 09:17:00,
2013-01-10 04:18:00,37.5,30.0,29.98,WSW,248,1.0,4.0,74,0.00,,---,0.00,VWS V14.01,2013-01-10 09:18:00,
2013-01-10 04:19:00,37.5,30.0,29.98,SW,225,0.0,2.0,74,0.00,,---,0.00,VWS V14.01,2013-01-10 09:19:00,
2013-01-10 04:20:00,37.5,30.0,29.98,SSW,202,1.0,2.0,74,0.00,,---,0.00,VWS V14.01,2013-01-10 09:20:00,
2013-01-10 04:21:00,37.5,30.0,29.98,SE,135,1.0,5.0,74,0.00,,---,0.00,VWS V14.01,2013-01-10 09:21:00,
2013-01-10 04:22:00,37.5,30.0,29.98,NNW,338,5.0,7.0,74,0.00,,---,0.00,VWS V14.01,2013-01-10 09:22:00,
2013-01-10 04:23:00,37.4,29.9,29.98,NW,315,2.0,7.0,74,0.00,,---,0.00,VWS V14.01,2013-01-10 09:23:00,
2013-01-10 04:24:00,37.4,29.9,29.98,West,270,1.0,5.0,74,0.00,,---,0.00,VWS V14.01,2013-01-10 09:24:00,
2013-01-10 04:25:00,37.4,29.9,29.98,WNW,292,0.0,1.0,74,0.00,,---,0.00,VWS V14.01,2013-01-10 09:25:00,
2013-01-10 04:26:00,37.4,29.9,29.98,ESE,112,1.0,3.0,74,0.00,,---,0.00,VWS V14.01,2013-01-10 09:26:00,
2013-01-10 04:27:00,37.3,29.5,29.98,SE,135,1.0,3.0,73,0.00,,---,0.00,VWS V14.01,2013-01-10 09:27:00,
2013-01-10 04:28:00,37.3,29.8,29.98,SE,135,3.0,9.0,74,0.00,,---,0.00,VWS V14.01,2013-01-10 09:28:00,
2013-01-10 04:29:00,37.3,29.8,29.98,NW,315,2.0,5.0,74,0.00,,---,0.00,VWS V14.01,2013-01-10 09:29:00,
2013-01-10 04:30:00,37.3,29.8,29.98,NW,315,1.0,3.0,74,0.00,,---,0.00,VWS V14.01,2013-01-10 09:30:00,
2013-01-10 04:31:00,37.2,29.4,29.98,NW,315,1.0,2.0,73,0.00,,---,0.00,VWS V14.01,2013-01-10 09:31:00,
2013-01-10 04:32:00,37.2,29.4,29.98,SSE,158,2.0,3.0,73,0.00,,---,0.00,VWS V14.01,2013-01-10 09:32:00,
2013-01-10 04:33:00,37.1,29.3,29.98,South,180,1.0,4.0,73,0.00,,---,0.00,VWS V14.01,2013-01-10 09:33:00,
2013-01-10 04:34:00,37.2,29.4,29.98,SW,225,2.0,4.0,73,0.00,,---,0.00,VWS V14.01,2013-01-10 09:34:00,
2013-01-10 04:35:00,37.1,29.3,29.98,WNW,292,2.0,6.0,73,0.00,,---,0.00,VWS V14.01,2013-01-10 09:35:00,
2013-01-10 04:36:00,37.2,29.4,29.99,NE,45,2.0,3.0,73,0.00,,---,0.00,VWS V14.01,2013-01-10 09:36:00,
2013-01-10 04:37:00,37.2,29.4,29.99,WSW,248,1.0,3.0,73,0.00,,---,0.00,VWS V14.01,2013-01-10 09:37:00,
2013-01-10 04:38:00,37.1,29.3,29.99,North,0,2.0,4.0,73,0.00,,---,0.00,VWS V14.01,2013-01-10 09:38:00,
2013-01-10 04:39:00,37.1,29.3,29.99,West,270,2.0,4.0,73,0.00,,---,0.00,VWS V14.01,2013-01-10 09:39:00,
2013-01-10 04:40:00,37.2,29.4,29.99,West,270,0.0,1.0,73,0.00,,---,0.00,VWS V14.01,2013-01-10 09:40:00,
2013-01-10 04:41:00,37.1,29.3,29.99,ESE,112,0.0,1.0,73,0.00,,---,0.00,VWS V14.01,2013-01-10 09:41:00,
2013-01-10 04:42:00,37.1,29.3,29.99,ESE,112,0.0,5.0,73,0.00,,---,0.00,VWS V14.01,2013-01-10 09:42:00,
2013-01-10 04:43:00,37.1,29.3,29.99,SSE,158,1.0,4.0,73,0.00,,---,0.00,VWS V14.01,2013-01-10 09:43:00,
2013-01-10 04:44:00,37.1,29.3,29.99,ENE,68,2.0,4.0,73,0.00,,---,0.00,VWS V14.01,2013-01-10 09:44:00,
2013-01-10 04:45:00,37.1,29.3,30.00,NNW,338,1.0,2.0,73,0.00,,---,0.00,VWS V14.01,2013-01-10 09:45:00,
2013-01-10 04:46:00,37.1,29.3,29.99,SSE,158,1.0,3.0,73,0.00,,---,0.00,VWS V14.01,2013-01-10 09:46:00,
2013-01-10 04:47:00,37.1,29.3,29.99,SE,135,0.0,1.0,73,0.00,,---,0.00,VWS V14.01,2013-01-10 09:47:00,
2013-01-10 04:48:00,37.0,28.8,30.00,WSW,248,0.0,2.0,72,0.00,,---,0.00,VWS V14.01,2013-01-10 09:48:00,
2013-01-10 04:49:00,37.0,28.8,30.00,NW,315,2.0,5.0,72,0.00,,---,0.00,VWS V14.01,2013-01-10 09:49:00,
2013-01-10 04:50:00,37.0,28.8,30.00,WNW,292,2.0,3.0,72,0.00,,---,0.00,VWS V14.01,2013-01-10 09:50:00,
2013-01-10 04:51:00,37.0,28.8,30.00,SSE,158,1.0,5.0,72,0.00,,---,0.00,VWS V14.01,2013-01-10 09:51:00,
2013-01-10 04:52:00,37.0,28.8,30.00,West,270,2.0,5.0,72,0.00,,---,0.00,VWS V14.01,2013-01-10 09:52:00,
2013-01-10 04:53:00,37.0,28.8,30.00,NE,45,1.0,3.0,72,0.00,,---,0.00,VWS V14.01,2013-01-10 09:53:00,
2013-01-10 04:54:00,37.0,28.8,30.00,NNW,338,1.0,3.0,72,0.00,,---,0.00,VWS V14.01,2013-01-10 09:54:00,
2013-01-10 04:55:00,37.0,28.8,30.00,North,0,0.0,1.0,72,0.00,,---,0.00,VWS V14.01,2013-01-10 09:55:00,
2013-01-10 04:56:00,37.0,28.8,30.00,SSE,158,1.0,3.0,72,0.00,,---,0.00,VWS V14.01,2013-01-10 09:56:00,
2013-01-10 04:57:00,37.0,28.8,30.00,West,270,2.0,4.0,72,0.00,,---,0.00,VWS V14.01,2013-01-10 09:57:00,
2013-01-10 04:58:00,37.0,28.8,30.00,NE,45,1.0,5.0,72,0.00,,---,0.00,VWS V14.01,2013-01-10 09:58:00,
2013-01-10 04:59:00,37.0,28.8,30.00,NNW,338,1.0,3.0,72,0.00,,---,0.00,VWS V14.01,2013-01-10 09:59:00,
2013-01-10 05:00:00,37.0,28.8,30.00,SE,135,1.0,3.0,72,0.00,,---,0.00,VWS V14.01,2013-01-10 10:00:00,
2013-01-10 05:01:00,37.0,28.5,30.00,South,180,1.0,3.0,71,0.00,,---,0.00,VWS V14.01,2013-01-10 10:01:00,
2013-01-10 05:02:00,37.0,28.5,30.00,SE,135,1.0,4.0,71,0.00,,---,0.00,VWS V14.01,2013-01-10 10:02:00,
2013-01-10 05:03:00,37.0,28.5,30.00,ENE,68,1.0,4.0,71,0.00,,---,0.00,VWS V14.01,2013-01-10 10:03:00,
2013-01-10 05:04:00,37.0,28.5,30.00,SSE,158,2.0,5.0,71,0.00,,---,0.00,VWS V14.01,2013-01-10 10:04:00,
2013-01-10 05:05:00,37.0,28.5,30.00,East,90,1.0,2.0,71,0.00,,---,0.00,VWS V14.01,2013-01-10 10:05:00,
2013-01-10 05:06:00,37.0,28.5,30.00,ESE,112,2.0,3.0,71,0.00,,---,0.00,VWS V14.01,2013-01-10 10:06:00,
2013-01-10 05:07:00,36.9,28.4,30.00,ENE,68,1.0,2.0,71,0.00,,---,0.00,VWS V14.01,2013-01-10 10:07:00,
2013-01-10 05:08:00,37.0,28.5,30.00,NNE,22,2.0,5.0,71,0.00,,---,0.00,VWS V14.01,2013-01-10 10:08:00,
2013-01-10 05:09:00,37.0,28.5,30.01,North,0,1.0,2.0,71,0.00,,---,0.00,VWS V14.01,2013-01-10 10:09:00,
2013-01-10 05:10:00,37.1,28.6,30.01,West,270,0.0,1.0,71,0.00,,---,0.00,VWS V14.01,2013-01-10 10:10:00,
2013-01-10 05:11:00,37.1,28.6,30.01,SSE,158,1.0,2.0,71,0.00,,---,0.00,VWS V14.01,2013-01-10 10:11:00,
2013-01-10 05:12:00,37.1,28.2,30.01,ESE,112,2.0,3.0,70,0.00,,---,0.00,VWS V14.01,2013-01-10 10:12:00,
2013-01-10 05:13:00,37.1,28.2,30.01,ESE,112,0.0,1.0,70,0.00,,---,0.00,VWS V14.01,2013-01-10 10:13:00,
2013-01-10 05:14:00,37.1,28.2,30.01,WNW,292,1.0,4.0,70,0.00,,---,0.00,VWS V14.01,2013-01-10 10:14:00,
2013-01-10 05:15:00,37.1,28.2,30.01,SSW,202,1.0,6.0,70,0.00,,---,0.00,VWS V14.01,2013-01-10 10:15:00,
2013-01-10 05:16:00,37.2,28.3,30.01,NNW,338,3.0,7.0,70,0.00,,---,0.00,VWS V14.01,2013-01-10 10:16:00,
2013-01-10 05:17:00,37.3,28.4,30.01,East,90,1.0,3.0,70,0.00,,---,0.00,VWS V14.01,2013-01-10 10:17:00,
2013-01-10 05:18:00,37.4,28.5,30.01,NNW,338,2.0,3.0,70,0.00,,---,0.00,VWS V14.01,2013-01-10 10:18:00,
2013-01-10 05:19:00,37.5,28.3,30.01,West,270,2.0,4.0,69,0.00,,---,0.00,VWS V14.01,2013-01-10 10:19:00,
2013-01-10 05:20:00,37.5,28.3,30.01,NNW,338,1.0,3.0,69,0.00,,---,0.00,VWS V14.01,2013-01-10 10:20:00,
2013-01-10 05:21:00,37.5,28.3,30.02,ESE,112,2.0,6.0,69,0.00,,---,0.00,VWS V14.01,2013-01-10 10:21:00,
2013-01-10 05:22:00,37.5,28.3,30.02,NNW,338,2.0,5.0,69,0.00,,---,0.00,VWS V14.01,2013-01-10 10:22:00,
2013-01-10 05:23:00,37.6,28.4,30.02,West,270,4.0,7.0,69,0.00,,---,0.00,VWS V14.01,2013-01-10 10:23:00,
2013-01-10 05:24:00,37.7,28.5,30.02,WNW,292,2.0,6.0,69,0.00,,---,0.00,VWS V14.01,2013-01-10 10:24:00,
2013-01-10 05:25:00,37.8,28.6,30.02,West,270,1.0,3.0,69,0.00,,---,0.00,VWS V14.01,2013-01-10 10:25:00,
2013-01-10 05:26:00,37.8,28.6,30.02,SE,135,3.0,10.0,69,0.01,,---,0.01,VWS V14.01,2013-01-10 10:26:00,
2013-01-10 05:27:00,37.8,28.6,30.02,NNW,338,4.0,5.0,69,0.01,,---,0.01,VWS V14.01,2013-01-10 10:27:00,
2013-01-10 05:28:00,37.8,28.6,30.02,NW,315,2.0,5.0,69,0.01,,---,0.01,VWS V14.01,2013-01-10 10:28:00,
2013-01-10 05:29:00,37.8,28.6,30.02,SE,135,2.0,5.0,69,0.01,,---,0.01,VWS V14.01,2013-01-10 10:29:00,
2013-01-10 05:30:00,37.8,28.6,30.02,NE,45,2.0,7.0,69,0.01,,---,0.01,VWS V14.01,2013-01-10 10:30:00,
2013-01-10 05:31:00,37.9,28.6,30.02,NW,315,4.0,10.0,69,0.01,,---,0.01,VWS V14.01,2013-01-10 10:31:00,
2013-01-10 05:32:00,37.9,28.6,30.02,NNW,338,1.0,3.0,69,0.01,,---,0.01,VWS V14.01,2013-01-10 10:32:00,
2013-01-10 05:33:00,37.9,28.6,30.03,NW,315,2.0,6.0,69,0.01,,---,0.01,VWS V14.01,2013-01-10 10:33:00,
2013-01-10 05:34:00,37.9,28.6,30.03,NW,315,3.0,6.0,69,0.01,,---,0.01,VWS V14.01,2013-01-10 10:34:00,
2013-01-10 05:35:00,38.0,28.8,30.03,ENE,68,2.0,6.0,69,0.01,,---,0.01,VWS V14.01,2013-01-10 10:35:00,
2013-01-10 05:36:00,38.0,28.8,30.03,NE,45,1.0,4.0,69,0.01,,---,0.01,VWS V14.01,2013-01-10 10:36:00,
2013-01-10 05:37:00,38.0,28.8,30.03,NE,45,2.0,4.0,69,0.01,,---,0.01,VWS V14.01,2013-01-10 10:37:00,
2013-01-10 05:38:00,38.1,28.8,30.03,ENE,68,2.0,6.0,69,0.01,,---,0.01,VWS V14.01,2013-01-10 10:38:00,
2013-01-10 05:39:00,38.1,28.8,30.03,ENE,68,1.0,3.0,69,0.01,,---,0.01,VWS V14.01,2013-01-10 10:39:00,
2013-01-10 05:40:00,38.1,28.8,30.03,NW,315,3.0,6.0,69,0.01,,---,0.01,VWS V14.01,2013-01-10 10:40:00,
2013-01-10 05:41:00,38.1,28.8,30.04,West,270,3.0,7.0,69,0.01,,---,0.01,VWS V14.01,2013-01-10 10:41:00,
2013-01-10 05:42:00,38.1,28.8,30.04,WNW,292,2.0,4.0,69,0.01,,---,0.01,VWS V14.01,2013-01-10 10:42:00,
2013-01-10 05:43:00,38.1,28.8,30.04,WNW,292,0.0,2.0,69,0.01,,---,0.01,VWS V14.01,2013-01-10 10:43:00,
2013-01-10 05:44:00,38.1,28.8,30.04,NNW,338,0.0,2.0,69,0.01,,---,0.01,VWS V14.01,2013-01-10 10:44:00,
2013-01-10 05:45:00,38.1,28.8,30.04,NW,315,3.0,5.0,69,0.01,,---,0.01,VWS V14.01,2013-01-10 10:45:00,
2013-01-10 05:46:00,38.1,28.8,30.04,WNW,292,1.0,3.0,69,0.01,,---,0.01,VWS V14.01,2013-01-10 10:46:00,
2013-01-10 05:47:00,38.2,28.9,30.04,NW,315,4.0,9.0,69,0.01,,---,0.01,VWS V14.01,2013-01-10 10:47:00,
2013-01-10 05:48:00,38.2,28.6,30.04,WSW,248,1.0,5.0,68,0.01,,---,0.01,VWS V14.01,2013-01-10 10:48:00,
2013-01-10 05:49:00,38.3,28.7,30.04,NE,45,2.0,6.0,68,0.01,,---,0.01,VWS V14.01,2013-01-10 10:49:00,
2013-01-10 05:50:00,38.3,28.7,30.04,WNW,292,2.0,5.0,68,0.01,,---,0.01,VWS V14.01,2013-01-10 10:50:00,
2013-01-10 05:51:00,38.3,28.7,30.05,NNW,338,2.0,3.0,68,0.01,,---,0.01,VWS V14.01,2013-01-10 10:51:00,
2013-01-10 05:52:00,38.3,28.7,30.05,WNW,292,2.0,6.0,68,0.01,,---,0.01,VWS V14.01,2013-01-10 10:52:00,
2013-01-10 05:53:00,38.3,28.7,30.05,NNE,22,1.0,2.0,68,0.01,,---,0.01,VWS V14.01,2013-01-10 10:53:00,
2013-01-10 05:54:00,38.3,28.7,30.05,West,270,4.0,7.0,68,0.01,,---,0.01,VWS V14.01,2013-01-10 10:54:00,
2013-01-10 05:55:00,38.4,28.8,30.05,East,90,1.0,3.0,68,0.01,,---,0.01,VWS V14.01,2013-01-10 10:55:00,
2013-01-10 05:56:00,38.4,28.8,30.05,NNW,338,1.0,3.0,68,0.01,,---,0.01,VWS V14.01,2013-01-10 10:56:00,
2013-01-10 05:57:00,38.4,28.8,30.05,NNW,338,2.0,5.0,68,0.01,,---,0.01,VWS V14.01,2013-01-10 10:57:00,
2013-01-10 05:58:00,38.4,28.8,30.05,West,270,2.0,4.0,68,0.01,,---,0.01,VWS V14.01,2013-01-10 10:58:00,
2013-01-10 05:59:00,38.4,28.8,30.06,SE,135,1.0,2.0,68,0.01,,---,0.01,VWS V14.01,2013-01-10 10:59:00,
2013-01-10 06:00:00,38.4,28.8,30.06,South,180,2.0,6.0,68,0.01,,---,0.01,VWS V14.01,2013-01-10 11:00:00,
2013-01-10 06:01:00,38.5,28.5,30.06,WNW,292,5.0,11.0,67,0.01,,---,0.01,VWS V14.01,2013-01-10 11:01:00,
2013-01-10 06:02:00,38.5,28.5,30.06,NE,45,3.0,9.0,67,0.01,,---,0.01,VWS V14.01,2013-01-10 11:02:00,
2013-01-10 06:03:00,38.6,28.6,30.06,NNW,338,2.0,4.0,67,0.01,,---,0.01,VWS V14.01,2013-01-10 11:03:00,
2013-01-10 06:04:00,38.6,28.6,30.06,WNW,292,1.0,3.0,67,0.01,,---,0.01,VWS V14.01,2013-01-10 11:04:00,
2013-01-10 06:05:00,38.6,28.6,30.06,NE,45,4.0,7.0,67,0.01,,---,0.01,VWS V14.01,2013-01-10 11:05:00,
2013-01-10 06:06:00,38.7,28.7,30.06,North,0,2.0,3.0,67,0.01,,---,0.01,VWS V14.01,2013-01-10 11:06:00,
2013-01-10 06:07:00,38.7,28.7,30.06,NNE,22,1.0,2.0,67,0.01,,---,0.01,VWS V14.01,2013-01-10 11:07:00,
2013-01-10 06:08:00,38.7,28.7,30.06,North,0,2.0,4.0,67,0.01,,---,0.01,VWS V14.01,2013-01-10 11:08:00,
2013-01-10 06:09:00,38.7,28.7,30.07,NE,45,2.0,4.0,67,0.01,,---,0.01,VWS V14.01,2013-01-10 11:09:00,
2013-01-10 06:10:00,38.7,28.7,30.07,SSE,158,1.0,3.0,67,0.01,,---,0.01,VWS V14.01,2013-01-10 11:10:00,
2013-01-10 06:11:00,38.7,28.7,30.07,NE,45,1.0,3.0,67,0.01,,---,0.01,VWS V14.01,2013-01-10 11:11:00,
2013-01-10 06:12:00,38.7,28.7,30.07,North,0,1.0,3.0,67,0.01,,---,0.01,VWS V14.01,2013-01-10 11:12:00,
2013-01-10 06:13:00,38.7,28.7,30.07,East,90,2.0,5.0,67,0.01,,---,0.01,VWS V14.01,2013-01-10 11:13:00,
2013-01-10 06:14:00,38.7,28.7,30.07,North,0,1.0,2.0,67,0.01,,---,0.01,VWS V14.01,2013-01-10 11:14:00,
2013-01-10 06:15:00,38.7,28.7,30.07,NE,45,3.0,7.0,67,0.01,,---,0.01,VWS V14.01,2013-01-10 11:15:00,
2013-01-10 06:16:00,38.7,28.3,30.07,NE,45,1.0,3.0,66,0.01,,---,0.01,VWS V14.01,2013-01-10 11:16:00,
2013-01-10 06:17:00,38.7,28.3,30.07,SSE,158,2.0,6.0,66,0.01,,---,0.01,VWS V14.01,2013-01-10 11:17:00,
2013-01-10 06:18:00,38.8,28.4,30.07,ENE,68,2.0,5.0,66,0.01,,---,0.01,VWS V14.01,2013-01-10 11:18:00,
2013-01-10 06:19:00,38.8,28.4,30.08,SW,225,4.0,9.0,66,0.01,,---,0.01,VWS V14.01,2013-01-10 11:19:00,
2013-01-10 06:20:00,38.8,28.4,30.07,North,0,2.0,7.0,66,0.01,,---,0.01,VWS V14.01,2013-01-10 11:20:00,
2013-01-10 06:21:00,38.9,28.1,30.08,NW,315,5.0,8.0,65,0.01,,---,0.01,VWS V14.01,2013-01-10 11:21:00,
2013-01-10 06:22:00,38.9,28.1,30.08,NNW,338,2.0,4.0,65,0.01,,---,0.01,VWS V14.01,2013-01-10 11:22:00,
2013-01-10 06:23:00,39.0,28.2,30.07,West,270,3.0,5.0,65,0.01,,---,0.01,VWS V14.01,2013-01-10 11:23:00,
2013-01-10 06:24:00,39.0,27.9,30.08,West,270,5.0,10.0,64,0.01,,---,0.01,VWS V14.01,2013-01-10 11:24:00,
2013-01-10 06:25:00,39.0,28.2,30.08,North,0,1.0,4.0,65,0.01,,---,0.01,VWS V14.01,2013-01-10 11:25:00,
2013-01-10 06:26:00,39.0,28.2,30.08,NW,315,2.0,5.0,65,0.01,,---,0.01,VWS V14.01,2013-01-10 11:26:00,
2013-01-10 06:27:00,39.1,28.0,30.08,WNW,292,3.0,4.0,64,0.00,,---,0.01,VWS V14.01,2013-01-10 11:27:00,
2013-01-10 06:28:00,39.1,28.0,30.08,NW,315,3.0,7.0,64,0.00,,---,0.01,VWS V14.01,2013-01-10 11:28:00,
2013-01-10 06:29:00,39.1,27.6,30.08,ENE,68,5.0,13.0,63,0.00,,---,0.01,VWS V14.01,2013-01-10 11:29:00,
2013-01-10 06:30:00,39.1,28.0,30.08,WSW,248,3.0,7.0,64,0.00,,---,0.01,VWS V14.01,2013-01-10 11:30:00,
2013-01-10 06:31:00,39.1,27.6,30.08,SW,225,5.0,9.0,63,0.00,,---,0.01,VWS V14.01,2013-01-10 11:31:00,
2013-01-10 06:32:00,39.0,27.5,30.08,West,270,4.0,9.0,63,0.00,,---,0.01,VWS V14.01,2013-01-10 11:32:00,
2013-01-10 06:33:00,39.1,27.6,30.08,WNW,292,2.0,5.0,63,0.00,,---,0.01,VWS V14.01,2013-01-10 11:33:00,
2013-01-10 06:34:00,39.1,27.6,30.08,NW,315,2.0,4.0,63,0.00,,---,0.01,VWS V14.01,2013-01-10 11:34:00,
2013-01-10 06:35:00,39.1,27.6,30.08,NNW,338,1.0,10.0,63,0.00,,---,0.01,VWS V14.01,2013-01-10 11:35:00,
2013-01-10 06:36:00,39.1,27.2,30.09,East,90,2.0,5.0,62,0.00,,---,0.01,VWS V14.01,2013-01-10 11:36:00,
2013-01-10 06:37:00,39.1,27.2,30.09,ENE,68,2.0,10.0,62,0.00,,---,0.01,VWS V14.01,2013-01-10 11:37:00,
2013-01-10 06:38:00,39.1,27.2,30.09,NNW,338,5.0,9.0,62,0.00,,---,0.01,VWS V14.01,2013-01-10 11:38:00,
2013-01-10 06:39:00,39.1,27.2,30.09,NNE,22,2.0,4.0,62,0.00,,---,0.01,VWS V14.01,2013-01-10 11:39:00,
2013-01-10 06:40:00,39.1,27.6,30.09,ENE,68,1.0,3.0,63,0.00,,---,0.01,VWS V14.01,2013-01-10 11:40:00,
2013-01-10 06:41:00,39.1,27.6,30.09,WSW,248,1.0,3.0,63,0.00,,---,0.01,VWS V14.01,2013-01-10 11:41:00,
2013-01-10 06:42:00,39.0,27.5,30.09,WNW,292,2.0,5.0,63,0.00,,---,0.01,VWS V14.01,2013-01-10 11:42:00,
2013-01-10 06:43:00,39.0,27.5,30.09,NW,315,2.0,4.0,63,0.00,,---,0.01,VWS V14.01,2013-01-10 11:43:00,
2013-01-10 06:44:00,39.0,27.5,30.09,West,270,1.0,4.0,63,0.00,,---,0.01,VWS V14.01,2013-01-10 11:44:00,
2013-01-10 06:45:00,39.0,27.5,30.09,WNW,292,2.0,4.0,63,0.00,,---,0.01,VWS V14.01,2013-01-10 11:45:00,
2013-01-10 06:46:00,38.9,27.8,30.09,West,270,3.0,9.0,64,0.00,,---,0.01,VWS V14.01,2013-01-10 11:46:00,
2013-01-10 06:47:00,38.9,27.8,30.09,East,90,1.0,4.0,64,0.00,,---,0.01,VWS V14.01,2013-01-10 11:47:00,
2013-01-10 06:48:00,38.8,27.7,30.09,NE,45,1.0,2.0,64,0.00,,---,0.01,VWS V14.01,2013-01-10 11:48:00,
2013-01-10 06:49:00,38.8,27.7,30.10,ENE,68,2.0,7.0,64,0.00,,---,0.01,VWS V14.01,2013-01-10 11:49:00,
2013-01-10 06:50:00,38.8,27.7,30.09,East,90,3.0,7.0,64,0.00,,---,0.01,VWS V14.01,2013-01-10 11:50:00,
2013-01-10 06:51:00,38.7,27.6,30.09,WNW,292,4.0,9.0,64,0.00,,---,0.01,VWS V14.01,2013-01-10 11:51:00,
2013-01-10 06:52:00,38.7,27.6,30.09,WNW,292,4.0,8.0,64,0.00,,---,0.01,VWS V14.01,2013-01-10 11:52:00,
2013-01-10 06:53:00,38.7,27.6,30.09,NNW,338,3.0,5.0,64,0.00,,---,0.01,VWS V14.01,2013-01-10 11:53:00,
2013-01-10 06:54:00,38.7,27.6,30.10,NNW,338,2.0,7.0,64,0.00,,---,0.01,VWS V14.01,2013-01-10 11:54:00,
2013-01-10 06:55:00,38.7,27.6,30.10,NE,45,2.0,4.0,64,0.00,,---,0.01,VWS V14.01,2013-01-10 11:55:00,
2013-01-10 06:56:00,38.7,27.6,30.09,WNW,292,2.0,5.0,64,0.00,,---,0.01,VWS V14.01,2013-01-10 11:56:00,
2013-01-10 06:57:00,38.7,27.6,30.10,NNW,338,1.0,3.0,64,0.00,,---,0.01,VWS V14.01,2013-01-10 11:57:00,
2013-01-10 06:58:00,38.7,27.2,30.09,SSW,202,3.0,9.0,63,0.00,,---,0.01,VWS V14.01,2013-01-10 11:58:00,
2013-01-10 06:59:00,38.6,26.7,30.09,SSW,202,4.0,7.0,62,0.00,,---,0.01,VWS V14.01,2013-01-10 11:59:00,
2013-01-10 07:00:00,38.6,26.7,30.10,North,0,4.0,9.0,62,0.00,,---,0.01,VWS V14.01,2013-01-10 12:00:00,
2013-01-10 07:02:00,38.8,26.5,30.10,NNE,22,4.0,5.0,61,0.00,,---,0.01,VWS V14.01,2013-01-10 12:02:00,
2013-01-10 07:03:00,38.9,26.6,30.10,North,0,5.0,10.0,61,0.00,,---,0.01,VWS V14.01,2013-01-10 12:03:00,
2013-01-10 07:04:00,39.0,26.3,30.10,WNW,292,9.0,16.0,60,0.00,,---,0.01,VWS V14.01,2013-01-10 12:04:00,
2013-01-10 07:05:00,39.8,24.5,30.11,WNW,292,9.0,13.0,54,0.00,,---,0.01,VWS V14.01,2013-01-10 12:05:00,
2013-01-10 07:06:00,39.2,26.1,30.10,NW,315,2.0,5.0,59,0.00,,---,0.01,VWS V14.01,2013-01-10 12:06:00,
2013-01-10 07:07:00,39.2,25.7,30.10,NW,315,6.0,10.0,58,0.00,,---,0.01,VWS V14.01,2013-01-10 12:07:00,
2013-01-10 07:08:00,39.3,25.8,30.10,NE,45,7.0,11.0,58,0.00,,---,0.01,VWS V14.01,2013-01-10 12:08:00,
2013-01-10 07:09:00,39.3,25.8,30.10,NNW,338,3.0,7.0,58,0.00,,---,0.01,VWS V14.01,2013-01-10 12:09:00,
2013-01-10 07:10:00,39.9,24.2,30.12,NNE,14,7.0,16.0,53,0.00,,---,0.01,VWS V14.01,2013-01-10 12:10:00,
2013-01-10 07:11:00,39.3,25.8,30.10,NW,315,3.0,5.0,58,0.00,,---,0.01,VWS V14.01,2013-01-10 12:11:00,
2013-01-10 07:12:00,39.3,25.8,30.10,NNW,338,2.0,4.0,58,0.00,,---,0.01,VWS V14.01,2013-01-10 12:12:00,
2013-01-10 07:13:00,39.2,25.7,30.10,WNW,292,1.0,2.0,58,0.00,,---,0.01,VWS V14.01,2013-01-10 12:13:00,
2013-01-10 07:14:00,39.2,25.7,30.10,SW,225,2.0,4.0,58,0.00,,---,0.01,VWS V14.01,2013-01-10 12:14:00,
2013-01-10 07:15:00,39.9,24.6,30.12,NNE,20,2.0,7.0,54,0.00,,---,0.01,VWS V14.01,2013-01-10 12:15:00,
2013-01-10 07:16:00,39.1,25.6,30.10,NW,315,3.0,6.0,58,0.00,,---,0.01,VWS V14.01,2013-01-10 12:16:00,
2013-01-10 07:17:00,39.1,25.6,30.10,NW,315,1.0,4.0,58,0.00,,---,0.01,VWS V14.01,2013-01-10 12:17:00,
2013-01-10 07:18:00,39.0,25.5,30.10,ENE,68,4.0,5.0,58,0.00,,---,0.01,VWS V14.01,2013-01-10 12:18:00,
2013-01-10 07:19:00,39.0,25.5,30.10,WNW,292,6.0,12.0,58,0.00,,---,0.01,VWS V14.01,2013-01-10 12:19:00,
2013-01-10 07:20:00,39.7,24.4,30.13,ENE,77,4.0,12.0,54,0.00,,---,0.01,VWS V14.01,2013-01-10 12:20:00,
2013-01-10 07:21:00,39.0,25.5,30.10,ENE,68,2.0,5.0,58,0.00,,---,0.01,VWS V14.01,2013-01-10 12:21:00,
2013-01-10 07:22:00,39.1,25.2,30.10,West,270,3.0,9.0,57,0.00,,---,0.01,VWS V14.01,2013-01-10 12:22:00,
2013-01-10 07:23:00,39.1,25.2,30.10,NW,315,3.0,5.0,57,0.00,,---,0.01,VWS V14.01,2013-01-10 12:23:00,
2013-01-10 07:24:00,39.1,24.7,30.10,North,0,2.0,3.0,56,0.00,,---,0.01,VWS V14.01,2013-01-10 12:24:00,
2013-01-10 07:25:00,39.7,24.4,30.13,ENE,63,5.0,7.0,54,0.00,,---,0.01,VWS V14.01,2013-01-10 12:25:00,
2013-01-10 07:26:00,39.1,24.7,30.10,NW,315,5.0,13.0,56,0.00,,---,0.01,VWS V14.01,2013-01-10 12:26:00,
2013-01-10 07:27:00,39.2,24.4,30.10,West,270,2.0,6.0,55,0.00,,---,0.01,VWS V14.01,2013-01-10 12:27:00,
2013-01-10 07:28:00,39.2,24.4,30.10,WNW,292,2.0,4.0,55,0.00,,---,0.01,VWS V14.01,2013-01-10 12:28:00,
2013-01-10 07:29:00,39.2,24.4,30.10,North,0,4.0,9.0,55,0.00,,---,0.01,VWS V14.01,2013-01-10 12:29:00,
2013-01-10 07:30:00,39.7,24.4,30.13,NE,37,3.0,10.0,54,0.00,,---,0.01,VWS V14.01,2013-01-10 12:30:00,
2013-01-10 07:31:00,39.3,24.5,30.10,NNW,338,6.0,10.0,55,0.00,,---,0.01,VWS V14.01,2013-01-10 12:31:00,
2013-01-10 07:32:00,39.4,24.1,30.10,NNW,338,7.0,14.0,54,0.00,,---,0.01,VWS V14.01,2013-01-10 12:32:00,
2013-01-10 07:33:00,39.5,24.2,30.10,NW,315,5.0,9.0,54,0.00,,---,0.01,VWS V14.01,2013-01-10 12:33:00,
2013-01-10 07:34:00,39.5,23.8,30.11,NW,315,6.0,11.0,53,0.00,,---,0.01,VWS V14.01,2013-01-10 12:34:00,
2013-01-10 07:35:00,39.7,24.9,30.14,NNW,336,3.0,7.0,55,0.00,,---,0.01,VWS V14.01,2013-01-10 12:35:00,
2013-01-10 07:36:00,39.6,24.3,30.11,NE,45,6.0,12.0,54,0.00,,---,0.01,VWS V14.01,2013-01-10 12:36:00,
2013-01-10 07:37:00,39.6,23.9,30.11,NNW,338,6.0,10.0,53,0.00,,---,0.01,VWS V14.01,2013-01-10 12:37:00,
2013-01-10 07:38:00,39.6,23.9,30.11,NNE,22,3.0,6.0,53,0.00,,---,0.01,VWS V14.01,2013-01-10 12:38:00,
2013-01-10 07:39:00,39.7,24.0,30.11,NNE,22,6.0,11.0,53,0.00,,---,0.01,VWS V14.01,2013-01-10 12:39:00,
2013-01-10 07:40:00,39.8,25.0,30.14,NNW,341,2.0,7.0,55,0.00,,---,0.01,VWS V14.01,2013-01-10 12:40:00,
2013-01-10 07:41:00,39.7,24.0,30.10,NNE,22,6.0,10.0,53,0.00,,---,0.01,VWS V14.01,2013-01-10 12:41:00,
2013-01-10 07:42:00,39.7,24.0,30.10,ENE,68,7.0,15.0,53,0.00,,---,0.01,VWS V14.01,2013-01-10 12:42:00,
2013-01-10 07:43:00,39.7,24.0,30.10,NW,315,11.0,17.0,53,0.00,,---,0.01,VWS V14.01,2013-01-10 12:43:00,
2013-01-10 07:44:00,39.8,24.1,30.11,NNW,338,8.0,15.0,53,0.00,,---,0.01,VWS V14.01,2013-01-10 12:44:00,
2013-01-10 07:45:00,39.8,25.0,30.15,NW,326,8.0,8.0,55,0.00,,---,0.01,VWS V14.01,2013-01-10 12:45:00,
2013-01-10 07:46:00,39.9,24.6,30.11,WNW,292,3.0,11.0,54,0.00,,---,0.01,VWS V14.01,2013-01-10 12:46:00,
2013-01-10 07:47:00,39.9,24.2,30.11,NNW,338,6.0,11.0,53,0.00,,---,0.01,VWS V14.01,2013-01-10 12:47:00,
2013-01-10 07:48:00,39.8,24.5,30.11,WNW,292,9.0,13.0,54,0.00,,---,0.01,VWS V14.01,2013-01-10 12:48:00,
2013-01-10 07:50:00,39.9,24.2,30.11,NNW,333,9.0,9.0,53,0.00,,---,0.01,VWS V14.01,2013-01-10 12:50:00,
2013-01-10 07:51:00,40.0,25.1,30.15,North,11,5.0,12.0,55,0.00,,---,0.01,VWS V14.01,2013-01-10 12:51:00,
2013-01-10 07:52:00,39.9,24.2,30.11,East,89,3.0,9.0,53,0.00,,---,0.01,VWS V14.01,2013-01-10 12:52:00,
2013-01-10 07:53:00,39.9,24.2,30.11,NW,305,11.0,11.0,53,0.00,,---,0.01,VWS V14.01,2013-01-10 12:53:00,
2013-01-10 07:54:00,39.9,24.2,30.12,NW,326,10.0,17.0,53,0.00,,---,0.01,VWS V14.01,2013-01-10 12:54:00,
2013-01-10 07:55:00,39.9,24.2,30.12,NNE,14,7.0,16.0,53,0.00,,---,0.01,VWS V14.01,2013-01-10 12:55:00,
2013-01-10 07:56:00,40.0,25.1,30.15,North,350,4.0,5.0,55,0.00,,---,0.01,VWS V14.01,2013-01-10 12:56:00,
2013-01-10 07:57:00,39.9,24.2,30.12,WNW,303,2.0,9.0,53,0.00,,---,0.01,VWS V14.01,2013-01-10 12:57:00,
2013-01-10 07:58:00,39.9,24.2,30.12,East,83,1.0,7.0,53,0.00,,---,0.01,VWS V14.01,2013-01-10 12:58:00,
2013-01-10 07:59:00,39.9,24.6,30.12,NE,40,2.0,4.0,54,0.00,,---,0.01,VWS V14.01,2013-01-10 12:59:00,
2013-01-10 08:00:00,39.9,24.6,30.12,NNE,20,2.0,7.0,54,0.00,,---,0.01,VWS V14.01,2013-01-10 13:00:00,
2013-01-10 08:01:00,40.1,25.2,30.16,East,79,11.0,12.0,55,0.00,,---,0.01,VWS V14.01,2013-01-10 13:01:00,
2013-01-10 08:02:00,39.8,24.5,30.13,SE,125,3.0,3.0,54,0.00,,---,0.01,VWS V14.01,2013-01-10 13:02:00,
2013-01-10 08:03:00,39.8,24.5,30.13,West,259,2.0,5.0,54,0.00,,---,0.01,VWS V14.01,2013-01-10 13:03:00,
2013-01-10 08:04:00,39.8,24.5,30.12,NNE,24,1.0,10.0,54,0.00,,---,0.01,VWS V14.01,2013-01-10 13:04:00,
2013-01-10 08:05:00,39.7,24.4,30.13,ENE,77,4.0,12.0,54,0.00,,---,0.01,VWS V14.01,2013-01-10 13:05:00,
2013-01-10 08:06:00,39.7,24.4,30.13,West,272,2.0,6.0,54,0.00,,---,0.01,VWS V14.01,2013-01-10 13:06:00,
2013-01-10 08:07:00,40.1,24.8,30.16,NNW,338,0.0,7.0,54,0.00,,---,0.01,VWS V14.01,2013-01-10 13:07:00,
2013-01-10 08:08:00,39.7,24.4,30.13,SW,236,3.0,7.0,54,0.00,,---,0.01,VWS V14.01,2013-01-10 13:08:00,
2013-01-10 08:09:00,39.7,24.4,30.13,NE,41,0.0,3.0,54,0.00,,---,0.01,VWS V14.01,2013-01-10 13:09:00,
2013-01-10 08:10:00,39.7,24.4,30.13,ENE,63,5.0,7.0,54,0.00,,---,0.01,VWS V14.01,2013-01-10 13:10:00,
2013-01-10 08:11:00,39.7,24.4,30.14,NW,313,4.0,11.0,54,0.00,,---,0.01,VWS V14.01,2013-01-10 13:11:00,
2013-01-10 08:12:00,40.2,25.3,30.17,West,277,2.0,6.0,55,0.00,,---,0.01,VWS V14.01,2013-01-10 13:12:00,
2013-01-10 08:13:00,39.7,24.9,30.13,WNW,301,3.0,10.0,55,0.00,,---,0.01,VWS V14.01,2013-01-10 13:13:00,
2013-01-10 08:14:00,39.7,24.4,30.14,NNW,336,3.0,10.0,54,0.00,,---,0.01,VWS V14.01,2013-01-10 13:14:00,
2013-01-10 08:15:00,39.7,24.4,30.13,NE,37,3.0,10.0,54,0.00,,---,0.01,VWS V14.01,2013-01-10 13:15:00,
2013-01-10 08:16:00,39.7,24.4,30.14,NNE,32,2.0,9.0,54,0.00,,---,0.01,VWS V14.01,2013-01-10 13:16:00,
2013-01-10 08:17:00,40.3,25.0,30.16,ENE,63,2.0,6.0,54,0.00,,---,0.01,VWS V14.01,2013-01-10 13:17:00,
2013-01-10 08:18:00,39.7,24.9,30.14,NE,45,1.0,4.0,55,0.00,,---,0.01,VWS V14.01,2013-01-10 13:18:00,
2013-01-10 08:19:00,39.7,24.9,30.14,NW,308,4.0,11.0,55,0.00,,---,0.01,VWS V14.01,2013-01-10 13:19:00,
2013-01-10 08:20:00,39.7,24.9,30.14,NNW,336,3.0,7.0,55,0.00,,---,0.01,VWS V14.01,2013-01-10 13:20:00,
2013-01-10 08:21:00,39.7,24.9,30.14,NNE,14,0.0,5.0,55,0.00,,---,0.01,VWS V14.01,2013-01-10 13:21:00,
2013-01-10 08:22:00,40.4,25.1,30.16,North,5,2.0,7.0,54,0.00,,---,0.01,VWS V14.01,2013-01-10 13:22:00,
2013-01-10 08:23:00,39.7,24.9,30.14,NNW,333,5.0,5.0,55,0.00,,---,0.01,VWS V14.01,2013-01-10 13:23:00,
2013-01-10 08:24:00,39.8,25.0,30.15,NW,307,1.0,9.0,55,0.00,,---,0.01,VWS V14.01,2013-01-10 13:24:00,
2013-01-10 08:25:00,39.8,25.0,30.14,NNW,341,2.0,7.0,55,0.00,,---,0.01,VWS V14.01,2013-01-10 13:25:00,
2013-01-10 08:26:00,39.8,25.0,30.15,NE,55,2.0,4.0,55,0.00,,---,0.01,VWS V14.01,2013-01-10 13:26:00,
2013-01-10 08:27:00,39.8,25.0,30.14,NNE,30,2.0,2.0,55,0.00,,---,0.01,VWS V14.01,2013-01-10 13:27:00,
2013-01-10 08:28:00,40.5,24.7,30.17,NW,323,0.0,11.0,53,0.00,,---,0.01,VWS V14.01,2013-01-10 13:28:00,
2013-01-10 08:29:00,39.8,24.5,30.15,WNW,287,6.0,6.0,54,0.00,,---,0.01,VWS V14.01,2013-01-10 13:29:00,
2013-01-10 08:30:00,39.8,25.0,30.15,NW,326,8.0,8.0,55,0.00,,---,0.01,VWS V14.01,2013-01-10 13:30:00,
2013-01-10 08:31:00,39.8,24.5,30.15,East,93,5.0,8.0,54,0.00,,---,0.01,VWS V14.01,2013-01-10 13:31:00,
2013-01-10 08:32:00,39.9,25.1,30.14,NNE,18,1.0,9.0,55,0.00,,---,0.01,VWS V14.01,2013-01-10 13:32:00,
2013-01-10 08:33:00,40.6,25.3,30.17,NNE,28,6.0,10.0,54,0.01,,---,0.02,VWS V14.01,2013-01-10 13:33:00,
2013-01-10 08:34:00,39.9,25.1,30.15,NW,318,3.0,7.0,55,0.00,,---,0.01,VWS V14.01,2013-01-10 13:34:00,
2013-01-10 08:35:00,39.9,25.1,30.15,NNE,19,3.0,4.0,55,0.00,,---,0.01,VWS V14.01,2013-01-10 13:35:00,
2013-01-10 08:36:00,40.0,25.1,30.15,North,11,5.0,12.0,55,0.00,,---,0.01,VWS V14.01,2013-01-10 13:36:00,
2013-01-10 08:37:00,40.0,24.7,30.15,WNW,290,3.0,10.0,54,0.00,,---,0.01,VWS V14.01,2013-01-10 13:37:00,
2013-01-10 08:38:00,40.6,25.3,30.17,NE,52,17.0,17.0,54,0.01,,---,0.02,VWS V14.01,2013-01-10 13:38:00,
2013-01-10 08:39:00,40.0,25.1,30.15,West,269,4.0,13.0,55,0.00,,---,0.01,VWS V14.01,2013-01-10 13:39:00,
2013-01-10 08:40:00,40.0,25.1,30.15,WNW,302,2.0,7.0,55,0.00,,---,0.01,VWS V14.01,2013-01-10 13:40:00,
2013-01-10 08:41:00,40.0,25.1,30.15,North,350,4.0,5.0,55,0.00,,---,0.01,VWS V14.01,2013-01-10 13:41:00,
2013-01-10 08:42:00,40.0,25.1,30.15,NW,317,1.0,4.0,55,0.00,,---,0.01,VWS V14.01,2013-01-10 13:42:00,
2013-01-10 08:43:00,40.6,25.3,30.17,NE,47,4.0,7.0,54,0.01,,---,0.02,VWS V14.01,2013-01-10 13:43:00,
2013-01-10 08:44:00,40.0,25.1,30.16,SW,236,5.0,5.0,55,0.00,,---,0.01,VWS V14.01,2013-01-10 13:44:00,
2013-01-10 08:45:00,40.1,25.2,30.16,West,267,1.0,5.0,55,0.00,,---,0.01,VWS V14.01,2013-01-10 13:45:00,
2013-01-10 08:46:00,40.1,25.2,30.16,East,79,11.0,12.0,55,0.00,,---,0.01,VWS V14.01,2013-01-10 13:46:00,
2013-01-10 08:47:00,40.1,25.2,30.15,NW,319,4.0,11.0,55,0.00,,---,0.01,VWS V14.01,2013-01-10 13:47:00,
2013-01-10 08:48:00,40.1,25.2,30.16,NNE,26,1.0,4.0,55,0.00,,---,0.01,VWS V14.01,2013-01-10 13:48:00,
2013-01-10 08:49:00,40.9,25.5,30.17,NNW,332,5.0,12.0,54,0.01,,---,0.02,VWS V14.01,2013-01-10 13:49:00,
2013-01-10 08:50:00,40.1,25.2,30.16,SE,130,1.0,5.0,55,0.00,,---,0.01,VWS V14.01,2013-01-10 13:50:00,
2013-01-10 08:51:00,40.1,25.2,30.16,North,355,3.0,8.0,55,0.00,,---,0.01,VWS V14.01,2013-01-10 13:51:00,
2013-01-10 08:52:00,40.1,24.8,30.16,NNW,338,0.0,7.0,54,0.00,,---,0.01,VWS V14.01,2013-01-10 13:52:00,
2013-01-10 08:53:00,40.1,24.8,30.16,East,85,1.0,3.0,54,0.00,,---,0.01,VWS V14.01,2013-01-10 13:53:00,
2013-01-10 08:54:00,40.2,25.3,30.16,North,360,5.0,5.0,55,0.00,,---,0.01,VWS V14.01,2013-01-10 13:54:00,
2013-01-10 08:55:00,40.9,25.5,30.17,NW,312,3.0,8.0,54,0.01,,---,0.02,VWS V14.01,2013-01-10 13:55:00,
2013-01-10 08:56:00,40.2,25.3,30.17,WSW,244,3.0,6.0,55,0.00,,---,0.01,VWS V14.01,2013-01-10 13:56:00,
2013-01-10 08:57:00,40.2,25.3,30.17,West,277,2.0,6.0,55,0.00,,---,0.01,VWS V14.01,2013-01-10 13:57:00,
2013-01-10 08:58:00,40.2,25.3,30.17,North,5,9.0,9.0,55,0.00,,---,0.01,VWS V14.01,2013-01-10 13:58:00,
2013-01-10 08:59:00,40.2,24.9,30.17,ENE,65,6.0,9.0,54,0.00,,---,0.01,VWS V14.01,2013-01-10 13:59:00,
2013-01-10 09:00:00,41.0,25.6,30.18,ENE,62,3.0,10.0,54,0.01,,---,0.02,VWS V14.01,2013-01-10 14:00:00,
2013-01-10 09:01:00,40.3,25.0,30.17,NE,52,2.0,11.0,54,0.00,,---,0.01,VWS V14.01,2013-01-10 14:01:00,
2013-01-10 09:02:00,40.3,25.0,30.16,ENE,63,2.0,6.0,54,0.00,,---,0.01,VWS V14.01,2013-01-10 14:02:00,
2013-01-10 09:03:00,40.3,25.0,30.16,NW,323,2.0,15.0,54,0.00,,---,0.01,VWS V14.01,2013-01-10 14:03:00,
2013-01-10 09:04:00,40.4,25.1,30.16,West,260,2.0,3.0,54,0.00,,---,0.01,VWS V14.01,2013-01-10 14:04:00,
2013-01-10 09:05:00,40.9,25.5,30.19,West,265,8.0,9.0,54,0.01,,---,0.02,VWS V14.01,2013-01-10 14:05:00,
2013-01-10 09:06:00,40.4,25.1,30.16,ENE,69,0.0,4.0,54,0.00,,---,0.01,VWS V14.01,2013-01-10 14:06:00,
2013-01-10 09:07:00,40.4,25.1,30.16,North,5,2.0,7.0,54,0.00,,---,0.01,VWS V14.01,2013-01-10 14:07:00,
2013-01-10 09:08:00,40.4,25.1,30.17,WSW,250,3.0,11.0,54,0.00,,---,0.01,VWS V14.01,2013-01-10 14:08:00,
2013-01-10 09:09:00,40.4,25.1,30.16,NE,37,3.0,14.0,54,0.00,,---,0.01,VWS V14.01,2013-01-10 14:09:00,
2013-01-10 09:10:00,40.9,25.5,30.17,WNW,300,2.0,12.0,54,0.01,,---,0.02,VWS V14.01,2013-01-10 14:10:00,
2013-01-10 09:11:00,40.4,25.1,30.17,NW,324,0.0,14.0,54,0.00,,---,0.01,VWS V14.01,2013-01-10 14:11:00,
2013-01-10 09:12:00,40.5,25.2,30.16,NNW,342,6.0,6.0,54,0.00,,---,0.01,VWS V14.01,2013-01-10 14:12:00,
2013-01-10 09:13:00,40.5,24.7,30.17,NW,323,0.0,11.0,53,0.00,,---,0.01,VWS V14.01,2013-01-10 14:13:00,
2013-01-10 09:14:00,40.5,25.2,30.17,West,259,1.0,5.0,54,0.01,,---,0.02,VWS V14.01,2013-01-10 14:14:00,
2013-01-10 09:15:00,41.0,25.6,30.19,NE,34,14.0,16.0,54,0.01,,---,0.02,VWS V14.01,2013-01-10 14:15:00,
2013-01-10 09:16:00,40.6,25.3,30.16,East,84,2.0,5.0,54,0.01,,---,0.02,VWS V14.01,2013-01-10 14:16:00,
2013-01-10 09:17:00,40.6,25.3,30.16,NW,306,3.0,10.0,54,0.01,,---,0.02,VWS V14.01,2013-01-10 14:17:00,
2013-01-10 09:18:00,40.6,25.3,30.17,NNE,28,6.0,10.0,54,0.01,,---,0.02,VWS V14.01,2013-01-10 14:18:00,
2013-01-10 09:19:00,40.6,25.3,30.16,West,262,2.0,7.0,54,0.01,,---,0.02,VWS V14.01,2013-01-10 14:19:00,
2013-01-10 09:20:00,41.2,25.8,30.19,NW,323,2.0,9.0,54,0.02,,---,0.03,VWS V14.01,2013-01-10 14:20:00,
2013-01-10 09:21:00,40.6,25.3,30.17,NW,309,1.0,7.0,54,0.01,,---,0.02,VWS V14.01,2013-01-10 14:21:00,
2013-01-10 09:22:00,40.6,25.3,30.17,NW,307,9.0,14.0,54,0.01,,---,0.02,VWS V14.01,2013-01-10 14:22:00,
2013-01-10 09:23:00,40.6,25.3,30.17,NE,52,17.0,17.0,54,0.01,,---,0.02,VWS V14.01,2013-01-10 14:23:00,
2013-01-10 09:24:00,40.7,25.4,30.16,NNE,15,3.0,17.0,54,0.01,,---,0.02,VWS V14.01,2013-01-10 14:24:00,
2013-01-10 09:25:00,40.6,25.3,30.17,NE,38,4.0,10.0,54,0.01,,---,0.02,VWS V14.01,2013-01-10 14:25:00,
2013-01-10 09:26:00,41.3,25.5,30.19,NNE,28,4.0,11.0,53,0.02,,---,0.03,VWS V14.01,2013-01-10 14:26:00,
2013-01-10 09:27:00,40.6,25.3,30.17,NNW,343,1.0,6.0,54,0.01,,---,0.02,VWS V14.01,2013-01-10 14:27:00,
2013-01-10 09:28:00,40.6,25.3,30.17,NE,47,4.0,7.0,54,0.01,,---,0.02,VWS V14.01,2013-01-10 14:28:00,
2013-01-10 09:29:00,40.7,25.4,30.17,NE,34,3.0,15.0,54,0.01,,---,0.02,VWS V14.01,2013-01-10 14:29:00,
2013-01-10 09:30:00,40.7,25.4,30.17,North,355,5.0,10.0,54,0.01,,---,0.02,VWS V14.01,2013-01-10 14:30:00,
2013-01-10 09:31:00,41.5,25.2,30.19,North,350,3.0,8.0,52,0.01,,---,0.03,VWS V14.01,2013-01-10 14:31:00,
2013-01-10 09:32:00,40.8,25.5,30.17,South,190,6.0,6.0,54,0.01,,---,0.02,VWS V14.01,2013-01-10 14:32:00,
2013-01-10 09:33:00,40.9,25.5,30.17,NW,316,7.0,7.0,54,0.01,,---,0.02,VWS V14.01,2013-01-10 14:33:00,
2013-01-10 09:34:00,40.9,25.5,30.17,NNW,332,5.0,12.0,54,0.01,,---,0.02,VWS V14.01,2013-01-10 14:34:00,
2013-01-10 09:35:00,40.9,25.5,30.17,WNW,284,5.0,10.0,54,0.01,,---,0.02,VWS V14.01,2013-01-10 14:35:00,
2013-01-10 09:36:00,41.6,25.3,30.19,NW,316,11.0,13.0,52,0.01,,---,0.03,VWS V14.01,2013-01-10 14:36:00,
2013-01-10 09:37:00,40.9,25.5,30.17,WNW,299,8.0,9.0,54,0.01,,---,0.02,VWS V14.01,2013-01-10 14:37:00,
2013-01-10 09:38:00,40.9,25.5,30.17,NNE,22,2.0,9.0,54,0.01,,---,0.02,VWS V14.01,2013-01-10 14:38:00,
2013-01-10 09:39:00,40.9,25.1,30.17,NW,325,5.0,11.0,53,0.01,,---,0.02,VWS V14.01,2013-01-10 14:39:00,
2013-01-10 09:40:00,40.9,25.5,30.17,NW,312,3.0,8.0,54,0.01,,---,0.02,VWS V14.01,2013-01-10 14:40:00,
2013-01-10 09:41:00,41.8,25.9,30.19,WNW,299,10.0,17.0,53,0.02,,---,0.04,VWS V14.01,2013-01-10 14:41:00,
2013-01-10 09:42:00,41.0,26.1,30.18,NNW,334,6.0,10.0,55,0.01,,---,0.02,VWS V14.01,2013-01-10 14:42:00,
2013-01-10 09:43:00,41.0,25.6,30.18,NNE,33,8.0,8.0,54,0.01,,---,0.02,VWS V14.01,2013-01-10 14:43:00,
2013-01-10 09:44:00,41.0,25.6,30.18,WNW,300,10.0,12.0,54,0.01,,---,0.02,VWS V14.01,2013-01-10 14:44:00,
2013-01-10 09:45:00,41.0,25.6,30.18,ENE,62,3.0,10.0,54,0.01,,---,0.02,VWS V14.01,2013-01-10 14:45:00,
2013-01-10 09:46:00,42.0,25.7,30.20,NNE,32,17.0,17.0,52,0.02,,---,0.04,VWS V14.01,2013-01-10 14:46:00,
2013-01-10 09:47:00,41.0,26.5,30.18,NW,309,1.0,9.0,56,0.01,,---,0.02,VWS V14.01,2013-01-10 14:47:00,
2013-01-10 09:48:00,41.0,25.6,30.18,North,5,4.0,8.0,54,0.01,,---,0.02,VWS V14.01,2013-01-10 14:48:00,
2013-01-10 09:49:00,40.9,25.5,30.18,NW,322,9.0,12.0,54,0.01,,---,0.02,VWS V14.01,2013-01-10 14:49:00,
2013-01-10 09:50:00,40.9,25.5,30.19,West,265,8.0,9.0,54,0.01,,---,0.02,VWS V14.01,2013-01-10 14:50:00,
2013-01-10 09:51:00,40.9,25.5,30.18,North,9,2.0,10.0,54,0.01,,---,0.02,VWS V14.01,2013-01-10 14:51:00,
2013-01-10 09:52:00,42.0,25.7,30.19,NNW,329,2.0,6.0,52,0.02,,---,0.04,VWS V14.01,2013-01-10 14:52:00,
2013-01-10 09:53:00,40.9,25.5,30.18,SSE,162,2.0,7.0,54,0.01,,---,0.02,VWS V14.01,2013-01-10 14:53:00,
2013-01-10 09:54:00,40.9,25.5,30.18,East,82,4.0,7.0,54,0.01,,---,0.02,VWS V14.01,2013-01-10 14:54:00,
2013-01-10 09:55:00,40.9,25.5,30.17,WNW,300,2.0,12.0,54,0.01,,---,0.02,VWS V14.01,2013-01-10 14:55:00,
2013-01-10 09:56:00,40.9,26.9,30.18,NE,55,2.0,2.0,57,0.01,,---,0.02,VWS V14.01,2013-01-10 14:56:00,
2013-01-10 09:57:00,42.1,25.3,30.20,WSW,241,4.0,6.0,51,0.02,,---,0.04,VWS V14.01,2013-01-10 14:57:00,
2013-01-10 09:58:00,40.9,26.0,30.18,North,10,4.0,7.0,55,0.01,,---,0.02,VWS V14.01,2013-01-10 14:58:00,
2013-01-10 10:00:00,41.0,25.6,30.19,NE,34,14.0,16.0,54,0.01,,---,0.02,VWS V14.01,2013-01-10 15:00:00,
2013-01-10 10:01:00,41.1,25.7,30.19,NNE,25,1.0,14.0,54,0.02,,---,0.03,VWS V14.01,2013-01-10 15:01:00,
2013-01-10 10:02:00,42.2,25.4,30.20,NE,53,7.0,9.0,51,0.02,,---,0.04,VWS V14.01,2013-01-10 15:02:00,
2013-01-10 10:03:00,41.1,25.7,30.19,NNW,333,6.0,7.0,54,0.02,,---,0.03,VWS V14.01,2013-01-10 15:03:00,
2013-01-10 10:04:00,41.1,25.7,30.19,North,355,1.0,10.0,54,0.02,,---,0.03,VWS V14.01,2013-01-10 15:04:00,
2013-01-10 10:05:00,41.2,25.8,30.19,NW,323,2.0,9.0,54,0.02,,---,0.03,VWS V14.01,2013-01-10 15:05:00,
2013-01-10 10:06:00,41.2,25.8,30.19,NNE,13,2.0,9.0,54,0.02,,---,0.03,VWS V14.01,2013-01-10 15:06:00,
2013-01-10 10:07:00,41.2,25.8,30.19,NNE,30,6.0,23.0,54,0.02,,---,0.03,VWS V14.01,2013-01-10 15:07:00,
2013-01-10 10:08:00,41.2,25.4,30.19,North,5,3.0,11.0,53,0.02,,---,0.03,VWS V14.01,2013-01-10 15:08:00,
2013-01-10 10:09:00,42.2,24.9,30.20,NNW,329,3.0,9.0,50,0.02,,---,0.04,VWS V14.01,2013-01-10 15:09:00,
2013-01-10 10:10:00,41.3,25.5,30.19,NE,52,4.0,9.0,53,0.02,,---,0.03,VWS V14.01,2013-01-10 15:10:00,
2013-01-10 10:11:00,41.3,25.5,30.19,NNE,28,4.0,11.0,53,0.02,,---,0.03,VWS V14.01,2013-01-10 15:11:00,
2013-01-10 10:12:00,41.3,25.5,30.20,NW,325,5.0,12.0,53,0.02,,---,0.03,VWS V14.01,2013-01-10 15:12:00,
2013-01-10 10:13:00,41.4,25.6,30.19,WSW,244,2.0,13.0,53,0.02,,---,0.03,VWS V14.01,2013-01-10 15:13:00,
2013-01-10 10:14:00,42.6,24.8,30.20,NW,322,4.0,12.0,49,0.02,,---,0.04,VWS V14.01,2013-01-10 15:14:00,
2013-01-10 10:15:00,41.5,25.2,30.19,NW,316,2.0,10.0,52,0.01,,---,0.03,VWS V14.01,2013-01-10 15:15:00,
2013-01-10 10:16:00,41.5,25.2,30.19,North,350,3.0,8.0,52,0.01,,---,0.03,VWS V14.01,2013-01-10 15:16:00,
2013-01-10 10:17:00,41.6,25.8,30.19,WNW,297,1.0,3.0,53,0.01,,---,0.03,VWS V14.01,2013-01-10 15:17:00,
2013-01-10 10:18:00,41.6,25.8,30.19,North,355,12.0,12.0,53,0.01,,---,0.03,VWS V14.01,2013-01-10 15:18:00,
2013-01-10 10:19:00,42.7,25.4,30.19,North,11,2.0,8.0,50,0.02,,---,0.05,VWS V14.01,2013-01-10 15:19:00,
2013-01-10 10:20:00,41.6,25.3,30.19,NNE,29,2.0,9.0,52,0.01,,---,0.03,VWS V14.01,2013-01-10 15:20:00,
2013-01-10 10:21:00,41.6,25.3,30.19,NW,316,11.0,13.0,52,0.01,,---,0.03,VWS V14.01,2013-01-10 15:21:00,
2013-01-10 10:22:00,41.7,25.4,30.19,NNW,327,6.0,13.0,52,0.01,,---,0.03,VWS V14.01,2013-01-10 15:22:00,
2013-01-10 10:23:00,41.7,25.4,30.19,NNW,329,1.0,9.0,52,0.01,,---,0.03,VWS V14.01,2013-01-10 15:23:00,
2013-01-10 10:24:00,42.6,24.8,30.20,WNW,286,10.0,16.0,49,0.02,,---,0.05,VWS V14.01,2013-01-10 15:24:00,
2013-01-10 10:25:00,41.8,25.5,30.19,SW,214,9.0,9.0,52,0.02,,---,0.04,VWS V14.01,2013-01-10 15:25:00,
2013-01-10 10:26:00,41.8,25.9,30.19,WNW,299,10.0,17.0,53,0.02,,---,0.04,VWS V14.01,2013-01-10 15:26:00,
2013-01-10 10:27:00,41.8,25.0,30.19,WNW,301,6.0,12.0,51,0.02,,---,0.04,VWS V14.01,2013-01-10 15:27:00,
2013-01-10 10:28:00,41.9,25.6,30.20,WSW,238,4.0,6.0,52,0.02,,---,0.04,VWS V14.01,2013-01-10 15:28:00,
2013-01-10 10:29:00,42.7,24.4,30.19,WNW,286,2.0,7.0,48,0.03,,---,0.06,VWS V14.01,2013-01-10 15:29:00,
2013-01-10 10:30:00,42.0,25.2,30.20,NNW,348,3.0,12.0,51,0.02,,---,0.04,VWS V14.01,2013-01-10 15:30:00,
2013-01-10 10:31:00,42.0,25.7,30.20,NNE,32,17.0,17.0,52,0.02,,---,0.04,VWS V14.01,2013-01-10 15:31:00,
2013-01-10 10:32:00,42.0,25.2,30.20,NNE,29,9.0,17.0,51,0.02,,---,0.04,VWS V14.01,2013-01-10 15:32:00,
2013-01-10 10:33:00,42.0,25.2,30.19,North,5,1.0,9.0,51,0.02,,---,0.04,VWS V14.01,2013-01-10 15:33:00,
2013-01-10 10:34:00,42.8,25.0,30.19,NE,49,5.0,12.0,49,0.03,,---,0.06,VWS V14.01,2013-01-10 15:34:00,
2013-01-10 10:35:00,42.0,25.7,30.20,North,11,7.0,15.0,52,0.02,,---,0.04,VWS V14.01,2013-01-10 15:35:00,
2013-01-10 10:36:00,42.0,25.2,30.19,NNE,19,3.0,11.0,51,0.02,,---,0.04,VWS V14.01,2013-01-10 15:36:00,
2013-01-10 10:37:00,42.0,25.7,30.19,NNW,329,2.0,6.0,52,0.02,,---,0.04,VWS V14.01,2013-01-10 15:37:00,
2013-01-10 10:38:00,42.0,25.7,30.19,West,269,7.0,11.0,52,0.02,,---,0.04,VWS V14.01,2013-01-10 15:38:00,
2013-01-10 10:39:00,42.9,24.6,30.19,WNW,284,5.0,11.0,48,0.03,,---,0.06,VWS V14.01,2013-01-10 15:39:00,
2013-01-10 10:40:00,42.0,25.2,30.20,West,280,6.0,12.0,51,0.02,,---,0.04,VWS V14.01,2013-01-10 15:40:00,
2013-01-10 10:41:00,42.1,24.8,30.19,North,350,3.0,15.0,50,0.02,,---,0.04,VWS V14.01,2013-01-10 15:41:00,
2013-01-10 10:42:00,42.1,25.3,30.20,WSW,241,4.0,6.0,51,0.02,,---,0.04,VWS V14.01,2013-01-10 15:42:00,
2013-01-10 10:43:00,42.1,25.3,30.19,North,9,1.0,7.0,51,0.02,,---,0.04,VWS V14.01,2013-01-10 15:43:00,
2013-01-10 10:44:00,42.9,24.6,30.19,NW,315,2.0,13.0,48,0.02,,---,0.06,VWS V14.01,2013-01-10 15:44:00,
2013-01-10 10:45:00,42.2,24.9,30.19,WNW,294,14.0,15.0,50,0.02,,---,0.04,VWS V14.01,2013-01-10 15:45:00,
2013-01-10 10:46:00,42.2,25.4,30.19,ESE,103,5.0,14.0,51,0.02,,---,0.04,VWS V14.01,2013-01-10 15:46:00,
2013-01-10 10:47:00,42.2,25.4,30.20,NE,53,7.0,9.0,51,0.02,,---,0.04,VWS V14.01,2013-01-10 15:47:00,
2013-01-10 10:48:00,42.2,25.4,30.19,NNW,329,11.0,16.0,51,0.02,,---,0.04,VWS V14.01,2013-01-10 15:48:00,
2013-01-10 10:49:00,42.9,25.1,30.20,North,360,6.0,9.0,49,0.03,,---,0.07,VWS V14.01,2013-01-10 15:49:00,
2013-01-10 10:50:00,42.2,24.9,30.20,WNW,297,14.0,16.0,50,0.02,,---,0.04,VWS V14.01,2013-01-10 15:50:00,
2013-01-10 10:51:00,42.2,24.9,30.20,ENE,63,8.0,14.0,50,0.02,,---,0.04,VWS V14.01,2013-01-10 15:51:00,
2013-01-10 10:52:00,42.2,25.4,30.20,East,83,2.0,8.0,51,0.02,,---,0.04,VWS V14.01,2013-01-10 15:52:00,
2013-01-10 10:53:00,42.2,24.9,30.20,NNW,329,3.0,9.0,50,0.02,,---,0.04,VWS V14.01,2013-01-10 15:53:00,
2013-01-10 10:54:00,42.9,25.1,30.20,North,355,5.0,9.0,49,0.03,,---,0.07,VWS V14.01,2013-01-10 15:54:00,
2013-01-10 10:55:00,42.2,24.9,30.20,NW,318,4.0,13.0,50,0.02,,---,0.04,VWS V14.01,2013-01-10 15:55:00,
2013-01-10 10:56:00,42.3,25.5,30.20,ENE,77,10.0,10.0,51,0.02,,---,0.04,VWS V14.01,2013-01-10 15:56:00,
2013-01-10 10:57:00,42.5,25.2,30.20,NNW,327,5.0,10.0,50,0.02,,---,0.04,VWS V14.01,2013-01-10 15:57:00,
2013-01-10 10:58:00,42.6,24.8,30.20,North,360,4.0,12.0,49,0.02,,---,0.04,VWS V14.01,2013-01-10 15:58:00,
2013-01-10 10:59:00,42.9,25.1,30.20,NE,55,11.0,11.0,49,0.03,,---,0.07,VWS V14.01,2013-01-10 15:59:00,
2013-01-10 11:00:00,42.6,24.8,30.19,East,84,4.0,10.0,49,0.03,,---,0.05,VWS V14.01,2013-01-10 16:00:00,
2013-01-10 11:01:00,42.7,24.9,30.20,NW,323,3.0,9.0,49,0.03,,---,0.05,VWS V14.01,2013-01-10 16:01:00,
2013-01-10 11:02:00,42.7,24.9,30.20,WSW,241,6.0,12.0,49,0.02,,---,0.05,VWS V14.01,2013-01-10 16:02:00,
2013-01-10 11:03:00,42.7,24.9,30.19,North,5,4.0,6.0,49,0.02,,---,0.05,VWS V14.01,2013-01-10 16:03:00,
2013-01-10 11:04:00,42.9,25.1,30.21,NNW,338,16.0,16.0,49,0.04,,---,0.08,VWS V14.01,2013-01-10 16:04:00,
2013-01-10 11:05:00,42.7,25.4,30.19,NE,44,3.0,4.0,50,0.02,,---,0.05,VWS V14.01,2013-01-10 16:05:00,
2013-01-10 11:06:00,42.7,24.9,30.19,North,360,2.0,14.0,49,0.02,,---,0.05,VWS V14.01,2013-01-10 16:06:00,
2013-01-10 11:07:00,42.7,24.9,30.20,NE,42,24.0,24.0,49,0.02,,---,0.05,VWS V14.01,2013-01-10 16:07:00,
2013-01-10 11:08:00,42.6,24.8,30.19,SSW,196,3.0,24.0,49,0.02,,---,0.05,VWS V14.01,2013-01-10 16:08:00,
2013-01-10 11:09:00,42.8,25.0,30.20,NW,307,16.0,19.0,49,0.04,,---,0.08,VWS V14.01,2013-01-10 16:09:00,
2013-01-10 11:10:00,42.6,24.3,30.19,NNW,339,4.0,14.0,48,0.02,,---,0.05,VWS V14.01,2013-01-10 16:10:00,
2013-01-10 11:11:00,42.6,24.3,30.19,NW,323,6.0,13.0,48,0.02,,---,0.05,VWS V14.01,2013-01-10 16:11:00,
2013-01-10 11:12:00,42.6,24.8,30.19,NE,37,3.0,6.0,49,0.02,,---,0.05,VWS V14.01,2013-01-10 16:12:00,
2013-01-10 11:13:00,42.6,24.8,30.19,NNE,22,7.0,7.0,49,0.02,,---,0.05,VWS V14.01,2013-01-10 16:13:00,
2013-01-10 11:14:00,42.8,25.0,30.20,WNW,288,11.0,11.0,49,0.04,,---,0.08,VWS V14.01,2013-01-10 16:14:00,
2013-01-10 11:15:00,42.7,24.9,30.19,NNE,24,5.0,12.0,49,0.03,,---,0.06,VWS V14.01,2013-01-10 16:15:00,
2013-01-10 11:16:00,42.7,24.4,30.19,NW,308,13.0,14.0,48,0.03,,---,0.06,VWS V14.01,2013-01-10 16:16:00,
2013-01-10 11:17:00,42.7,24.9,30.19,NNW,328,2.0,13.0,49,0.03,,---,0.06,VWS V14.01,2013-01-10 16:17:00,
2013-01-10 11:18:00,42.8,25.0,30.19,WNW,294,10.0,13.0,49,0.03,,---,0.06,VWS V14.01,2013-01-10 16:18:00,
2013-01-10 11:19:00,42.8,25.0,30.20,NNE,12,3.0,15.0,49,0.03,,---,0.08,VWS V14.01,2013-01-10 16:19:00,
2013-01-10 11:20:00,42.8,24.5,30.19,NE,49,5.0,9.0,48,0.03,,---,0.06,VWS V14.01,2013-01-10 16:20:00,
2013-01-10 11:21:00,42.9,24.6,30.19,WSW,246,7.0,11.0,48,0.03,,---,0.06,VWS V14.01,2013-01-10 16:21:00,
2013-01-10 11:22:00,42.9,25.1,30.19,North,9,7.0,12.0,49,0.03,,---,0.06,VWS V14.01,2013-01-10 16:22:00,
2013-01-10 11:23:00,42.9,25.1,30.19,NNE,18,4.0,12.0,49,0.03,,---,0.06,VWS V14.01,2013-01-10 16:23:00,
2013-01-10 11:24:00,42.7,24.9,30.19,WSW,257,13.0,21.0,49,0.04,,---,0.09,VWS V14.01,2013-01-10 16:24:00,
2013-01-10 11:25:00,42.9,24.6,30.20,NNE,32,11.0,12.0,48,0.02,,---,0.06,VWS V14.01,2013-01-10 16:25:00,
2013-01-10 11:26:00,42.9,24.6,30.19,West,276,13.0,19.0,48,0.02,,---,0.06,VWS V14.01,2013-01-10 16:26:00,
2013-01-10 11:27:00,42.9,24.6,30.20,NE,49,15.0,22.0,48,0.02,,---,0.06,VWS V14.01,2013-01-10 16:27:00,
2013-01-10 11:28:00,42.9,24.6,30.20,WNW,288,13.0,17.0,48,0.02,,---,0.06,VWS V14.01,2013-01-10 16:28:00,
2013-01-10 11:29:00,42.7,24.9,30.18,WNW,298,8.0,11.0,49,0.04,,---,0.09,VWS V14.01,2013-01-10 16:29:00,
2013-01-10 11:30:00,42.9,24.6,30.19,WNW,301,5.0,16.0,48,0.02,,---,0.06,VWS V14.01,2013-01-10 16:30:00,
2013-01-10 11:31:00,42.9,24.6,30.19,NNW,341,2.0,5.0,48,0.02,,---,0.06,VWS V14.01,2013-01-10 16:31:00,
2013-01-10 11:32:00,42.9,24.6,30.19,North,351,4.0,10.0,48,0.02,,---,0.06,VWS V14.01,2013-01-10 16:32:00,
2013-01-10 11:33:00,42.9,24.6,30.20,ENE,69,2.0,6.0,48,0.03,,---,0.07,VWS V14.01,2013-01-10 16:33:00,
2013-01-10 11:34:00,42.7,24.9,30.18,NE,49,12.0,12.0,49,0.03,,---,0.09,VWS V14.01,2013-01-10 16:34:00,
2013-01-10 11:35:00,42.9,25.1,30.20,East,80,4.0,12.0,49,0.03,,---,0.07,VWS V14.01,2013-01-10 16:35:00,
2013-01-10 11:36:00,42.9,25.1,30.20,WNW,298,7.0,15.0,49,0.03,,---,0.07,VWS V14.01,2013-01-10 16:36:00,
2013-01-10 11:37:00,43.0,25.2,30.20,NNE,18,4.0,7.0,49,0.03,,---,0.07,VWS V14.01,2013-01-10 16:37:00,
2013-01-10 11:38:00,43.0,25.2,30.20,ENE,63,3.0,13.0,49,0.03,,---,0.07,VWS V14.01,2013-01-10 16:38:00,
2013-01-10 11:39:00,42.6,24.8,30.19,WNW,302,13.0,17.0,49,0.03,,---,0.09,VWS V14.01,2013-01-10 16:39:00,
2013-01-10 11:40:00,42.9,25.1,30.20,SSE,157,1.0,18.0,49,0.03,,---,0.07,VWS V14.01,2013-01-10 16:40:00,
2013-01-10 11:41:00,42.9,25.1,30.20,NE,44,11.0,15.0,49,0.03,,---,0.07,VWS V14.01,2013-01-10 16:41:00,
2013-01-10 11:42:00,42.9,25.1,30.20,ESE,121,3.0,15.0,49,0.03,,---,0.07,VWS V14.01,2013-01-10 16:42:00,
2013-01-10 11:43:00,42.9,25.1,30.20,NW,319,2.0,13.0,49,0.03,,---,0.07,VWS V14.01,2013-01-10 16:43:00,
2013-01-10 11:45:00,42.7,24.9,30.19,NNE,32,2.0,9.0,49,0.03,,---,0.09,VWS V14.01,2013-01-10 16:45:00,
2013-01-10 11:46:00,42.9,25.1,30.21,West,268,1.0,7.0,49,0.03,,---,0.07,VWS V14.01,2013-01-10 16:46:00,
2013-01-10 11:47:00,42.9,25.1,30.20,NW,313,15.0,15.0,49,0.03,,---,0.07,VWS V14.01,2013-01-10 16:47:00,
2013-01-10 11:48:00,42.9,25.1,30.20,North,360,7.0,27.0,49,0.03,,---,0.07,VWS V14.01,2013-01-10 16:48:00,
2013-01-10 11:49:00,42.9,25.1,30.21,NNW,338,16.0,16.0,49,0.04,,---,0.08,VWS V14.01,2013-01-10 16:49:00,
2013-01-10 11:50:00,42.8,25.0,30.19,North,360,6.0,17.0,49,0.03,,---,0.10,VWS V14.01,2013-01-10 16:50:00,
2013-01-10 11:51:00,42.8,25.0,30.20,NNW,341,3.0,14.0,49,0.04,,---,0.08,VWS V14.01,2013-01-10 16:51:00,
2013-01-10 11:52:00,42.8,25.0,30.20,NW,317,9.0,10.0,49,0.04,,---,0.08,VWS V14.01,2013-01-10 16:52:00,
2013-01-10 11:53:00,42.8,25.0,30.20,NNE,25,8.0,14.0,49,0.04,,---,0.08,VWS V14.01,2013-01-10 16:53:00,
2013-01-10 11:54:00,42.8,25.0,30.20,NW,307,16.0,19.0,49,0.04,,---,0.08,VWS V14.01,2013-01-10 16:54:00,
2013-01-10 11:55:00,42.8,25.0,30.20,NNW,331,3.0,16.0,49,0.04,,---,0.08,VWS V14.01,2013-01-10 16:55:00,
2013-01-10 11:56:00,42.8,24.5,30.19,ENE,75,2.0,14.0,48,0.03,,---,0.10,VWS V14.01,2013-01-10 16:56:00,
2013-01-10 11:57:00,42.7,24.9,30.20,North,11,2.0,9.0,49,0.04,,---,0.08,VWS V14.01,2013-01-10 16:57:00,
2013-01-10 11:58:00,42.7,24.9,30.20,NNW,327,3.0,15.0,49,0.04,,---,0.08,VWS V14.01,2013-01-10 16:58:00,
2013-01-10 11:59:00,42.8,25.0,30.20,WNW,288,11.0,11.0,49,0.04,,---,0.08,VWS V14.01,2013-01-10 16:59:00,
2013-01-10 12:00:00,42.8,25.0,30.20,NW,318,5.0,14.0,49,0.04,,---,0.08,VWS V14.01,2013-01-10 17:00:00,
2013-01-10 12:01:00,42.8,25.0,30.19,NNW,329,4.0,11.0,49,0.03,,---,0.10,VWS V14.01,2013-01-10 17:01:00,
2013-01-10 12:02:00,42.8,25.0,30.20,NW,310,7.0,10.0,49,0.03,,---,0.08,VWS V14.01,2013-01-10 17:02:00,
2013-01-10 12:03:00,42.8,25.0,30.20,North,355,15.0,23.0,49,0.03,,---,0.08,VWS V14.01,2013-01-10 17:03:00,
2013-01-10 12:04:00,42.8,25.0,30.20,NNE,12,3.0,15.0,49,0.03,,---,0.08,VWS V14.01,2013-01-10 17:04:00,
2013-01-10 12:05:00,42.8,25.0,30.20,NNW,344,5.0,10.0,49,0.03,,---,0.08,VWS V14.01,2013-01-10 17:05:00,
2013-01-10 12:06:00,43.0,24.7,30.20,SSW,213,14.0,14.0,48,0.02,,---,0.10,VWS V14.01,2013-01-10 17:06:00,
2013-01-10 12:07:00,42.8,25.0,30.20,West,273,12.0,14.0,49,0.03,,---,0.08,VWS V14.01,2013-01-10 17:07:00,
2013-01-10 12:08:00,42.7,24.9,30.20,WNW,298,13.0,13.0,49,0.04,,---,0.09,VWS V14.01,2013-01-10 17:08:00,
2013-01-10 12:09:00,42.7,24.9,30.19,WSW,257,13.0,21.0,49,0.04,,---,0.09,VWS V14.01,2013-01-10 17:09:00,
2013-01-10 12:10:00,42.7,25.4,30.20,North,360,17.0,20.0,50,0.04,,---,0.09,VWS V14.01,2013-01-10 17:10:00,
2013-01-10 12:11:00,43.2,24.9,30.20,WNW,283,10.0,13.0,48,0.02,,---,0.10,VWS V14.01,2013-01-10 17:11:00,
2013-01-10 12:12:00,42.7,24.9,30.19,North,351,5.0,10.0,49,0.04,,---,0.09,VWS V14.01,2013-01-10 17:12:00,
2013-01-10 12:13:00,42.7,24.9,30.18,NNW,338,6.0,9.0,49,0.04,,---,0.09,VWS V14.01,2013-01-10 17:13:00,
2013-01-10 12:14:00,42.7,24.9,30.18,WNW,298,8.0,11.0,49,0.04,,---,0.09,VWS V14.01,2013-01-10 17:14:00,
2013-01-10 12:16:00,43.1,24.3,30.19,SE,127,3.0,18.0,47,0.02,,---,0.10,VWS V14.01,2013-01-10 17:16:00,
2013-01-10 12:17:00,42.8,24.5,30.18,NW,313,15.0,16.0,48,0.03,,---,0.09,VWS V14.01,2013-01-10 17:17:00,
2013-01-10 12:18:00,42.7,24.4,30.19,NNW,334,4.0,18.0,48,0.03,,---,0.09,VWS V14.01,2013-01-10 17:18:00,
2013-01-10 12:19:00,42.7,24.9,30.18,NE,49,12.0,12.0,49,0.03,,---,0.09,VWS V14.01,2013-01-10 17:19:00,
2013-01-10 12:20:00,42.7,24.4,30.19,North,360,10.0,16.0,48,0.03,,---,0.09,VWS V14.01,2013-01-10 17:20:00,
2013-01-10 12:21:00,43.0,24.2,30.21,SSE,164,6.0,17.0,47,0.02,,---,0.10,VWS V14.01,2013-01-10 17:21:00,
2013-01-10 12:22:00,42.6,24.3,30.19,NNE,27,5.0,22.0,48,0.03,,---,0.09,VWS V14.01,2013-01-10 17:22:00,
2013-01-10 12:23:00,42.6,24.8,30.18,NNE,21,1.0,9.0,49,0.03,,---,0.09,VWS V14.01,2013-01-10 17:23:00,
2013-01-10 12:24:00,42.6,24.8,30.19,WNW,302,13.0,17.0,49,0.03,,---,0.09,VWS V14.01,2013-01-10 17:24:00,
2013-01-10 12:25:00,42.7,24.9,30.19,NW,313,9.0,13.0,49,0.03,,---,0.09,VWS V14.01,2013-01-10 17:25:00,
2013-01-10 12:26:00,43.0,24.2,30.20,NNE,31,5.0,15.0,47,0.01,,---,0.10,VWS V14.01,2013-01-10 17:26:00,
2013-01-10 12:27:00,42.7,24.9,30.18,West,276,12.0,12.0,49,0.03,,---,0.09,VWS V14.01,2013-01-10 17:27:00,
2013-01-10 12:28:00,42.7,24.4,30.19,WNW,294,6.0,16.0,48,0.03,,---,0.09,VWS V14.01,2013-01-10 17:28:00,
2013-01-10 12:29:00,42.7,24.4,30.18,WNW,286,6.0,13.0,48,0.03,,---,0.09,VWS V14.01,2013-01-10 17:29:00,
2013-01-10 12:30:00,42.7,24.9,30.19,NNE,32,2.0,9.0,49,0.03,,---,0.09,VWS V14.01,2013-01-10 17:30:00,
2013-01-10 12:31:00,43.2,24.4,30.20,NE,47,4.0,7.0,47,0.01,,---,0.10,VWS V14.01,2013-01-10 17:31:00,
2013-01-10 12:33:00,42.8,25.0,30.18,North,349,5.0,14.0,49,0.04,,---,0.10,VWS V14.01,2013-01-10 17:33:00,
2013-01-10 12:34:00,42.8,25.0,30.19,NW,313,12.0,12.0,49,0.03,,---,0.10,VWS V14.01,2013-01-10 17:34:00,
2013-01-10 12:35:00,42.8,25.0,30.19,North,360,6.0,17.0,49,0.03,,---,0.10,VWS V14.01,2013-01-10 17:35:00,
2013-01-10 12:36:00,43.3,23.9,30.20,NNW,329,5.0,13.0,46,0.01,,---,0.10,VWS V14.01,2013-01-10 17:36:00,
2013-01-10 12:37:00,42.8,25.0,30.19,NNE,24,5.0,14.0,49,0.03,,---,0.10,VWS V14.01,2013-01-10 17:37:00,
2013-01-10 12:38:00,42.8,24.5,30.18,NE,46,10.0,14.0,48,0.03,,---,0.10,VWS V14.01,2013-01-10 17:38:00,
2013-01-10 12:39:00,42.8,24.5,30.19,West,273,2.0,13.0,48,0.03,,---,0.10,VWS V14.01,2013-01-10 17:39:00,
2013-01-10 12:40:00,42.8,24.5,30.19,NW,320,7.0,14.0,48,0.03,,---,0.10,VWS V14.01,2013-01-10 17:40:00,
2013-01-10 12:41:00,43.2,23.8,30.20,NE,42,5.0,17.0,46,0.01,,---,0.10,VWS V14.01,2013-01-10 17:41:00,
2013-01-10 12:42:00,42.8,25.0,30.19,SE,129,9.0,10.0,49,0.03,,---,0.10,VWS V14.01,2013-01-10 17:42:00,
2013-01-10 12:43:00,42.9,24.6,30.19,NNW,341,15.0,15.0,48,0.03,,---,0.10,VWS V14.01,2013-01-10 17:43:00,
2013-01-10 12:44:00,42.8,24.5,30.19,WNW,302,9.0,18.0,48,0.03,,---,0.10,VWS V14.01,2013-01-10 17:44:00,
2013-01-10 12:45:00,42.8,24.5,30.19,West,277,10.0,17.0,48,0.03,,---,0.10,VWS V14.01,2013-01-10 17:45:00,
2013-01-10 12:46:00,43.1,23.7,30.20,NW,304,5.0,8.0,46,0.01,,---,0.10,VWS V14.01,2013-01-10 17:46:00,
2013-01-10 12:47:00,42.9,24.6,30.19,NNW,338,6.0,12.0,48,0.03,,---,0.10,VWS V14.01,2013-01-10 17:47:00,
2013-01-10 12:48:00,42.9,24.6,30.20,NNW,346,3.0,10.0,48,0.03,,---,0.10,VWS V14.01,2013-01-10 17:48:00,
2013-01-10 12:49:00,42.9,24.6,30.19,NE,52,4.0,6.0,48,0.03,,---,0.10,VWS V14.01,2013-01-10 17:49:00,
2013-01-10 12:50:00,43.0,24.7,30.19,NNE,17,3.0,11.0,48,0.02,,---,0.10,VWS V14.01,2013-01-10 17:50:00,
2013-01-10 12:51:00,43.1,24.3,30.20,NW,322,3.0,6.0,47,0.01,,---,0.11,VWS V14.01,2013-01-10 17:51:00,
2013-01-10 12:52:00,43.1,24.3,30.20,North,9,5.0,14.0,47,0.02,,---,0.10,VWS V14.01,2013-01-10 17:52:00,
2013-01-10 12:53:00,43.1,24.3,30.19,SW,233,4.0,10.0,47,0.02,,---,0.10,VWS V14.01,2013-01-10 17:53:00,
2013-01-10 12:54:00,43.1,24.3,30.20,NW,313,6.0,13.0,47,0.02,,---,0.10,VWS V14.01,2013-01-10 17:54:00,
2013-01-10 12:55:00,43.2,24.4,30.19,North,360,5.0,11.0,47,0.02,,---,0.10,VWS V14.01,2013-01-10 17:55:00,
2013-01-10 12:56:00,43.2,24.9,30.20,WNW,283,10.0,13.0,48,0.02,,---,0.10,VWS V14.01,2013-01-10 17:56:00,
2013-01-10 12:57:00,43.5,24.1,30.20,NNW,337,4.0,11.0,46,0.01,,---,0.11,VWS V14.01,2013-01-10 17:57:00,
2013-01-10 12:58:00,43.2,24.4,30.20,NNW,336,10.0,10.0,47,0.02,,---,0.10,VWS V14.01,2013-01-10 17:58:00,
2013-01-10 12:59:00,43.2,24.4,30.20,NNW,333,5.0,18.0,47,0.02,,---,0.10,VWS V14.01,2013-01-10 17:59:00,
2013-01-10 13:00:00,43.2,24.4,30.19,NE,38,6.0,14.0,47,0.02,,---,0.10,VWS V14.01,2013-01-10 18:00:00,
2013-01-10 13:01:00,43.1,24.3,30.19,SE,127,3.0,18.0,47,0.02,,---,0.10,VWS V14.01,2013-01-10 18:01:00,
2013-01-10 13:02:00,43.6,24.2,30.20,WNW,296,4.0,9.0,46,0.01,,---,0.11,VWS V14.01,2013-01-10 18:02:00,
2013-01-10 13:03:00,43.1,24.3,30.20,NW,309,10.0,18.0,47,0.02,,---,0.10,VWS V14.01,2013-01-10 18:03:00,
2013-01-10 13:04:00,43.1,24.3,30.20,NW,306,9.0,19.0,47,0.02,,---,0.10,VWS V14.01,2013-01-10 18:04:00,
2013-01-10 13:05:00,43.1,24.3,30.20,NW,323,12.0,16.0,47,0.02,,---,0.10,VWS V14.01,2013-01-10 18:05:00,
2013-01-10 13:06:00,43.0,24.2,30.21,SSE,164,6.0,17.0,47,0.02,,---,0.10,VWS V14.01,2013-01-10 18:06:00,
2013-01-10 13:07:00,43.0,24.2,30.20,NNE,20,5.0,19.0,47,0.02,,---,0.10,VWS V14.01,2013-01-10 18:07:00,
2013-01-10 13:08:00,43.6,24.2,30.20,North,355,5.0,9.0,46,0.01,,---,0.11,VWS V14.01,2013-01-10 18:08:00,
2013-01-10 13:09:00,43.0,24.2,30.20,WNW,290,12.0,23.0,47,0.01,,---,0.10,VWS V14.01,2013-01-10 18:09:00,
2013-01-10 13:10:00,43.0,24.2,30.20,WNW,300,8.0,17.0,47,0.01,,---,0.10,VWS V14.01,2013-01-10 18:10:00,
2013-01-10 13:11:00,43.0,24.2,30.20,NNE,31,5.0,15.0,47,0.01,,---,0.10,VWS V14.01,2013-01-10 18:11:00,
2013-01-10 13:12:00,43.1,24.3,30.20,NNW,336,14.0,20.0,47,0.01,,---,0.10,VWS V14.01,2013-01-10 18:12:00,
2013-01-10 13:13:00,43.4,23.5,30.21,NNW,333,7.0,18.0,45,0.01,,---,0.11,VWS V14.01,2013-01-10 18:13:00,
2013-01-10 13:14:00,43.1,23.7,30.20,NW,306,6.0,18.0,46,0.01,,---,0.10,VWS V14.01,2013-01-10 18:14:00,
2013-01-10 13:15:00,43.1,24.3,30.20,NNW,331,7.0,9.0,47,0.01,,---,0.10,VWS V14.01,2013-01-10 18:15:00,
2013-01-10 13:16:00,43.2,24.4,30.20,NE,47,4.0,7.0,47,0.01,,---,0.10,VWS V14.01,2013-01-10 18:16:00,
2013-01-10 13:17:00,43.2,23.8,30.20,North,360,5.0,17.0,46,0.01,,---,0.10,VWS V14.01,2013-01-10 18:17:00,
2013-01-10 13:18:00,43.3,23.9,30.21,WNW,299,5.0,6.0,46,0.01,,---,0.11,VWS V14.01,2013-01-10 18:18:00,
2013-01-10 13:19:00,43.2,24.4,30.20,North,10,3.0,11.0,47,0.01,,---,0.10,VWS V14.01,2013-01-10 18:19:00,
2013-01-10 13:20:00,43.2,24.4,30.20,NE,36,7.0,10.0,47,0.01,,---,0.10,VWS V14.01,2013-01-10 18:20:00,
2013-01-10 13:21:00,43.3,23.9,30.20,NNW,329,5.0,13.0,46,0.01,,---,0.10,VWS V14.01,2013-01-10 18:21:00,
2013-01-10 13:22:00,43.3,24.4,30.20,ENE,61,1.0,6.0,47,0.01,,---,0.10,VWS V14.01,2013-01-10 18:22:00,
2013-01-10 13:23:00,43.3,23.9,30.22,North,355,5.0,10.0,46,0.01,,---,0.11,VWS V14.01,2013-01-10 18:23:00,
2013-01-10 13:24:00,43.2,23.8,30.20,NNW,331,9.0,15.0,46,0.01,,---,0.10,VWS V14.01,2013-01-10 18:24:00,
2013-01-10 13:25:00,43.2,23.8,30.20,NNW,340,9.0,15.0,46,0.01,,---,0.10,VWS V14.01,2013-01-10 18:25:00,
2013-01-10 13:26:00,43.2,23.8,30.20,NE,42,5.0,17.0,46,0.01,,---,0.10,VWS V14.01,2013-01-10 18:26:00,
2013-01-10 13:27:00,43.1,23.7,30.20,NNW,333,1.0,6.0,46,0.01,,---,0.10,VWS V14.01,2013-01-10 18:27:00,
2013-01-10 13:28:00,43.2,24.4,30.20,East,80,6.0,12.0,47,0.01,,---,0.10,VWS V14.01,2013-01-10 18:28:00,
2013-01-10 13:29:00,43.5,24.1,30.23,NW,311,5.0,11.0,46,0.01,,---,0.11,VWS V14.01,2013-01-10 18:29:00,
2013-01-10 13:30:00,43.1,24.3,30.20,WNW,295,7.0,9.0,47,0.01,,---,0.10,VWS V14.01,2013-01-10 18:30:00,
2013-01-10 13:31:00,43.1,23.7,30.20,NW,304,5.0,8.0,46,0.01,,---,0.10,VWS V14.01,2013-01-10 18:31:00,
2013-01-10 13:32:00,43.1,24.3,30.20,NW,323,12.0,23.0,47,0.02,,---,0.11,VWS V14.01,2013-01-10 18:32:00,
2013-01-10 13:33:00,43.1,24.3,30.20,WNW,301,7.0,15.0,47,0.02,,---,0.11,VWS V14.01,2013-01-10 18:33:00,
2013-01-10 13:34:00,43.1,24.3,30.20,NW,313,4.0,16.0,47,0.01,,---,0.11,VWS V14.01,2013-01-10 18:34:00,
2013-01-10 13:35:00,43.3,23.4,30.23,NW,319,11.0,21.0,45,0.01,,---,0.11,VWS V14.01,2013-01-10 18:35:00,
2013-01-10 13:36:00,43.1,24.3,30.20,NW,322,3.0,6.0,47,0.01,,---,0.11,VWS V14.01,2013-01-10 18:36:00,
2013-01-10 13:37:00,43.1,24.3,30.20,East,96,1.0,3.0,47,0.01,,---,0.11,VWS V14.01,2013-01-10 18:37:00,
2013-01-10 13:38:00,43.2,24.4,30.20,NNW,338,10.0,10.0,47,0.01,,---,0.11,VWS V14.01,2013-01-10 18:38:00,
2013-01-10 13:39:00,43.3,24.4,30.20,WNW,298,3.0,10.0,47,0.01,,---,0.11,VWS V14.01,2013-01-10 18:39:00,
2013-01-10 13:40:00,43.3,24.4,30.20,WNW,298,0.0,3.0,47,0.01,,---,0.11,VWS V14.01,2013-01-10 18:40:00,
2013-01-10 13:41:00,43.2,23.8,30.23,North,360,6.0,13.0,46,0.01,,---,0.11,VWS V14.01,2013-01-10 18:41:00,
2013-01-10 13:42:00,43.5,24.1,30.20,NNW,337,4.0,11.0,46,0.01,,---,0.11,VWS V14.01,2013-01-10 18:42:00,
2013-01-10 13:43:00,43.5,24.6,30.20,NE,45,4.0,6.0,47,0.01,,---,0.11,VWS V14.01,2013-01-10 18:43:00,
2013-01-10 13:44:00,43.6,24.7,30.20,NNE,28,2.0,4.0,47,0.01,,---,0.11,VWS V14.01,2013-01-10 18:44:00,
2013-01-10 13:45:00,43.6,24.2,30.20,NNW,333,10.0,12.0,46,0.01,,---,0.11,VWS V14.01,2013-01-10 18:45:00,
2013-01-10 13:46:00,43.1,23.7,30.24,NW,325,4.0,12.0,46,0.01,,---,0.11,VWS V14.01,2013-01-10 18:46:00,
2013-01-10 13:47:00,43.6,24.2,30.20,WNW,296,4.0,9.0,46,0.01,,---,0.11,VWS V14.01,2013-01-10 18:47:00,
2013-01-10 13:48:00,43.5,25.1,30.21,NE,47,1.0,8.0,48,0.01,,---,0.11,VWS V14.01,2013-01-10 18:48:00,
2013-01-10 13:50:00,43.5,24.1,30.21,NNE,13,3.0,7.0,46,0.01,,---,0.11,VWS V14.01,2013-01-10 18:50:00,
2013-01-10 13:51:00,43.6,24.2,30.21,NE,37,8.0,15.0,46,0.01,,---,0.11,VWS V14.01,2013-01-10 18:51:00,
2013-01-10 13:52:00,43.1,23.7,30.24,NNW,338,4.0,7.0,46,0.00,,---,0.11,VWS V14.01,2013-01-10 18:52:00,
2013-01-10 13:53:00,43.6,24.2,30.20,North,355,5.0,9.0,46,0.01,,---,0.11,VWS V14.01,2013-01-10 18:53:00,
2013-01-10 13:54:00,43.6,23.7,30.22,NNE,31,13.0,23.0,45,0.01,,---,0.11,VWS V14.01,2013-01-10 18:54:00,
2013-01-10 13:55:00,43.5,23.6,30.22,North,5,7.0,14.0,45,0.01,,---,0.11,VWS V14.01,2013-01-10 18:55:00,
2013-01-10 13:56:00,43.4,23.5,30.21,NW,318,4.0,7.0,45,0.01,,---,0.11,VWS V14.01,2013-01-10 18:56:00,
2013-01-10 13:57:00,43.1,23.7,30.24,North,5,7.0,16.0,46,0.00,,---,0.11,VWS V14.01,2013-01-10 18:57:00,
2013-01-10 13:58:00,43.4,23.5,30.21,NNW,333,7.0,18.0,45,0.01,,---,0.11,VWS V14.01,2013-01-10 18:58:00,
2013-01-10 13:59:00,43.3,23.9,30.22,NE,42,10.0,11.0,46,0.01,,---,0.11,VWS V14.01,2013-01-10 18:59:00,
2013-01-10 14:00:00,43.3,23.9,30.22,ESE,102,6.0,10.0,46,0.01,,---,0.11,VWS V14.01,2013-01-10 19:00:00,
2013-01-10 14:01:00,43.3,23.9,30.21,NW,322,9.0,13.0,46,0.01,,---,0.11,VWS V14.01,2013-01-10 19:01:00,
2013-01-10 14:02:00,43.1,23.7,30.24,NNE,12,1.0,5.0,46,0.00,,---,0.11,VWS V14.01,2013-01-10 19:02:00,
2013-01-10 14:03:00,43.3,23.9,30.21,WNW,299,5.0,6.0,46,0.01,,---,0.11,VWS V14.01,2013-01-10 19:03:00,
2013-01-10 14:04:00,43.3,23.9,30.22,North,355,11.0,14.0,46,0.01,,---,0.11,VWS V14.01,2013-01-10 19:04:00,
2013-01-10 14:05:00,43.3,23.9,30.22,ENE,63,5.0,11.0,46,0.01,,---,0.11,VWS V14.01,2013-01-10 19:05:00,
2013-01-10 14:06:00,43.3,23.4,30.22,NNE,17,12.0,14.0,45,0.01,,---,0.11,VWS V14.01,2013-01-10 19:06:00,
2013-01-10 14:07:00,43.1,23.7,30.25,NNE,17,0.0,6.0,46,0.00,,---,0.11,VWS V14.01,2013-01-10 19:07:00,
2013-01-10 14:08:00,43.3,23.9,30.22,North,355,5.0,10.0,46,0.01,,---,0.11,VWS V14.01,2013-01-10 19:08:00,
2013-01-10 14:09:00,43.3,23.4,30.22,ESE,109,6.0,11.0,45,0.01,,---,0.11,VWS V14.01,2013-01-10 19:09:00,
2013-01-10 14:10:00,43.4,23.5,30.22,North,360,3.0,11.0,45,0.01,,---,0.11,VWS V14.01,2013-01-10 19:10:00,
2013-01-10 14:11:00,43.4,23.5,30.22,ENE,61,8.0,12.0,45,0.01,,---,0.11,VWS V14.01,2013-01-10 19:11:00,
2013-01-10 14:12:00,43.0,23.6,30.25,NNW,337,5.0,17.0,46,0.00,,---,0.11,VWS V14.01,2013-01-10 19:12:00,
2013-01-10 14:13:00,43.5,24.1,30.22,NE,40,3.0,7.0,46,0.01,,---,0.11,VWS V14.01,2013-01-10 19:13:00,
2013-01-10 14:14:00,43.5,24.1,30.23,NW,311,5.0,11.0,46,0.01,,---,0.11,VWS V14.01,2013-01-10 19:14:00,
2013-01-10 14:15:00,43.5,23.6,30.23,WNW,283,6.0,13.0,45,0.01,,---,0.11,VWS V14.01,2013-01-10 19:15:00,
2013-01-10 14:16:00,43.4,23.5,30.23,WNW,291,19.0,26.0,45,0.01,,---,0.11,VWS V14.01,2013-01-10 19:16:00,
2013-01-10 14:17:00,43.0,23.6,30.26,NNW,328,6.0,6.0,46,0.00,,---,0.11,VWS V14.01,2013-01-10 19:17:00,
2013-01-10 14:18:00,43.4,23.5,30.23,WNW,298,3.0,12.0,45,0.01,,---,0.11,VWS V14.01,2013-01-10 19:18:00,
2013-01-10 14:19:00,43.3,23.9,30.23,West,271,1.0,6.0,46,0.01,,---,0.11,VWS V14.01,2013-01-10 19:19:00,
2013-01-10 14:20:00,43.3,23.4,30.23,NW,319,11.0,21.0,45,0.01,,---,0.11,VWS V14.01,2013-01-10 19:20:00,
2013-01-10 14:21:00,43.3,23.9,30.24,NNE,15,3.0,19.0,46,0.01,,---,0.11,VWS V14.01,2013-01-10 19:21:00,
2013-01-10 14:22:00,43.3,23.9,30.24,NW,306,5.0,21.0,46,0.01,,---,0.11,VWS V14.01,2013-01-10 19:22:00,
2013-01-10 14:23:00,42.9,23.6,30.26,ENE,72,6.0,7.0,46,0.00,,---,0.11,VWS V14.01,2013-01-10 19:23:00,
2013-01-10 14:24:00,43.2,23.3,30.24,NNW,337,12.0,18.0,45,0.01,,---,0.11,VWS V14.01,2013-01-10 19:24:00,
2013-01-10 14:25:00,43.2,23.3,30.24,North,360,4.0,12.0,45,0.01,,---,0.11,VWS V14.01,2013-01-10 19:25:00,
2013-01-10 14:26:00,43.2,23.8,30.23,North,360,6.0,13.0,46,0.01,,---,0.11,VWS V14.01,2013-01-10 19:26:00,
2013-01-10 14:27:00,43.1,23.7,30.24,NNW,336,3.0,9.0,46,0.01,,---,0.11,VWS V14.01,2013-01-10 19:27:00,
2013-01-10 14:28:00,42.8,23.0,30.26,NNE,17,1.0,6.0,45,0.00,,---,0.11,VWS V14.01,2013-01-10 19:28:00,
2013-01-10 14:29:00,43.2,23.8,30.23,WNW,300,11.0,11.0,46,0.01,,---,0.11,VWS V14.01,2013-01-10 19:29:00,
2013-01-10 14:30:00,43.1,23.2,30.24,NNE,18,3.0,11.0,45,0.01,,---,0.11,VWS V14.01,2013-01-10 19:30:00,
2013-01-10 14:31:00,43.1,23.7,30.24,NW,325,4.0,12.0,46,0.01,,---,0.11,VWS V14.01,2013-01-10 19:31:00,
2013-01-10 14:32:00,43.0,24.2,30.24,NW,314,4.0,8.0,47,0.01,,---,0.11,VWS V14.01,2013-01-10 19:32:00,
2013-01-10 14:33:00,42.7,23.4,30.27,NE,37,5.0,11.0,46,0.00,,---,0.11,VWS V14.01,2013-01-10 19:33:00,
2013-01-10 14:34:00,43.0,23.6,30.24,NNE,14,12.0,14.0,46,0.00,,---,0.11,VWS V14.01,2013-01-10 19:34:00,
2013-01-10 14:35:00,43.0,23.6,30.24,NNW,333,9.0,15.0,46,0.00,,---,0.11,VWS V14.01,2013-01-10 19:35:00,
2013-01-10 14:36:00,43.0,23.6,30.24,NW,306,1.0,11.0,46,0.00,,---,0.11,VWS V14.01,2013-01-10 19:36:00,
2013-01-10 14:38:00,42.6,23.3,30.27,WNW,298,6.0,11.0,46,0.00,,---,0.11,VWS V14.01,2013-01-10 19:38:00,
2013-01-10 14:39:00,43.1,23.7,30.24,North,349,4.0,13.0,46,0.00,,---,0.11,VWS V14.01,2013-01-10 19:39:00,
2013-01-10 14:40:00,43.1,24.3,30.24,NNW,328,2.0,7.0,47,0.00,,---,0.11,VWS V14.01,2013-01-10 19:40:00,
2013-01-10 14:41:00,43.1,24.3,30.24,ESE,104,5.0,7.0,47,0.00,,---,0.11,VWS V14.01,2013-01-10 19:41:00,
2013-01-10 14:42:00,43.1,23.7,30.24,North,5,7.0,16.0,46,0.00,,---,0.11,VWS V14.01,2013-01-10 19:42:00,
2013-01-10 14:43:00,43.1,23.7,30.25,NW,311,10.0,14.0,46,0.00,,---,0.11,VWS V14.01,2013-01-10 19:43:00,
2013-01-10 14:44:00,42.5,23.2,30.27,West,279,11.0,11.0,46,0.00,,---,0.11,VWS V14.01,2013-01-10 19:44:00,
2013-01-10 14:45:00,43.1,23.7,30.24,NNW,327,13.0,18.0,46,0.00,,---,0.11,VWS V14.01,2013-01-10 19:45:00,
2013-01-10 14:46:00,43.1,24.3,30.24,NE,53,5.0,18.0,47,0.00,,---,0.11,VWS V14.01,2013-01-10 19:46:00,
2013-01-10 14:47:00,43.1,23.7,30.24,NNE,12,1.0,5.0,46,0.00,,---,0.11,VWS V14.01,2013-01-10 19:47:00,
2013-01-10 14:48:00,43.1,23.7,30.24,NNW,346,3.0,4.0,46,0.00,,---,0.11,VWS V14.01,2013-01-10 19:48:00,
2013-01-10 14:49:00,42.4,24.6,30.27,NNW,331,12.0,12.0,49,0.00,,---,0.11,VWS V14.01,2013-01-10 19:49:00,
2013-01-10 14:50:00,43.1,23.7,30.25,NW,313,5.0,13.0,46,0.00,,---,0.11,VWS V14.01,2013-01-10 19:50:00,
2013-01-10 14:51:00,43.1,23.7,30.25,NW,315,5.0,11.0,46,0.00,,---,0.11,VWS V14.01,2013-01-10 19:51:00,
2013-01-10 14:52:00,43.1,23.7,30.25,NNE,17,0.0,6.0,46,0.00,,---,0.11,VWS V14.01,2013-01-10 19:52:00,
2013-01-10 14:53:00,43.1,23.7,30.25,NNW,338,2.0,3.0,46,0.00,,---,0.11,VWS V14.01,2013-01-10 19:53:00,
2013-01-10 14:54:00,43.1,24.3,30.25,NW,320,10.0,10.0,47,0.00,,---,0.11,VWS V14.01,2013-01-10 19:54:00,
2013-01-10 14:55:00,42.3,23.5,30.27,NE,49,5.0,10.0,47,0.00,,---,0.11,VWS V14.01,2013-01-10 19:55:00,
2013-01-10 14:56:00,43.0,23.6,30.25,SSW,200,3.0,15.0,46,0.00,,---,0.11,VWS V14.01,2013-01-10 19:56:00,
2013-01-10 14:57:00,43.0,23.6,30.25,NNW,337,5.0,17.0,46,0.00,,---,0.11,VWS V14.01,2013-01-10 19:57:00,
2013-01-10 14:58:00,43.0,23.6,30.25,NE,52,5.0,9.0,46,0.00,,---,0.11,VWS V14.01,2013-01-10 19:58:00,
2013-01-10 14:59:00,43.0,23.6,30.25,NNW,331,3.0,7.0,46,0.00,,---,0.11,VWS V14.01,2013-01-10 19:59:00,
2013-01-10 15:00:00,42.3,23.0,30.27,West,265,4.0,9.0,46,0.00,,---,0.11,VWS V14.01,2013-01-10 20:00:00,
2013-01-10 15:01:00,43.0,23.6,30.25,WNW,293,5.0,9.0,46,0.00,,---,0.11,VWS V14.01,2013-01-10 20:01:00,
2013-01-10 15:02:00,43.0,23.6,30.26,NNW,328,6.0,6.0,46,0.00,,---,0.11,VWS V14.01,2013-01-10 20:02:00,
2013-01-10 15:03:00,43.0,23.6,30.26,NNW,342,6.0,15.0,46,0.00,,---,0.11,VWS V14.01,2013-01-10 20:03:00,
2013-01-10 15:04:00,43.0,24.2,30.26,WNW,299,14.0,14.0,47,0.00,,---,0.11,VWS V14.01,2013-01-10 20:04:00,
2013-01-10 15:05:00,42.2,23.4,30.28,ESE,119,0.0,4.0,47,0.00,,---,0.11,VWS V14.01,2013-01-10 20:05:00,
2013-01-10 15:06:00,42.9,23.0,30.26,WNW,295,8.0,10.0,45,0.00,,---,0.11,VWS V14.01,2013-01-10 20:06:00,
2013-01-10 15:07:00,42.9,23.0,30.26,North,360,6.0,8.0,45,0.00,,---,0.11,VWS V14.01,2013-01-10 20:07:00,
2013-01-10 15:08:00,42.9,23.6,30.26,ENE,72,6.0,7.0,46,0.00,,---,0.11,VWS V14.01,2013-01-10 20:08:00,
2013-01-10 15:09:00,42.9,23.6,30.26,North,355,7.0,8.0,46,0.00,,---,0.11,VWS V14.01,2013-01-10 20:09:00,
2013-01-10 15:10:00,42.1,23.3,30.28,North,360,6.0,12.0,47,0.00,,---,0.11,VWS V14.01,2013-01-10 20:10:00,
2013-01-10 15:11:00,42.8,23.5,30.26,North,355,1.0,6.0,46,0.00,,---,0.11,VWS V14.01,2013-01-10 20:11:00,
2013-01-10 15:12:00,42.8,23.5,30.26,NW,306,6.0,6.0,46,0.00,,---,0.11,VWS V14.01,2013-01-10 20:12:00,
2013-01-10 15:13:00,42.8,23.0,30.26,NNE,17,1.0,6.0,45,0.00,,---,0.11,VWS V14.01,2013-01-10 20:13:00,
2013-01-10 15:14:00,42.8,23.5,30.26,WSW,249,1.0,9.0,46,0.00,,---,0.11,VWS V14.01,2013-01-10 20:14:00,
2013-01-10 15:15:00,41.9,23.2,30.28,NW,315,8.0,12.0,47,0.00,,---,0.11,VWS V14.01,2013-01-10 20:15:00,
2013-01-10 15:16:00,42.7,23.4,30.26,NNE,19,2.0,9.0,46,0.00,,---,0.11,VWS V14.01,2013-01-10 20:16:00,
2013-01-10 15:17:00,42.7,23.4,30.27,NE,46,6.0,13.0,46,0.00,,---,0.11,VWS V14.01,2013-01-10 20:17:00,
2013-01-10 15:18:00,42.7,23.4,30.27,NE,37,5.0,11.0,46,0.00,,---,0.11,VWS V14.01,2013-01-10 20:18:00,
2013-01-10 15:20:00,41.8,23.1,30.29,NW,304,3.0,11.0,47,0.00,,---,0.11,VWS V14.01,2013-01-10 20:20:00,
2013-01-10 15:21:00,42.6,23.3,30.27,West,273,11.0,11.0,46,0.00,,---,0.11,VWS V14.01,2013-01-10 20:21:00,
2013-01-10 15:22:00,42.6,23.3,30.27,NW,310,3.0,14.0,46,0.00,,---,0.11,VWS V14.01,2013-01-10 20:22:00,
2013-01-10 15:25:00,42.6,23.3,30.27,SW,232,6.0,7.0,46,0.00,,---,0.11,VWS V14.01,2013-01-10 20:25:00,
2013-01-10 15:26:00,41.5,23.3,30.30,NNW,338,2.0,9.0,48,0.00,,---,0.11,VWS V14.01,2013-01-10 20:26:00,
2013-01-10 15:28:00,42.5,23.2,30.27,NNW,348,8.0,12.0,46,0.00,,---,0.11,VWS V14.01,2013-01-10 20:28:00,
2013-01-10 15:29:00,42.5,23.2,30.27,West,279,11.0,11.0,46,0.00,,---,0.11,VWS V14.01,2013-01-10 20:29:00,
2013-01-10 15:30:00,42.5,23.2,30.27,West,279,5.0,13.0,46,0.00,,---,0.11,VWS V14.01,2013-01-10 20:30:00,
2013-01-10 15:31:00,42.5,23.2,30.27,NW,313,15.0,15.0,46,0.00,,---,0.11,VWS V14.01,2013-01-10 20:31:00,
2013-01-10 15:32:00,41.4,23.2,30.30,NNW,330,3.0,5.0,48,0.00,,---,0.11,VWS V14.01,2013-01-10 20:32:00,
2013-01-10 15:33:00,42.5,23.2,30.27,NE,45,3.0,17.0,46,0.00,,---,0.11,VWS V14.01,2013-01-10 20:33:00,
2013-01-10 15:35:00,42.4,23.1,30.27,NNE,17,3.0,12.0,46,0.00,,---,0.11,VWS V14.01,2013-01-10 20:35:00,
2013-01-10 15:36:00,42.4,23.1,30.27,NW,308,6.0,13.0,46,0.00,,---,0.11,VWS V14.01,2013-01-10 20:36:00,
2013-01-10 15:37:00,41.2,23.0,30.30,WNW,290,2.0,4.0,48,0.00,,---,0.11,VWS V14.01,2013-01-10 20:37:00,
2013-01-10 15:39:00,42.4,23.1,30.27,NW,325,6.0,10.0,46,0.00,,---,0.11,VWS V14.01,2013-01-10 20:39:00,
2013-01-10 15:40:00,42.3,23.5,30.27,NE,49,5.0,10.0,47,0.00,,---,0.11,VWS V14.01,2013-01-10 20:40:00,
2013-01-10 15:41:00,42.3,23.0,30.27,ENE,74,9.0,13.0,46,0.00,,---,0.11,VWS V14.01,2013-01-10 20:41:00,
2013-01-10 15:43:00,41.1,22.9,30.30,NW,306,2.0,16.0,48,0.00,,---,0.11,VWS V14.01,2013-01-10 20:43:00,
2013-01-10 15:44:00,42.3,23.5,30.27,NW,306,6.0,7.0,47,0.00,,---,0.11,VWS V14.01,2013-01-10 20:44:00,
2013-01-10 15:45:00,42.3,23.0,30.27,West,265,4.0,9.0,46,0.00,,---,0.11,VWS V14.01,2013-01-10 20:45:00,
2013-01-10 15:46:00,42.3,23.5,30.27,NW,314,5.0,6.0,47,0.00,,---,0.11,VWS V14.01,2013-01-10 20:46:00,
2013-01-10 15:47:00,42.2,22.9,30.27,NNE,29,3.0,11.0,46,0.00,,---,0.11,VWS V14.01,2013-01-10 20:47:00,
2013-01-10 15:48:00,40.9,22.7,30.30,NW,317,2.0,7.0,48,0.00,,---,0.11,VWS V14.01,2013-01-10 20:48:00,
2013-01-10 15:49:00,42.2,23.4,30.28,WNW,303,3.0,5.0,47,0.00,,---,0.11,VWS V14.01,2013-01-10 20:49:00,
2013-01-10 15:50:00,42.2,23.4,30.28,ESE,119,0.0,4.0,47,0.00,,---,0.11,VWS V14.01,2013-01-10 20:50:00,
2013-01-10 15:51:00,42.2,23.4,30.27,NNE,28,5.0,10.0,47,0.00,,---,0.11,VWS V14.01,2013-01-10 20:51:00,
2013-01-10 15:52:00,42.1,23.3,30.28,NNE,28,10.0,14.0,47,0.00,,---,0.11,VWS V14.01,2013-01-10 20:52:00,
2013-01-10 15:53:00,40.7,23.0,30.30,NNW,329,4.0,5.0,49,0.00,,---,0.11,VWS V14.01,2013-01-10 20:53:00,
2013-01-10 15:54:00,42.1,23.3,30.28,NE,40,6.0,6.0,47,0.00,,---,0.11,VWS V14.01,2013-01-10 20:54:00,
2013-01-10 15:55:00,42.1,23.3,30.28,North,360,6.0,12.0,47,0.00,,---,0.11,VWS V14.01,2013-01-10 20:55:00,
2013-01-10 15:56:00,42.1,23.8,30.28,NE,55,2.0,6.0,48,0.00,,---,0.11,VWS V14.01,2013-01-10 20:56:00,
2013-01-10 15:57:00,42.0,23.2,30.28,North,360,8.0,10.0,47,0.00,,---,0.11,VWS V14.01,2013-01-10 20:57:00,
2013-01-10 15:58:00,42.0,23.2,30.27,North,9,1.0,10.0,47,0.00,,---,0.11,VWS V14.01,2013-01-10 20:58:00,
2013-01-10 15:59:00,40.6,23.0,30.31,North,9,4.0,8.0,49,0.00,,---,0.11,VWS V14.01,2013-01-10 20:59:00,
2013-01-10 16:00:00,41.9,23.2,30.28,NW,315,8.0,12.0,47,0.00,,---,0.11,VWS V14.01,2013-01-10 21:00:00,
2013-01-10 16:01:00,41.9,23.2,30.28,WNW,302,4.0,16.0,47,0.00,,---,0.11,VWS V14.01,2013-01-10 21:01:00,
2013-01-10 16:02:00,41.9,23.2,30.28,WNW,289,5.0,7.0,47,0.00,,---,0.11,VWS V14.01,2013-01-10 21:02:00,
2013-01-10 16:03:00,41.8,23.1,30.29,North,360,3.0,6.0,47,0.00,,---,0.11,VWS V14.01,2013-01-10 21:03:00,
2013-01-10 16:04:00,40.5,22.9,30.31,NW,325,6.0,11.0,49,0.00,,---,0.11,VWS V14.01,2013-01-10 21:04:00,
2013-01-10 16:05:00,41.8,23.1,30.29,NW,304,3.0,11.0,47,0.00,,---,0.11,VWS V14.01,2013-01-10 21:05:00,
2013-01-10 16:06:00,41.7,23.0,30.29,North,355,3.0,10.0,47,0.00,,---,0.11,VWS V14.01,2013-01-10 21:06:00,
2013-01-10 16:07:00,41.7,23.0,30.29,West,281,3.0,12.0,47,0.00,,---,0.11,VWS V14.01,2013-01-10 21:07:00,
2013-01-10 16:08:00,41.6,23.4,30.29,North,9,1.0,6.0,48,0.00,,---,0.11,VWS V14.01,2013-01-10 21:08:00,
2013-01-10 16:09:00,40.4,23.2,30.32,NE,51,2.0,4.0,50,0.00,,---,0.11,VWS V14.01,2013-01-10 21:09:00,
2013-01-10 16:10:00,41.6,23.4,30.30,WNW,295,4.0,13.0,48,0.00,,---,0.11,VWS V14.01,2013-01-10 21:10:00,
2013-01-10 16:11:00,41.5,23.3,30.30,NNW,338,2.0,9.0,48,0.00,,---,0.11,VWS V14.01,2013-01-10 21:11:00,
2013-01-10 16:13:00,41.5,23.3,30.30,NNW,338,3.0,9.0,48,0.00,,---,0.11,VWS V14.01,2013-01-10 21:13:00,
2013-01-10 16:14:00,40.2,23.1,30.32,East,93,3.0,5.0,50,0.00,,---,0.11,VWS V14.01,2013-01-10 21:14:00,
2013-01-10 16:15:00,41.4,23.2,30.30,WNW,294,4.0,7.0,48,0.00,,---,0.11,VWS V14.01,2013-01-10 21:15:00,
2013-01-10 16:16:00,41.4,23.2,30.30,NW,311,5.0,7.0,48,0.00,,---,0.11,VWS V14.01,2013-01-10 21:16:00,
2013-01-10 16:17:00,41.4,23.2,30.30,NNW,330,3.0,5.0,48,0.00,,---,0.11,VWS V14.01,2013-01-10 21:17:00,
2013-01-10 16:18:00,41.4,23.2,30.30,North,355,3.0,6.0,48,0.00,,---,0.11,VWS V14.01,2013-01-10 21:18:00,
2013-01-10 16:19:00,40.1,23.0,30.33,East,84,5.0,5.0,50,0.00,,---,0.11,VWS V14.01,2013-01-10 21:19:00,
2013-01-10 16:20:00,41.3,23.1,30.30,West,263,6.0,7.0,48,0.00,,---,0.11,VWS V14.01,2013-01-10 21:20:00,
2013-01-10 16:21:00,41.3,23.1,30.30,North,360,4.0,6.0,48,0.00,,---,0.11,VWS V14.01,2013-01-10 21:21:00,
2013-01-10 16:22:00,41.2,23.0,30.30,WNW,290,2.0,4.0,48,0.00,,---,0.11,VWS V14.01,2013-01-10 21:22:00,
2013-01-10 16:23:00,41.2,23.0,30.30,NW,312,3.0,5.0,48,0.00,,---,0.11,VWS V14.01,2013-01-10 21:23:00,
2013-01-10 16:24:00,40.0,22.9,30.33,NNE,14,3.0,5.0,50,0.00,,---,0.11,VWS V14.01,2013-01-10 21:24:00,
2013-01-10 16:25:00,41.2,23.0,30.30,North,5,3.0,18.0,48,0.00,,---,0.11,VWS V14.01,2013-01-10 21:25:00,
2013-01-10 16:26:00,41.2,23.0,30.30,NW,320,4.0,7.0,48,0.00,,---,0.11,VWS V14.01,2013-01-10 21:26:00,
2013-01-10 16:27:00,41.1,22.9,30.30,ENE,71,6.0,14.0,48,0.00,,---,0.11,VWS V14.01,2013-01-10 21:27:00,
2013-01-10 16:28:00,41.1,22.9,30.30,NW,306,2.0,16.0,48,0.00,,---,0.11,VWS V14.01,2013-01-10 21:28:00,
2013-01-10 16:29:00,39.8,22.7,30.34,NNW,330,4.0,6.0,50,0.00,,---,0.11,VWS V14.01,2013-01-10 21:29:00,
2013-01-10 16:30:00,41.0,22.8,30.30,NW,304,4.0,10.0,48,0.00,,---,0.11,VWS V14.01,2013-01-10 21:30:00,
2013-01-10 16:31:00,41.0,22.8,30.30,WSW,250,1.0,4.0,48,0.00,,---,0.11,VWS V14.01,2013-01-10 21:31:00,
2013-01-10 16:32:00,40.9,22.7,30.30,East,82,1.0,13.0,48,0.00,,---,0.11,VWS V14.01,2013-01-10 21:32:00,
2013-01-10 16:33:00,40.9,22.7,30.30,NW,317,2.0,7.0,48,0.00,,---,0.11,VWS V14.01,2013-01-10 21:33:00,
2013-01-10 16:34:00,40.9,22.7,30.30,WSW,244,0.0,4.0,48,0.00,,---,0.11,VWS V14.01,2013-01-10 21:34:00,
2013-01-10 16:35:00,39.8,22.7,30.34,NW,317,5.0,6.0,50,0.00,,---,0.11,VWS V14.01,2013-01-10 21:35:00,
2013-01-10 16:36:00,40.8,23.1,30.30,NNW,338,5.0,5.0,49,0.00,,---,0.11,VWS V14.01,2013-01-10 21:36:00,
2013-01-10 16:37:00,40.8,23.1,30.30,West,272,2.0,7.0,49,0.00,,---,0.11,VWS V14.01,2013-01-10 21:37:00,
2013-01-10 16:38:00,40.7,23.0,30.30,NNW,329,4.0,5.0,49,0.00,,---,0.11,VWS V14.01,2013-01-10 21:38:00,
2013-01-10 16:39:00,40.7,23.0,30.30,NNW,345,3.0,9.0,49,0.00,,---,0.11,VWS V14.01,2013-01-10 21:39:00,
2013-01-10 16:40:00,40.7,23.0,30.30,NW,306,11.0,11.0,49,0.00,,---,0.11,VWS V14.01,2013-01-10 21:40:00,
2013-01-10 16:41:00,39.7,22.6,30.34,NNE,29,0.0,2.0,50,0.00,,---,0.11,VWS V14.01,2013-01-10 21:41:00,
2013-01-10 16:42:00,40.6,23.0,30.31,WNW,288,3.0,16.0,49,0.00,,---,0.11,VWS V14.01,2013-01-10 21:42:00,
2013-01-10 16:43:00,40.6,23.0,30.30,NNE,21,6.0,9.0,49,0.00,,---,0.11,VWS V14.01,2013-01-10 21:43:00,
2013-01-10 16:44:00,40.6,23.0,30.31,North,9,4.0,8.0,49,0.00,,---,0.11,VWS V14.01,2013-01-10 21:44:00,
2013-01-10 16:45:00,40.6,23.0,30.30,South,182,2.0,7.0,49,0.00,,---,0.11,VWS V14.01,2013-01-10 21:45:00,
2013-01-10 16:46:00,39.5,23.4,30.35,NE,34,1.0,1.0,52,0.00,,---,0.11,VWS V14.01,2013-01-10 21:46:00,
2013-01-10 16:47:00,40.5,22.9,30.31,WNW,291,10.0,16.0,49,0.00,,---,0.11,VWS V14.01,2013-01-10 21:47:00,
2013-01-10 16:48:00,40.6,23.0,30.31,North,355,8.0,11.0,49,0.00,,---,0.11,VWS V14.01,2013-01-10 21:48:00,
2013-01-10 16:49:00,40.5,22.9,30.31,NW,325,6.0,11.0,49,0.00,,---,0.11,VWS V14.01,2013-01-10 21:49:00,
2013-01-10 16:50:00,40.5,22.9,30.31,NE,41,2.0,6.0,49,0.00,,---,0.11,VWS V14.01,2013-01-10 21:50:00,
2013-01-10 16:51:00,39.1,23.0,30.34,NW,306,2.0,5.0,52,0.00,,---,0.11,VWS V14.01,2013-01-10 21:51:00,
2013-01-10 16:52:00,40.5,23.3,30.31,NW,304,8.0,11.0,50,0.00,,---,0.11,VWS V14.01,2013-01-10 21:52:00,
2013-01-10 16:53:00,40.4,22.8,30.32,West,269,0.0,8.0,49,0.00,,---,0.11,VWS V14.01,2013-01-10 21:53:00,
2013-01-10 16:54:00,40.4,23.2,30.32,NE,51,2.0,4.0,50,0.00,,---,0.11,VWS V14.01,2013-01-10 21:54:00,
2013-01-10 16:55:00,40.4,23.2,30.32,North,355,1.0,2.0,50,0.00,,---,0.11,VWS V14.01,2013-01-10 21:55:00,
2013-01-10 16:56:00,40.3,23.1,30.32,NW,321,0.0,1.0,50,0.00,,---,0.11,VWS V14.01,2013-01-10 21:56:00,
2013-01-10 16:57:00,39.0,22.9,30.35,NNE,25,7.0,7.0,52,0.00,,---,0.11,VWS V14.01,2013-01-10 21:57:00,
2013-01-10 16:58:00,40.2,23.1,30.32,South,185,0.0,3.0,50,0.00,,---,0.11,VWS V14.01,2013-01-10 21:58:00,
2013-01-10 16:59:00,40.2,23.1,30.32,East,93,3.0,5.0,50,0.00,,---,0.11,VWS V14.01,2013-01-10 21:59:00,
2013-01-10 17:00:00,40.1,23.0,30.32,NNW,333,4.0,10.0,50,0.00,,---,0.11,VWS V14.01,2013-01-10 22:00:00,
2013-01-10 17:02:00,39.0,22.9,30.34,NW,312,1.0,4.0,52,0.00,,---,0.11,VWS V14.01,2013-01-10 22:02:00,
2013-01-10 17:03:00,40.1,23.0,30.33,North,10,4.0,11.0,50,0.00,,---,0.11,VWS V14.01,2013-01-10 22:03:00,
2013-01-10 17:04:00,40.1,23.0,30.33,East,84,5.0,5.0,50,0.00,,---,0.11,VWS V14.01,2013-01-10 22:04:00,
2013-01-10 17:05:00,40.1,23.0,30.33,North,355,4.0,7.0,50,0.00,,---,0.11,VWS V14.01,2013-01-10 22:05:00,
2013-01-10 17:06:00,40.1,23.0,30.33,NNE,22,4.0,5.0,50,0.00,,---,0.11,VWS V14.01,2013-01-10 22:06:00,
2013-01-10 17:07:00,40.1,23.0,30.33,WSW,249,0.0,9.0,50,0.00,,---,0.11,VWS V14.01,2013-01-10 22:07:00,
2013-01-10 17:08:00,38.7,23.1,30.34,West,262,2.0,3.0,53,0.00,,---,0.11,VWS V14.01,2013-01-10 22:08:00,
2013-01-10 17:09:00,40.0,22.9,30.33,NNE,14,3.0,5.0,50,0.00,,---,0.11,VWS V14.01,2013-01-10 22:09:00,
2013-01-10 17:10:00,40.0,22.9,30.34,NW,309,1.0,5.0,50,0.00,,---,0.11,VWS V14.01,2013-01-10 22:10:00,
2013-01-10 17:11:00,39.9,22.8,30.33,WNW,292,5.0,5.0,50,0.00,,---,0.11,VWS V14.01,2013-01-10 22:11:00,
2013-01-10 17:12:00,39.9,22.8,30.33,NW,314,1.0,7.0,50,0.00,,---,0.11,VWS V14.01,2013-01-10 22:12:00,
2013-01-10 17:13:00,38.4,23.2,30.34,SW,231,0.0,5.0,54,0.00,,---,0.11,VWS V14.01,2013-01-10 22:13:00,
2013-01-10 17:14:00,39.8,22.7,30.34,NNW,330,4.0,6.0,50,0.00,,---,0.11,VWS V14.01,2013-01-10 22:14:00,
2013-01-10 17:15:00,39.8,22.7,30.34,NE,40,4.0,5.0,50,0.00,,---,0.11,VWS V14.01,2013-01-10 22:15:00,
2013-01-10 17:16:00,39.8,22.7,30.34,NE,43,5.0,10.0,50,0.00,,---,0.11,VWS V14.01,2013-01-10 22:16:00,
2013-01-10 17:17:00,39.8,22.7,30.34,NNE,32,2.0,5.0,50,0.00,,---,0.11,VWS V14.01,2013-01-10 22:17:00,
2013-01-10 17:18:00,38.2,23.0,30.36,West,280,0.0,2.0,54,0.00,,---,0.11,VWS V14.01,2013-01-10 22:18:00,
2013-01-10 17:19:00,39.8,22.7,30.34,NNW,337,1.0,6.0,50,0.00,,---,0.11,VWS V14.01,2013-01-10 22:19:00,
2013-01-10 17:20:00,39.8,22.7,30.34,NW,317,5.0,6.0,50,0.00,,---,0.11,VWS V14.01,2013-01-10 22:20:00,
2013-01-10 17:21:00,39.8,22.7,30.34,NW,319,2.0,7.0,50,0.00,,---,0.11,VWS V14.01,2013-01-10 22:21:00,
2013-01-10 17:22:00,39.8,22.7,30.34,NW,305,2.0,4.0,50,0.00,,---,0.11,VWS V14.01,2013-01-10 22:22:00,
2013-01-10 17:23:00,39.8,22.7,30.34,NNW,329,3.0,4.0,50,0.00,,---,0.11,VWS V14.01,2013-01-10 22:23:00,
2013-01-10 17:24:00,37.5,22.8,30.37,West,276,4.0,4.0,55,0.00,,---,0.11,VWS V14.01,2013-01-10 22:24:00,
2013-01-10 17:25:00,39.8,22.7,30.34,North,355,0.0,2.0,50,0.00,,---,0.11,VWS V14.01,2013-01-10 22:25:00,
2013-01-10 17:26:00,39.7,22.6,30.34,NNE,29,0.0,2.0,50,0.00,,---,0.11,VWS V14.01,2013-01-10 22:26:00,
2013-01-10 17:27:00,39.7,22.6,30.34,North,349,2.0,2.0,50,0.00,,---,0.11,VWS V14.01,2013-01-10 22:27:00,
2013-01-10 17:28:00,39.6,23.0,30.35,NE,39,2.0,2.0,51,0.00,,---,0.11,VWS V14.01,2013-01-10 22:28:00,
2013-01-10 17:29:00,36.8,23.0,30.37,NW,313,1.0,2.0,57,0.00,,---,0.11,VWS V14.01,2013-01-10 22:29:00,
2013-01-10 17:30:00,39.5,22.9,30.35,NNE,33,0.0,0.0,51,0.00,,---,0.11,VWS V14.01,2013-01-10 22:30:00,
2013-01-10 17:31:00,39.5,23.4,30.35,NE,34,1.0,1.0,52,0.00,,---,0.11,VWS V14.01,2013-01-10 22:31:00,
2013-01-10 17:32:00,39.4,23.2,30.35,NW,320,0.0,2.0,52,0.00,,---,0.11,VWS V14.01,2013-01-10 22:32:00,
2013-01-10 17:33:00,39.3,23.2,30.35,NE,35,1.0,3.0,52,0.00,,---,0.11,VWS V14.01,2013-01-10 22:33:00,
2013-01-10 17:34:00,36.8,23.8,30.37,WNW,298,0.0,2.0,59,0.00,,---,0.11,VWS V14.01,2013-01-10 22:34:00,
2013-01-10 17:35:00,39.1,23.0,30.35,NNW,338,5.0,6.0,52,0.00,,---,0.11,VWS V14.01,2013-01-10 22:35:00,
2013-01-10 17:36:00,39.1,23.0,30.34,NW,306,2.0,5.0,52,0.00,,---,0.11,VWS V14.01,2013-01-10 22:36:00,
2013-01-10 17:37:00,39.0,22.9,30.35,WNW,302,5.0,5.0,52,0.00,,---,0.11,VWS V14.01,2013-01-10 22:37:00,
2013-01-10 17:38:00,39.0,22.9,30.35,NE,35,1.0,6.0,52,0.00,,---,0.11,VWS V14.01,2013-01-10 22:38:00,
2013-01-10 17:39:00,36.6,22.8,30.38,West,260,3.0,7.0,57,0.00,,---,0.11,VWS V14.01,2013-01-10 22:39:00,
2013-01-10 17:40:00,39.0,22.9,30.35,West,273,4.0,5.0,52,0.00,,---,0.11,VWS V14.01,2013-01-10 22:40:00,
2013-01-10 17:42:00,39.0,22.9,30.35,NNW,340,0.0,8.0,52,0.00,,---,0.11,VWS V14.01,2013-01-10 22:42:00,
2013-01-10 17:43:00,39.0,22.9,30.34,NW,311,2.0,5.0,52,0.00,,---,0.11,VWS V14.01,2013-01-10 22:43:00,
2013-01-10 17:44:00,39.0,22.9,30.34,NNW,338,5.0,11.0,52,0.00,,---,0.11,VWS V14.01,2013-01-10 22:44:00,
2013-01-10 17:45:00,37.1,22.9,30.37,NNW,327,0.0,3.0,56,0.00,,---,0.11,VWS V14.01,2013-01-10 22:45:00,
2013-01-10 17:46:00,39.0,22.9,30.34,WNW,296,4.0,4.0,52,0.00,,---,0.11,VWS V14.01,2013-01-10 22:46:00,
2013-01-10 17:47:00,39.0,22.9,30.34,NW,312,1.0,4.0,52,0.00,,---,0.11,VWS V14.01,2013-01-10 22:47:00,
2013-01-10 17:48:00,39.0,22.9,30.34,NNW,327,3.0,4.0,52,0.00,,---,0.11,VWS V14.01,2013-01-10 22:48:00,
2013-01-10 17:49:00,38.9,22.8,30.34,NW,323,0.0,3.0,52,0.00,,---,0.11,VWS V14.01,2013-01-10 22:49:00,
2013-01-10 17:50:00,37.5,23.2,30.37,West,259,15.0,15.0,56,0.00,,---,0.11,VWS V14.01,2013-01-10 22:50:00,
2013-01-10 17:51:00,38.9,22.8,30.33,NNW,338,1.0,3.0,52,0.00,,---,0.11,VWS V14.01,2013-01-10 22:51:00,
2013-01-10 17:53:00,38.7,23.1,30.34,West,262,2.0,3.0,53,0.00,,---,0.11,VWS V14.01,2013-01-10 22:53:00,
2013-01-10 17:54:00,38.7,23.1,30.34,NE,53,0.0,2.0,53,0.00,,---,0.11,VWS V14.01,2013-01-10 22:54:00,
2013-01-10 17:55:00,37.8,23.1,30.37,NNE,16,3.0,6.0,55,0.00,,---,0.11,VWS V14.01,2013-01-10 22:55:00,
2013-01-10 17:56:00,38.5,22.9,30.34,ESE,123,0.0,3.0,53,0.00,,---,0.11,VWS V14.01,2013-01-10 22:56:00,
2013-01-10 17:57:00,38.5,23.3,30.34,West,260,1.0,6.0,54,0.00,,---,0.11,VWS V14.01,2013-01-10 22:57:00,
2013-01-10 17:58:00,38.4,23.2,30.34,SW,231,0.0,5.0,54,0.00,,---,0.11,VWS V14.01,2013-01-10 22:58:00,
2013-01-10 17:59:00,38.4,23.2,30.35,SW,230,0.0,0.0,54,0.00,,---,0.11,VWS V14.01,2013-01-10 22:59:00,
2013-01-10 18:00:00,37.9,23.2,30.37,NE,42,1.0,3.0,55,0.00,,---,0.11,VWS V14.01,2013-01-10 23:00:00,
2013-01-10 18:01:00,38.3,23.1,30.35,ESE,123,0.0,3.0,54,0.00,,---,0.11,VWS V14.01,2013-01-10 23:01:00,
2013-01-10 18:02:00,38.3,23.1,30.36,NE,52,1.0,2.0,54,0.00,,---,0.11,VWS V14.01,2013-01-10 23:02:00,
2013-01-10 18:03:00,38.2,23.0,30.36,West,280,0.0,2.0,54,0.00,,---,0.11,VWS V14.01,2013-01-10 23:03:00,
2013-01-10 18:04:00,38.1,23.4,30.36,West,280,0.0,0.0,55,0.00,,---,0.11,VWS V14.01,2013-01-10 23:04:00,
2013-01-10 18:05:00,37.8,23.1,30.38,WSW,245,1.0,3.0,55,0.00,,---,0.11,VWS V14.01,2013-01-10 23:05:00,
2013-01-10 18:06:00,37.8,24.4,30.36,West,280,0.0,0.0,58,0.00,,---,0.11,VWS V14.01,2013-01-10 23:06:00,
2013-01-10 18:07:00,37.7,23.9,30.36,West,280,0.0,0.0,57,0.00,,---,0.11,VWS V14.01,2013-01-10 23:07:00,
2013-01-10 18:08:00,37.6,23.3,30.37,ENE,65,1.0,2.0,56,0.00,,---,0.11,VWS V14.01,2013-01-10 23:08:00,
2013-01-10 18:09:00,37.5,22.8,30.37,West,276,4.0,4.0,55,0.00,,---,0.11,VWS V14.01,2013-01-10 23:09:00,
2013-01-10 18:10:00,37.3,23.9,30.37,West,276,0.0,4.0,58,0.00,,---,0.11,VWS V14.01,2013-01-10 23:10:00,
2013-01-10 18:11:00,37.5,22.8,30.38,North,355,2.0,4.0,55,0.00,,---,0.11,VWS V14.01,2013-01-10 23:11:00,
2013-01-10 18:12:00,36.9,23.1,30.37,WNW,283,0.0,3.0,57,0.00,,---,0.11,VWS V14.01,2013-01-10 23:12:00,
2013-01-10 18:13:00,36.8,23.4,30.37,SW,225,0.0,0.0,58,0.00,,---,0.11,VWS V14.01,2013-01-10 23:13:00,
2013-01-10 18:14:00,36.8,23.0,30.37,NW,313,1.0,2.0,57,0.00,,---,0.11,VWS V14.01,2013-01-10 23:14:00,
2013-01-10 18:15:00,36.8,23.4,30.37,SSE,166,0.0,4.0,58,0.00,,---,0.11,VWS V14.01,2013-01-10 23:15:00,
2013-01-10 18:16:00,37.6,22.9,30.39,NW,309,6.0,6.0,55,0.00,,---,0.11,VWS V14.01,2013-01-10 23:16:00,
2013-01-10 18:17:00,36.9,23.5,30.37,West,275,1.0,2.0,58,0.00,,---,0.11,VWS V14.01,2013-01-10 23:17:00,
2013-01-10 18:18:00,36.8,23.8,30.37,South,175,2.0,3.0,59,0.00,,---,0.11,VWS V14.01,2013-01-10 23:18:00,
2013-01-10 18:19:00,36.8,23.8,30.37,WNW,298,0.0,2.0,59,0.00,,---,0.11,VWS V14.01,2013-01-10 23:19:00,
2013-01-10 18:20:00,36.7,23.7,30.37,WSW,240,0.0,1.0,59,0.00,,---,0.11,VWS V14.01,2013-01-10 23:20:00,
2013-01-10 18:21:00,37.6,22.9,30.39,NW,314,2.0,5.0,55,0.00,,---,0.11,VWS V14.01,2013-01-10 23:21:00,
2013-01-10 18:22:00,36.6,23.2,30.38,WSW,242,1.0,1.0,58,0.00,,---,0.11,VWS V14.01,2013-01-10 23:22:00,
2013-01-10 18:23:00,36.6,22.8,30.38,West,281,0.0,2.0,57,0.00,,---,0.11,VWS V14.01,2013-01-10 23:23:00,
2013-01-10 18:24:00,36.6,22.8,30.38,West,260,3.0,7.0,57,0.00,,---,0.11,VWS V14.01,2013-01-10 23:24:00,
2013-01-10 18:25:00,36.7,24.5,30.38,SW,236,1.0,4.0,61,0.00,,---,0.11,VWS V14.01,2013-01-10 23:25:00,
2013-01-10 18:26:00,37.5,22.4,30.40,North,360,3.0,4.0,54,0.00,,---,0.11,VWS V14.01,2013-01-10 23:26:00,
2013-01-10 18:27:00,36.9,23.1,30.37,NW,319,1.0,4.0,57,0.00,,---,0.11,VWS V14.01,2013-01-10 23:27:00,
2013-01-10 18:28:00,37.0,23.2,30.37,NW,313,1.0,3.0,57,0.00,,---,0.11,VWS V14.01,2013-01-10 23:28:00,
2013-01-10 18:29:00,37.1,22.9,30.37,WNW,300,0.0,5.0,56,0.00,,---,0.11,VWS V14.01,2013-01-10 23:29:00,
2013-01-10 18:30:00,37.1,22.9,30.37,NNW,327,0.0,3.0,56,0.00,,---,0.11,VWS V14.01,2013-01-10 23:30:00,
2013-01-10 18:31:00,37.2,23.0,30.37,NNE,29,3.0,5.0,56,0.00,,---,0.11,VWS V14.01,2013-01-10 23:31:00,
2013-01-10 18:32:00,37.5,22.8,30.40,NW,311,2.0,6.0,55,0.00,,---,0.11,VWS V14.01,2013-01-10 23:32:00,
2013-01-10 18:33:00,37.3,23.1,30.37,NNW,335,3.0,5.0,56,0.00,,---,0.11,VWS V14.01,2013-01-10 23:33:00,
2013-01-10 18:34:00,37.4,23.1,30.37,NW,323,5.0,6.0,56,0.00,,---,0.11,VWS V14.01,2013-01-10 23:34:00,
2013-01-10 18:35:00,37.5,23.2,30.37,West,259,15.0,15.0,56,0.00,,---,0.11,VWS V14.01,2013-01-10 23:35:00,
2013-01-10 18:36:00,37.6,23.3,30.36,NE,38,3.0,15.0,56,0.00,,---,0.11,VWS V14.01,2013-01-10 23:36:00,
2013-01-10 18:37:00,37.4,22.3,30.40,East,91,3.0,4.0,54,0.00,,---,0.11,VWS V14.01,2013-01-10 23:37:00,
2013-01-10 18:38:00,37.7,23.4,30.37,WNW,288,5.0,9.0,56,0.00,,---,0.11,VWS V14.01,2013-01-10 23:38:00,
2013-01-10 18:39:00,37.7,23.0,30.37,NE,54,2.0,5.0,55,0.00,,---,0.11,VWS V14.01,2013-01-10 23:39:00,
2013-01-10 18:40:00,37.8,23.1,30.37,NNE,16,3.0,6.0,55,0.00,,---,0.11,VWS V14.01,2013-01-10 23:40:00,
2013-01-10 18:41:00,37.8,23.1,30.37,NNE,21,2.0,6.0,55,0.00,,---,0.11,VWS V14.01,2013-01-10 23:41:00,
2013-01-10 18:42:00,37.3,22.2,30.41,WSW,244,4.0,4.0,54,0.00,,---,0.11,VWS V14.01,2013-01-10 23:42:00,
2013-01-10 18:43:00,37.8,23.1,30.37,North,10,0.0,4.0,55,0.00,,---,0.11,VWS V14.01,2013-01-10 23:43:00,
2013-01-10 18:44:00,37.8,23.1,30.37,North,5,3.0,4.0,55,0.00,,---,0.11,VWS V14.01,2013-01-10 23:44:00,
2013-01-10 18:45:00,37.9,23.2,30.37,NE,42,1.0,3.0,55,0.00,,---,0.11,VWS V14.01,2013-01-10 23:45:00,
2013-01-10 18:46:00,37.8,23.1,30.38,NE,37,5.0,5.0,55,0.00,,---,0.11,VWS V14.01,2013-01-10 23:46:00,
2013-01-10 18:47:00,37.8,23.1,30.38,NNE,28,1.0,5.0,55,0.00,,---,0.11,VWS V14.01,2013-01-10 23:47:00,
2013-01-10 18:48:00,37.1,22.4,30.42,North,360,0.0,1.0,55,0.00,,---,0.11,VWS V14.01,2013-01-10 23:48:00,
2013-01-10 18:49:00,37.8,23.1,30.38,ENE,60,2.0,4.0,55,0.00,,---,0.11,VWS V14.01,2013-01-10 23:49:00,
2013-01-10 18:50:00,37.8,23.1,30.38,WSW,245,1.0,3.0,55,0.00,,---,0.11,VWS V14.01,2013-01-10 23:50:00,
2013-01-10 18:51:00,37.7,23.0,30.38,NNE,32,1.0,1.0,55,0.00,,---,0.11,VWS V14.01,2013-01-10 23:51:00,
2013-01-10 18:52:00,37.7,23.0,30.38,NNE,29,0.0,2.0,55,0.00,,---,0.11,VWS V14.01,2013-01-10 23:52:00,
2013-01-10 18:53:00,36.8,22.6,30.42,NNE,21,0.0,0.0,56,0.00,,---,0.11,VWS V14.01,2013-01-10 23:53:00,
2013-01-10 18:54:00,37.6,22.9,30.38,NNW,348,0.0,3.0,55,0.00,,---,0.11,VWS V14.01,2013-01-10 23:54:00,
2013-01-10 18:55:00,37.5,22.8,30.38,North,355,2.0,4.0,55,0.00,,---,0.11,VWS V14.01,2013-01-10 23:55:00,
2013-01-10 18:56:00,37.6,22.9,30.38,NNW,343,4.0,4.0,55,0.00,,---,0.11,VWS V14.01,2013-01-10 23:56:00,
2013-01-10 18:57:00,37.5,22.8,30.39,NNE,19,1.0,4.0,55,0.00,,---,0.11,VWS V14.01,2013-01-10 23:57:00,
2013-01-10 18:58:00,37.5,22.8,30.39,NNE,28,2.0,4.0,55,0.00,,---,0.11,VWS V14.01,2013-01-10 23:58:00,
2013-01-10 18:59:00,35.9,22.2,30.41,NW,325,1.0,3.0,57,0.00,,---,0.11,VWS V14.01,2013-01-10 23:59:00,
2013-01-10 19:00:00,37.6,22.9,30.39,NW,318,1.0,4.0,55,0.00,,---,0.11,VWS V14.01,2013-01-11 00:00:00,
2013-01-10 19:01:00,37.6,22.9,30.39,NW,309,6.0,6.0,55,0.00,,---,0.11,VWS V14.01,2013-01-11 00:01:00,
2013-01-10 19:02:00,37.6,22.9,30.39,North,5,0.0,6.0,55,0.00,,---,0.11,VWS V14.01,2013-01-11 00:02:00,
2013-01-10 19:03:00,37.5,22.8,30.39,NNW,344,1.0,2.0,55,0.00,,---,0.11,VWS V14.01,2013-01-11 00:03:00,
2013-01-10 19:04:00,37.5,22.8,30.39,WNW,286,6.0,7.0,55,0.00,,---,0.11,VWS V14.01,2013-01-11 00:04:00,
2013-01-10 19:05:00,35.1,21.8,30.41,North,11,0.0,1.0,58,0.00,,---,0.11,VWS V14.01,2013-01-11 00:05:00,
2013-01-10 19:06:00,37.6,22.9,30.39,NW,314,2.0,5.0,55,0.00,,---,0.11,VWS V14.01,2013-01-11 00:06:00,
2013-01-10 19:07:00,37.6,22.5,30.39,WNW,298,1.0,5.0,54,0.00,,---,0.11,VWS V14.01,2013-01-11 00:07:00,
2013-01-10 19:08:00,37.5,22.8,30.39,WNW,301,5.0,5.0,55,0.00,,---,0.11,VWS V14.01,2013-01-11 00:08:00,
2013-01-10 19:09:00,37.5,22.4,30.39,NW,319,7.0,7.0,54,0.00,,---,0.11,VWS V14.01,2013-01-11 00:09:00,
2013-01-10 19:10:00,34.7,21.9,30.41,NE,40,1.0,1.0,59,0.00,,---,0.11,VWS V14.01,2013-01-11 00:10:00,
2013-01-10 19:11:00,37.5,22.4,30.40,North,360,3.0,4.0,54,0.00,,---,0.11,VWS V14.01,2013-01-11 00:11:00,
2013-01-10 19:12:00,37.5,22.4,30.39,NW,312,2.0,4.0,54,0.00,,---,0.11,VWS V14.01,2013-01-11 00:12:00,
2013-01-10 19:13:00,37.5,22.4,30.40,NW,309,11.0,11.0,54,0.00,,---,0.11,VWS V14.01,2013-01-11 00:13:00,
2013-01-10 19:14:00,37.5,22.4,30.40,NW,315,2.0,11.0,54,0.00,,---,0.11,VWS V14.01,2013-01-11 00:14:00,
2013-01-10 19:15:00,34.8,22.3,30.41,NNW,341,0.0,1.0,60,0.00,,---,0.11,VWS V14.01,2013-01-11 00:15:00,
2013-01-10 19:16:00,37.5,22.4,30.40,NNE,16,4.0,4.0,54,0.00,,---,0.11,VWS V14.01,2013-01-11 00:16:00,
2013-01-10 19:17:00,37.5,22.8,30.40,NW,311,2.0,6.0,55,0.00,,---,0.11,VWS V14.01,2013-01-11 00:17:00,
2013-01-10 19:18:00,37.5,22.4,30.40,East,94,3.0,9.0,54,0.00,,---,0.11,VWS V14.01,2013-01-11 00:18:00,
2013-01-10 19:19:00,37.4,22.7,30.40,ENE,77,4.0,5.0,55,0.00,,---,0.11,VWS V14.01,2013-01-11 00:19:00,
2013-01-10 19:20:00,34.2,22.9,30.41,NNW,347,0.0,0.0,63,0.00,,---,0.11,VWS V14.01,2013-01-11 00:20:00,
2013-01-10 19:21:00,37.4,22.3,30.40,ENE,68,4.0,6.0,54,0.00,,---,0.11,VWS V14.01,2013-01-11 00:21:00,
2013-01-10 19:22:00,37.4,22.3,30.40,East,91,3.0,4.0,54,0.00,,---,0.11,VWS V14.01,2013-01-11 00:22:00,
2013-01-10 19:23:00,37.4,22.3,30.40,NNE,26,0.0,3.0,54,0.00,,---,0.11,VWS V14.01,2013-01-11 00:23:00,
2013-01-10 19:24:00,37.4,22.3,30.40,ENE,76,1.0,3.0,54,0.00,,---,0.11,VWS V14.01,2013-01-11 00:24:00,
2013-01-10 19:25:00,37.4,24.0,30.40,North,5,1.0,3.0,58,0.00,,---,0.11,VWS V14.01,2013-01-11 00:25:00,
2013-01-10 19:26:00,32.7,22.2,30.42,NNW,346,0.0,0.0,65,0.00,,---,0.11,VWS V14.01,2013-01-11 00:26:00,
2013-01-10 19:27:00,37.3,22.2,30.41,WSW,244,4.0,4.0,54,0.00,,---,0.11,VWS V14.01,2013-01-11 00:27:00,
2013-01-10 19:28:00,37.3,22.6,30.41,SE,132,1.0,6.0,55,0.00,,---,0.11,VWS V14.01,2013-01-11 00:28:00,
2013-01-10 19:29:00,37.2,22.5,30.41,NNE,23,1.0,1.0,55,0.00,,---,0.11,VWS V14.01,2013-01-11 00:29:00,
2013-01-10 19:30:00,37.2,22.5,30.41,North,5,2.0,4.0,55,0.00,,---,0.11,VWS V14.01,2013-01-11 00:30:00,
2013-01-10 19:31:00,32.1,22.0,30.42,SSW,198,0.0,0.0,66,0.00,,---,0.11,VWS V14.01,2013-01-11 00:31:00,
2013-01-10 19:32:00,37.1,22.4,30.42,NW,310,0.0,3.0,55,0.00,,---,0.11,VWS V14.01,2013-01-11 00:32:00,
2013-01-10 19:33:00,37.1,22.4,30.42,North,360,0.0,1.0,55,0.00,,---,0.11,VWS V14.01,2013-01-11 00:33:00,
2013-01-10 19:34:00,37.0,22.4,30.42,North,355,1.0,1.0,55,0.00,,---,0.11,VWS V14.01,2013-01-11 00:34:00,
2013-01-10 19:35:00,37.0,22.4,30.42,NNE,21,2.0,2.0,55,0.00,,---,0.11,VWS V14.01,2013-01-11 00:35:00,
2013-01-10 19:36:00,32.2,21.4,30.43,NE,51,0.0,2.0,64,0.00,,---,0.11,VWS V14.01,2013-01-11 00:36:00,
2013-01-10 19:37:00,36.9,22.3,30.42,NNE,21,0.0,0.0,55,0.00,,---,0.11,VWS V14.01,2013-01-11 00:37:00,
2013-01-10 19:38:00,36.8,22.6,30.42,NNE,21,0.0,0.0,56,0.00,,---,0.11,VWS V14.01,2013-01-11 00:38:00,
2013-01-10 19:39:00,36.7,22.5,30.41,NNE,21,0.0,0.0,56,0.00,,---,0.11,VWS V14.01,2013-01-11 00:39:00,
2013-01-10 19:40:00,36.6,22.8,30.41,NNE,21,0.0,0.0,57,0.00,,---,0.11,VWS V14.01,2013-01-11 00:40:00,
2013-01-10 19:41:00,32.7,21.1,30.43,NNW,345,1.0,6.0,62,0.00,,---,0.11,VWS V14.01,2013-01-11 00:41:00,
2013-01-10 19:42:00,36.2,22.9,30.41,NE,52,1.0,2.0,58,0.00,,---,0.11,VWS V14.01,2013-01-11 00:42:00,
2013-01-10 19:43:00,36.0,22.3,30.41,NW,325,2.0,3.0,57,0.00,,---,0.11,VWS V14.01,2013-01-11 00:43:00,
2013-01-10 19:44:00,35.9,22.2,30.41,NW,325,1.0,3.0,57,0.00,,---,0.11,VWS V14.01,2013-01-11 00:44:00,
2013-01-10 19:45:00,35.6,23.5,30.41,NW,325,0.0,1.0,61,0.00,,---,0.11,VWS V14.01,2013-01-11 00:45:00,
2013-01-10 19:46:00,34.3,21.9,30.42,NE,34,3.0,5.0,60,0.00,,---,0.11,VWS V14.01,2013-01-11 00:46:00,
2013-01-10 19:47:00,35.3,22.4,30.41,NW,325,0.0,0.0,59,0.00,,---,0.11,VWS V14.01,2013-01-11 00:47:00,
2013-01-10 19:48:00,35.2,22.3,30.41,NW,325,0.0,0.0,59,0.00,,---,0.11,VWS V14.01,2013-01-11 00:48:00,
2013-01-10 19:49:00,35.1,21.8,30.41,North,11,0.0,1.0,58,0.00,,---,0.11,VWS V14.01,2013-01-11 00:49:00,
2013-01-10 19:50:00,35.1,21.8,30.41,North,11,0.0,1.0,58,0.00,,---,0.11,VWS V14.01,2013-01-11 00:50:00,
2013-01-10 19:51:00,35.0,22.1,30.41,North,10,0.0,0.0,59,0.00,,---,0.11,VWS V14.01,2013-01-11 00:51:00,
2013-01-10 19:52:00,35.0,21.7,30.42,ENE,71,4.0,5.0,58,0.00,,---,0.11,VWS V14.01,2013-01-11 00:52:00,
2013-01-10 19:53:00,34.9,22.0,30.41,ENE,62,1.0,2.0,59,0.00,,---,0.11,VWS V14.01,2013-01-11 00:53:00,
2013-01-10 19:54:00,34.8,22.0,30.41,NW,315,0.0,2.0,59,0.00,,---,0.11,VWS V14.01,2013-01-11 00:54:00,
2013-01-10 19:55:00,34.7,21.9,30.41,NE,40,1.0,1.0,59,0.00,,---,0.11,VWS V14.01,2013-01-11 00:55:00,
2013-01-10 19:56:00,34.7,21.9,30.41,ENE,63,1.0,2.0,59,0.00,,---,0.11,VWS V14.01,2013-01-11 00:56:00,
2013-01-10 19:57:00,35.4,21.7,30.43,NE,54,2.0,3.0,57,0.00,,---,0.11,VWS V14.01,2013-01-11 00:57:00,
2013-01-10 19:58:00,34.7,22.2,30.41,ENE,63,0.0,0.0,60,0.00,,---,0.11,VWS V14.01,2013-01-11 00:58:00,
2013-01-10 19:59:00,34.7,21.9,30.41,NNW,334,0.0,3.0,59,0.00,,---,0.11,VWS V14.01,2013-01-11 00:59:00,
2013-01-10 20:00:00,34.8,22.3,30.41,NNW,341,0.0,1.0,60,0.00,,---,0.11,VWS V14.01,2013-01-11 01:00:00,
2013-01-10 20:01:00,34.8,22.3,30.41,North,349,0.0,1.0,60,0.00,,---,0.11,VWS V14.01,2013-01-11 01:01:00,
2013-01-10 20:02:00,35.2,22.3,30.43,NE,34,0.0,2.0,59,0.00,,---,0.11,VWS V14.01,2013-01-11 01:02:00,
2013-01-10 20:03:00,34.4,22.7,30.40,North,349,0.0,0.0,62,0.00,,---,0.11,VWS V14.01,2013-01-11 01:03:00,
2013-01-10 20:04:00,34.4,23.1,30.41,North,349,0.0,0.0,63,0.00,,---,0.11,VWS V14.01,2013-01-11 01:04:00,
2013-01-10 20:05:00,34.2,22.9,30.41,NNW,347,0.0,0.0,63,0.00,,---,0.11,VWS V14.01,2013-01-11 01:05:00,
2013-01-10 20:06:00,33.9,22.6,30.41,NNW,345,0.0,1.0,63,0.00,,---,0.11,VWS V14.01,2013-01-11 01:06:00,
2013-01-10 20:07:00,33.6,22.4,30.41,NNW,345,0.0,1.0,63,0.00,,---,0.11,VWS V14.01,2013-01-11 01:07:00,
2013-01-10 20:08:00,34.0,22.7,30.43,NNE,30,0.0,0.0,63,0.00,,---,0.11,VWS V14.01,2013-01-11 01:08:00,
2013-01-10 20:09:00,33.2,23.1,30.42,NNW,346,0.0,0.0,66,0.00,,---,0.11,VWS V14.01,2013-01-11 01:09:00,
2013-01-10 20:10:00,33.0,22.9,30.42,NNW,346,0.0,0.0,66,0.00,,---,0.11,VWS V14.01,2013-01-11 01:10:00,
2013-01-10 20:11:00,32.7,22.2,30.42,NNW,346,0.0,0.0,65,0.00,,---,0.11,VWS V14.01,2013-01-11 01:11:00,
2013-01-10 20:12:00,32.5,22.4,30.42,NNW,346,0.0,0.0,66,0.00,,---,0.11,VWS V14.01,2013-01-11 01:12:00,
2013-01-10 20:13:00,32.8,22.3,30.44,NNE,30,0.0,0.0,65,0.00,,---,0.11,VWS V14.01,2013-01-11 01:13:00,
2013-01-10 20:14:00,32.2,21.8,30.42,NNW,345,0.0,0.0,65,0.00,,---,0.11,VWS V14.01,2013-01-11 01:14:00,
2013-01-10 20:15:00,32.1,21.7,30.42,SSW,198,0.0,2.0,65,0.00,,---,0.11,VWS V14.01,2013-01-11 01:15:00,
2013-01-10 20:16:00,32.1,22.0,30.42,SSW,198,0.0,0.0,66,0.00,,---,0.11,VWS V14.01,2013-01-11 01:16:00,
2013-01-10 20:17:00,32.0,21.9,30.42,SSW,204,0.0,0.0,66,0.00,,---,0.11,VWS V14.01,2013-01-11 01:17:00,
2013-01-10 20:18:00,31.9,22.5,30.44,NNE,30,0.0,0.0,68,0.00,,---,0.11,VWS V14.01,2013-01-11 01:18:00,
2013-01-10 20:19:00,32.1,21.3,30.42,NW,311,0.0,1.0,64,0.00,,---,0.11,VWS V14.01,2013-01-11 01:19:00,
2013-01-10 20:20:00,32.2,21.8,30.43,NW,311,0.0,0.0,65,0.00,,---,0.11,VWS V14.01,2013-01-11 01:20:00,
2013-01-10 20:21:00,32.2,21.4,30.43,NE,51,0.0,2.0,64,0.00,,---,0.11,VWS V14.01,2013-01-11 01:21:00,
2013-01-10 20:22:00,32.4,21.6,30.43,NNE,22,0.0,1.0,64,0.00,,---,0.11,VWS V14.01,2013-01-11 01:22:00,
2013-01-10 20:23:00,31.0,21.7,30.45,NNE,30,0.0,0.0,68,0.00,,---,0.11,VWS V14.01,2013-01-11 01:23:00,
2013-01-10 20:24:00,32.5,21.7,30.43,North,11,1.0,1.0,64,0.00,,---,0.11,VWS V14.01,2013-01-11 01:24:00,
2013-01-10 20:25:00,32.6,21.8,30.43,North,11,0.0,1.0,64,0.00,,---,0.11,VWS V14.01,2013-01-11 01:25:00,
2013-01-10 20:26:00,32.7,21.1,30.43,NNW,345,1.0,6.0,62,0.00,,---,0.11,VWS V14.01,2013-01-11 01:26:00,
2013-01-10 20:27:00,33.1,21.5,30.43,NW,325,2.0,5.0,62,0.00,,---,0.11,VWS V14.01,2013-01-11 01:27:00,
2013-01-10 20:28:00,30.4,21.5,30.44,NNE,30,0.0,0.0,69,0.00,,---,0.11,VWS V14.01,2013-01-11 01:28:00,
2013-01-10 20:29:00,33.7,21.7,30.42,NE,36,2.0,3.0,61,0.00,,---,0.11,VWS V14.01,2013-01-11 01:29:00,
2013-01-10 20:30:00,34.0,22.0,30.42,NNW,344,4.0,4.0,61,0.00,,---,0.11,VWS V14.01,2013-01-11 01:30:00,
2013-01-10 20:31:00,34.3,21.9,30.42,NE,34,3.0,5.0,60,0.00,,---,0.11,VWS V14.01,2013-01-11 01:31:00,
2013-01-10 20:32:00,34.4,22.0,30.42,WNW,303,4.0,6.0,60,0.00,,---,0.11,VWS V14.01,2013-01-11 01:32:00,
2013-01-10 20:33:00,34.6,21.8,30.42,NNE,28,4.0,6.0,59,0.00,,---,0.11,VWS V14.01,2013-01-11 01:33:00,
2013-01-10 20:34:00,29.9,21.0,30.44,NNE,30,0.0,0.0,69,0.00,,---,0.11,VWS V14.01,2013-01-11 01:34:00,
2013-01-10 20:35:00,34.9,22.0,30.42,NE,34,3.0,3.0,59,0.00,,---,0.11,VWS V14.01,2013-01-11 01:35:00,
2013-01-10 20:36:00,35.0,22.1,30.42,North,350,1.0,4.0,59,0.00,,---,0.11,VWS V14.01,2013-01-11 01:36:00,
2013-01-10 20:37:00,35.0,21.7,30.42,ENE,71,4.0,5.0,58,0.00,,---,0.11,VWS V14.01,2013-01-11 01:37:00,
2013-01-10 20:38:00,35.1,21.8,30.43,NW,323,3.0,5.0,58,0.00,,---,0.11,VWS V14.01,2013-01-11 01:38:00,
2013-01-10 20:39:00,29.6,21.4,30.45,NNE,30,0.0,0.0,71,0.00,,---,0.11,VWS V14.01,2013-01-11 01:39:00,
2013-01-10 20:40:00,35.3,22.0,30.43,NNE,21,0.0,4.0,58,0.00,,---,0.11,VWS V14.01,2013-01-11 01:40:00,
2013-01-10 20:41:00,35.3,22.0,30.43,NE,34,1.0,4.0,58,0.00,,---,0.11,VWS V14.01,2013-01-11 01:41:00,
2013-01-10 20:42:00,35.4,21.7,30.43,NE,54,2.0,3.0,57,0.00,,---,0.11,VWS V14.01,2013-01-11 01:42:00,
2013-01-10 20:43:00,35.4,22.1,30.43,ENE,61,1.0,2.0,58,0.00,,---,0.11,VWS V14.01,2013-01-11 01:43:00,
2013-01-10 20:44:00,29.3,21.4,30.45,NNW,332,0.0,1.0,72,0.00,,---,0.11,VWS V14.01,2013-01-11 01:44:00,
2013-01-10 20:45:00,35.4,22.1,30.43,NE,42,0.0,1.0,58,0.00,,---,0.11,VWS V14.01,2013-01-11 01:45:00,
2013-01-10 20:46:00,35.3,22.0,30.43,NNE,33,0.0,1.0,58,0.00,,---,0.11,VWS V14.01,2013-01-11 01:46:00,
2013-01-10 20:47:00,35.2,22.3,30.43,NE,34,0.0,2.0,59,0.00,,---,0.11,VWS V14.01,2013-01-11 01:47:00,
2013-01-10 20:48:00,35.1,22.6,30.43,NNE,30,0.0,2.0,60,0.00,,---,0.11,VWS V14.01,2013-01-11 01:48:00,
2013-01-10 20:49:00,29.2,21.0,30.45,NNW,332,0.0,0.0,71,0.00,,---,0.11,VWS V14.01,2013-01-11 01:49:00,
2013-01-10 20:50:00,34.8,22.3,30.43,NNE,30,0.0,1.0,60,0.00,,---,0.11,VWS V14.01,2013-01-11 01:50:00,
2013-01-10 20:51:00,34.4,23.1,30.43,NNE,30,0.0,1.0,63,0.00,,---,0.11,VWS V14.01,2013-01-11 01:51:00,
2013-01-10 20:52:00,34.4,23.1,30.43,NNE,30,0.0,0.0,63,0.00,,---,0.11,VWS V14.01,2013-01-11 01:52:00,
2013-01-10 20:53:00,34.0,22.7,30.43,NNE,30,0.0,0.0,63,0.00,,---,0.11,VWS V14.01,2013-01-11 01:53:00,
2013-01-10 20:54:00,33.7,22.5,30.43,NNE,30,0.0,0.0,63,0.00,,---,0.11,VWS V14.01,2013-01-11 01:54:00,
2013-01-10 20:55:00,29.7,20.8,30.46,NNW,331,2.0,2.0,69,0.00,,---,0.11,VWS V14.01,2013-01-11 01:55:00,
2013-01-10 20:56:00,33.2,22.7,30.44,NNE,30,0.0,0.0,65,0.00,,---,0.11,VWS V14.01,2013-01-11 01:56:00,
2013-01-10 20:57:00,32.9,22.4,30.44,NNE,30,0.0,0.0,65,0.00,,---,0.11,VWS V14.01,2013-01-11 01:57:00,
2013-01-10 20:58:00,32.8,22.3,30.44,NNE,30,0.0,0.0,65,0.00,,---,0.11,VWS V14.01,2013-01-11 01:58:00,
2013-01-10 20:59:00,32.6,22.1,30.44,NNE,30,0.0,0.0,65,0.00,,---,0.11,VWS V14.01,2013-01-11 01:59:00,
2013-01-10 21:00:00,30.6,21.3,30.45,NNW,340,0.0,1.0,68,0.00,,---,0.11,VWS V14.01,2013-01-11 02:00:00,
2013-01-10 21:01:00,32.2,22.1,30.44,NNE,30,0.0,0.0,66,0.00,,---,0.11,VWS V14.01,2013-01-11 02:01:00,
2013-01-10 21:02:00,32.1,22.8,30.44,NNE,30,0.0,0.0,68,0.00,,---,0.11,VWS V14.01,2013-01-11 02:02:00,
2013-01-10 21:03:00,31.9,22.5,30.44,NNE,30,0.0,0.0,68,0.00,,---,0.11,VWS V14.01,2013-01-11 02:03:00,
2013-01-10 21:04:00,31.7,22.7,30.45,NNE,30,0.0,0.0,69,0.00,,---,0.11,VWS V14.01,2013-01-11 02:04:00,
2013-01-10 21:05:00,31.1,21.4,30.46,NNW,334,0.0,0.0,67,0.00,,---,0.11,VWS V14.01,2013-01-11 02:05:00,
2013-01-10 21:06:00,31.3,22.3,30.45,NNE,30,0.0,0.0,69,0.00,,---,0.11,VWS V14.01,2013-01-11 02:06:00,
2013-01-10 21:07:00,31.1,21.8,30.45,NNE,30,0.0,0.0,68,0.00,,---,0.11,VWS V14.01,2013-01-11 02:07:00,
2013-01-10 21:08:00,31.0,21.7,30.45,NNE,30,0.0,0.0,68,0.00,,---,0.11,VWS V14.01,2013-01-11 02:08:00,
2013-01-10 21:09:00,30.8,21.5,30.44,NNE,30,0.0,0.0,68,0.00,,---,0.11,VWS V14.01,2013-01-11 02:09:00,
2013-01-10 21:10:00,30.7,21.4,30.44,NNE,30,0.0,0.0,68,0.00,,---,0.11,VWS V14.01,2013-01-11 02:10:00,
2013-01-10 21:11:00,31.5,21.1,30.45,NW,323,3.0,5.0,65,0.00,,---,0.11,VWS V14.01,2013-01-11 02:11:00,
2013-01-10 21:12:00,30.5,21.2,30.45,NNE,30,0.0,0.0,68,0.00,,---,0.11,VWS V14.01,2013-01-11 02:12:00,
2013-01-10 21:13:00,30.4,21.5,30.44,NNE,30,0.0,0.0,69,0.00,,---,0.11,VWS V14.01,2013-01-11 02:13:00,
2013-01-10 21:14:00,30.3,21.7,30.45,NNE,30,0.0,0.0,70,0.00,,---,0.11,VWS V14.01,2013-01-11 02:14:00,
2013-01-10 21:15:00,30.2,21.3,30.45,NNE,30,0.0,0.0,69,0.00,,---,0.11,VWS V14.01,2013-01-11 02:15:00,
2013-01-10 21:16:00,30.1,21.2,30.44,NNE,30,0.0,0.0,69,0.00,,---,0.11,VWS V14.01,2013-01-11 02:16:00,
2013-01-10 21:17:00,32.6,21.0,30.45,NNW,327,2.0,3.0,62,0.00,,---,0.11,VWS V14.01,2013-01-11 02:17:00,
2013-01-10 21:18:00,30.0,21.1,30.44,NNE,30,0.0,0.0,69,0.00,,---,0.11,VWS V14.01,2013-01-11 02:18:00,
2013-01-10 21:19:00,29.9,21.0,30.44,NNE,30,0.0,0.0,69,0.00,,---,0.11,VWS V14.01,2013-01-11 02:19:00,
2013-01-10 21:20:00,29.8,21.2,30.44,NNE,30,0.0,0.0,70,0.00,,---,0.11,VWS V14.01,2013-01-11 02:20:00,
2013-01-10 21:21:00,29.8,21.2,30.44,NNE,30,0.0,0.0,70,0.00,,---,0.11,VWS V14.01,2013-01-11 02:21:00,
2013-01-10 21:22:00,29.7,20.8,30.44,NNE,30,0.0,0.0,69,0.00,,---,0.11,VWS V14.01,2013-01-11 02:22:00,
2013-01-10 21:23:00,33.0,21.0,30.45,NNW,348,1.0,1.0,61,0.00,,---,0.11,VWS V14.01,2013-01-11 02:23:00,
2013-01-10 21:24:00,29.6,21.4,30.45,NNE,30,0.0,0.0,71,0.00,,---,0.11,VWS V14.01,2013-01-11 02:24:00,
2013-01-10 21:25:00,29.5,21.3,30.45,NNE,30,0.0,0.0,71,0.00,,---,0.11,VWS V14.01,2013-01-11 02:25:00,
2013-01-10 21:26:00,29.5,21.3,30.45,NNE,30,0.0,0.0,71,0.00,,---,0.11,VWS V14.01,2013-01-11 02:26:00,
2013-01-10 21:27:00,29.4,21.5,30.45,NE,35,0.0,0.0,72,0.00,,---,0.11,VWS V14.01,2013-01-11 02:27:00,
2013-01-10 21:28:00,32.9,21.3,30.45,NNW,327,0.0,0.0,62,0.00,,---,0.11,VWS V14.01,2013-01-11 02:28:00,
2013-01-10 21:29:00,29.3,21.4,30.45,NNW,332,0.0,1.0,72,0.00,,---,0.11,VWS V14.01,2013-01-11 02:29:00,
2013-01-10 21:30:00,29.2,21.0,30.45,NNW,331,0.0,0.0,71,0.00,,---,0.11,VWS V14.01,2013-01-11 02:30:00,
2013-01-10 21:31:00,29.2,21.0,30.45,NNW,332,0.0,0.0,71,0.00,,---,0.11,VWS V14.01,2013-01-11 02:31:00,
2013-01-10 21:32:00,29.2,21.0,30.45,NNW,332,0.0,0.0,71,0.00,,---,0.11,VWS V14.01,2013-01-11 02:32:00,
2013-01-10 21:33:00,29.2,21.0,30.45,NNW,332,0.0,0.0,71,0.00,,---,0.11,VWS V14.01,2013-01-11 02:33:00,
2013-01-10 21:34:00,32.3,20.8,30.46,NNW,339,0.0,0.0,62,0.00,,---,0.11,VWS V14.01,2013-01-11 02:34:00,
2013-01-10 21:35:00,29.2,21.0,30.45,NNW,332,0.0,0.0,71,0.00,,---,0.11,VWS V14.01,2013-01-11 02:35:00,
2013-01-10 21:36:00,29.2,20.6,30.45,North,360,0.0,1.0,70,0.00,,---,0.11,VWS V14.01,2013-01-11 02:36:00,
2013-01-10 21:37:00,29.2,20.6,30.45,North,5,0.0,0.0,70,0.00,,---,0.11,VWS V14.01,2013-01-11 02:37:00,
2013-01-10 21:38:00,29.3,20.8,30.45,North,5,0.0,0.0,70,0.00,,---,0.11,VWS V14.01,2013-01-11 02:38:00,
2013-01-10 21:39:00,29.4,20.5,30.45,ENE,70,1.0,3.0,69,0.00,,---,0.11,VWS V14.01,2013-01-11 02:39:00,
2013-01-10 21:40:00,32.1,20.6,30.47,WNW,289,0.0,0.0,62,0.00,,---,0.11,VWS V14.01,2013-01-11 02:40:00,
2013-01-10 21:41:00,29.8,21.6,30.46,NNE,29,0.0,2.0,71,0.00,,---,0.11,VWS V14.01,2013-01-11 02:41:00,
2013-01-10 21:42:00,30.0,20.7,30.45,North,355,2.0,2.0,68,0.00,,---,0.11,VWS V14.01,2013-01-11 02:42:00,
2013-01-10 21:43:00,30.2,20.9,30.45,North,355,0.0,2.0,68,0.00,,---,0.11,VWS V14.01,2013-01-11 02:43:00,
2013-01-10 21:44:00,30.4,20.8,30.45,NNW,332,0.0,2.0,67,0.00,,---,0.11,VWS V14.01,2013-01-11 02:44:00,
2013-01-10 21:45:00,30.6,21.3,30.45,NNW,340,0.0,1.0,68,0.00,,---,0.11,VWS V14.01,2013-01-11 02:45:00,
2013-01-10 21:46:00,31.5,21.1,30.48,WNW,289,0.0,0.0,65,0.00,,---,0.11,VWS V14.01,2013-01-11 02:46:00,
2013-01-10 21:47:00,30.8,21.5,30.45,NE,40,1.0,1.0,68,0.00,,---,0.11,VWS V14.01,2013-01-11 02:47:00,
2013-01-10 21:48:00,30.9,21.2,30.45,NE,44,2.0,2.0,67,0.00,,---,0.11,VWS V14.01,2013-01-11 02:48:00,
2013-01-10 21:49:00,31.1,21.1,30.45,NNW,334,0.0,4.0,66,0.00,,---,0.11,VWS V14.01,2013-01-11 02:49:00,
2013-01-10 21:50:00,31.1,21.4,30.46,NNW,334,0.0,0.0,67,0.00,,---,0.11,VWS V14.01,2013-01-11 02:50:00,
2013-01-10 21:51:00,31.2,21.2,30.45,NNW,335,0.0,0.0,66,0.00,,---,0.11,VWS V14.01,2013-01-11 02:51:00,
2013-01-10 21:52:00,30.4,20.4,30.48,NW,318,0.0,1.0,66,0.00,,---,0.11,VWS V14.01,2013-01-11 02:52:00,
2013-01-10 21:53:00,31.2,21.9,30.45,NNW,330,2.0,2.0,68,0.00,,---,0.11,VWS V14.01,2013-01-11 02:53:00,
2013-01-10 21:54:00,31.2,21.2,30.45,North,11,2.0,3.0,66,0.00,,---,0.11,VWS V14.01,2013-01-11 02:54:00,
2013-01-10 21:55:00,31.3,20.9,30.45,NNW,341,3.0,3.0,65,0.00,,---,0.11,VWS V14.01,2013-01-11 02:55:00,
2013-01-10 21:56:00,31.5,21.1,30.45,NW,323,3.0,5.0,65,0.00,,---,0.11,VWS V14.01,2013-01-11 02:56:00,
2013-01-10 21:57:00,31.6,20.8,30.45,North,349,3.0,3.0,64,0.00,,---,0.11,VWS V14.01,2013-01-11 02:57:00,
2013-01-10 21:58:00,29.9,20.3,30.48,NW,320,0.0,4.0,67,0.00,,---,0.11,VWS V14.01,2013-01-11 02:58:00,
2013-01-10 21:59:00,32.1,21.3,30.45,North,355,1.0,3.0,64,0.00,,---,0.11,VWS V14.01,2013-01-11 02:59:00,
2013-01-10 22:00:00,32.3,21.1,30.45,NNE,27,2.0,3.0,63,0.00,,---,0.11,VWS V14.01,2013-01-11 03:00:00,
2013-01-10 22:01:00,32.4,20.9,30.44,NNW,330,1.0,3.0,62,0.00,,---,0.11,VWS V14.01,2013-01-11 03:01:00,
2013-01-10 22:02:00,32.6,21.0,30.45,NNW,327,2.0,3.0,62,0.00,,---,0.11,VWS V14.01,2013-01-11 03:02:00,
2013-01-10 22:03:00,31.1,20.4,30.48,ENE,59,0.0,3.0,64,0.00,,---,0.11,VWS V14.01,2013-01-11 03:03:00,
2013-01-10 22:04:00,32.8,21.2,30.45,North,360,0.0,0.0,62,0.00,,---,0.11,VWS V14.01,2013-01-11 03:04:00,
2013-01-10 22:05:00,32.9,20.9,30.45,NNE,20,1.0,1.0,61,0.00,,---,0.11,VWS V14.01,2013-01-11 03:05:00,
2013-01-10 22:06:00,33.0,21.0,30.45,NE,53,0.0,2.0,61,0.00,,---,0.11,VWS V14.01,2013-01-11 03:06:00,
2013-01-10 22:07:00,33.0,21.0,30.45,NE,53,0.0,0.0,61,0.00,,---,0.11,VWS V14.01,2013-01-11 03:07:00,
2013-01-10 22:08:00,32.0,20.5,30.48,North,360,0.0,2.0,62,0.00,,---,0.11,VWS V14.01,2013-01-11 03:08:00,
2013-01-10 22:09:00,33.0,21.0,30.45,NE,44,0.0,2.0,61,0.00,,---,0.11,VWS V14.01,2013-01-11 03:09:00,
2013-01-10 22:10:00,33.0,21.0,30.45,NNW,327,0.0,3.0,61,0.00,,---,0.11,VWS V14.01,2013-01-11 03:10:00,
2013-01-10 22:11:00,33.0,21.0,30.45,NNW,327,0.0,1.0,61,0.00,,---,0.11,VWS V14.01,2013-01-11 03:11:00,
2013-01-10 22:12:00,33.0,21.0,30.45,NNW,327,0.0,0.0,61,0.00,,---,0.11,VWS V14.01,2013-01-11 03:12:00,
2013-01-10 22:13:00,31.8,21.0,30.48,NNW,342,0.0,1.0,64,0.00,,---,0.11,VWS V14.01,2013-01-11 03:13:00,
2013-01-10 22:14:00,32.9,21.3,30.45,NNW,327,0.0,0.0,62,0.00,,---,0.11,VWS V14.01,2013-01-11 03:14:00,
2013-01-10 22:15:00,32.8,21.2,30.46,NNW,327,0.0,0.0,62,0.00,,---,0.11,VWS V14.01,2013-01-11 03:15:00,
2013-01-10 22:16:00,32.6,21.0,30.45,NNW,327,0.0,0.0,62,0.00,,---,0.11,VWS V14.01,2013-01-11 03:16:00,
2013-01-10 22:17:00,32.5,21.7,30.46,NNW,327,0.0,0.0,64,0.00,,---,0.11,VWS V14.01,2013-01-11 03:17:00,
2013-01-10 22:18:00,31.1,20.7,30.49,WSW,243,0.0,1.0,65,0.00,,---,0.11,VWS V14.01,2013-01-11 03:18:00,
2013-01-10 22:19:00,32.3,20.8,30.46,NNW,339,0.0,0.0,62,0.00,,---,0.11,VWS V14.01,2013-01-11 03:19:00,
2013-01-10 22:20:00,32.2,20.7,30.46,NNW,339,0.0,0.0,62,0.00,,---,0.11,VWS V14.01,2013-01-11 03:20:00,
2013-01-10 22:21:00,32.1,20.6,30.46,NNW,339,0.0,0.0,62,0.00,,---,0.11,VWS V14.01,2013-01-11 03:21:00,
2013-01-10 22:22:00,32.1,20.6,30.46,WNW,288,0.0,0.0,62,0.00,,---,0.11,VWS V14.01,2013-01-11 03:22:00,
2013-01-10 22:23:00,32.1,20.6,30.46,WNW,288,0.0,0.0,62,0.00,,---,0.11,VWS V14.01,2013-01-11 03:23:00,
2013-01-10 22:24:00,30.2,20.2,30.49,WSW,243,0.0,0.0,66,0.00,,---,0.11,VWS V14.01,2013-01-11 03:24:00,
2013-01-10 22:25:00,32.1,20.6,30.47,WNW,289,0.0,0.0,62,0.00,,---,0.11,VWS V14.01,2013-01-11 03:25:00,
2013-01-10 22:26:00,32.1,20.9,30.47,WNW,289,0.0,0.0,63,0.00,,---,0.11,VWS V14.01,2013-01-11 03:26:00,
2013-01-10 22:27:00,32.1,21.3,30.47,WNW,289,0.0,0.0,64,0.00,,---,0.11,VWS V14.01,2013-01-11 03:27:00,
2013-01-10 22:28:00,31.9,21.1,30.47,WNW,289,0.0,0.0,64,0.00,,---,0.11,VWS V14.01,2013-01-11 03:28:00,
2013-01-10 22:29:00,31.8,21.4,30.47,WNW,289,0.0,0.0,65,0.00,,---,0.11,VWS V14.01,2013-01-11 03:29:00,
2013-01-10 22:30:00,29.9,19.9,30.49,WSW,244,0.0,0.0,66,0.00,,---,0.11,VWS V14.01,2013-01-11 03:30:00,
2013-01-10 22:31:00,31.5,21.1,30.48,WNW,289,0.0,0.0,65,0.00,,---,0.11,VWS V14.01,2013-01-11 03:31:00,
2013-01-10 22:32:00,31.3,21.3,30.48,SSW,192,0.0,1.0,66,0.00,,---,0.11,VWS V14.01,2013-01-11 03:32:00,
2013-01-10 22:33:00,31.2,20.5,30.48,NW,318,1.0,2.0,64,0.00,,---,0.11,VWS V14.01,2013-01-11 03:33:00,
2013-01-10 22:34:00,31.0,21.0,30.48,NW,318,0.0,1.0,66,0.00,,---,0.11,VWS V14.01,2013-01-11 03:34:00,
2013-01-10 22:35:00,29.6,19.6,30.49,WSW,242,0.0,0.0,66,0.00,,---,0.11,VWS V14.01,2013-01-11 03:35:00,
2013-01-10 22:36:00,30.6,21.0,30.48,NW,318,0.0,0.0,67,0.00,,---,0.11,VWS V14.01,2013-01-11 03:36:00,
2013-01-10 22:37:00,30.4,20.4,30.48,NW,318,0.0,1.0,66,0.00,,---,0.11,VWS V14.01,2013-01-11 03:37:00,
2013-01-10 22:38:00,30.2,20.2,30.48,NW,318,0.0,1.0,66,0.00,,---,0.11,VWS V14.01,2013-01-11 03:38:00,
2013-01-10 22:39:00,30.1,20.5,30.48,NW,318,0.0,0.0,67,0.00,,---,0.11,VWS V14.01,2013-01-11 03:39:00,
2013-01-10 22:40:00,29.9,20.6,30.48,NW,318,0.0,0.0,68,0.00,,---,0.11,VWS V14.01,2013-01-11 03:40:00,
2013-01-10 22:41:00,30.0,20.0,30.49,SSW,194,0.0,0.0,66,0.00,,---,0.11,VWS V14.01,2013-01-11 03:41:00,
2013-01-10 22:42:00,29.8,20.2,30.48,NNW,331,1.0,1.0,67,0.00,,---,0.11,VWS V14.01,2013-01-11 03:42:00,
2013-01-10 22:43:00,29.9,20.3,30.48,NW,320,0.0,4.0,67,0.00,,---,0.11,VWS V14.01,2013-01-11 03:43:00,
2013-01-10 22:44:00,30.1,20.1,30.48,NNE,33,1.0,4.0,66,0.00,,---,0.11,VWS V14.01,2013-01-11 03:44:00,
2013-01-10 22:45:00,30.4,20.1,30.48,NNE,33,0.0,1.0,65,0.00,,---,0.11,VWS V14.01,2013-01-11 03:45:00,
2013-01-10 22:46:00,30.6,20.2,30.48,NNE,28,0.0,1.0,65,0.00,,---,0.11,VWS V14.01,2013-01-11 03:46:00,
2013-01-10 22:47:00,30.1,20.1,30.49,SSW,199,0.0,0.0,66,0.00,,---,0.11,VWS V14.01,2013-01-11 03:47:00,
2013-01-10 22:48:00,31.1,20.4,30.48,ENE,59,0.0,3.0,64,0.00,,---,0.11,VWS V14.01,2013-01-11 03:48:00,
2013-01-10 22:49:00,31.4,20.6,30.48,ENE,74,0.0,3.0,64,0.00,,---,0.11,VWS V14.01,2013-01-11 03:49:00,
2013-01-10 22:50:00,31.6,20.5,30.48,ENE,74,0.0,0.0,63,0.00,,---,0.11,VWS V14.01,2013-01-11 03:50:00,
2013-01-10 22:51:00,31.8,20.7,30.48,NE,48,0.0,1.0,63,0.00,,---,0.11,VWS V14.01,2013-01-11 03:51:00,
2013-01-10 22:52:00,29.1,20.2,30.49,SSW,206,0.0,0.0,69,0.00,,---,0.11,VWS V14.01,2013-01-11 03:52:00,
2013-01-10 22:53:00,32.0,20.5,30.48,North,360,0.0,2.0,62,0.00,,---,0.11,VWS V14.01,2013-01-11 03:53:00,
2013-01-10 22:54:00,32.1,20.9,30.48,North,5,0.0,0.0,63,0.00,,---,0.11,VWS V14.01,2013-01-11 03:54:00,
2013-01-10 22:55:00,32.1,20.9,30.48,North,5,0.0,0.0,63,0.00,,---,0.11,VWS V14.01,2013-01-11 03:55:00,
2013-01-10 22:56:00,32.1,20.9,30.48,North,360,0.0,0.0,63,0.00,,---,0.11,VWS V14.01,2013-01-11 03:56:00,
2013-01-10 22:57:00,32.0,20.9,30.48,NNW,342,1.0,1.0,63,0.00,,---,0.11,VWS V14.01,2013-01-11 03:57:00,
2013-01-10 22:58:00,28.2,19.7,30.49,SSW,202,0.0,0.0,70,0.00,,---,0.11,VWS V14.01,2013-01-11 03:58:00,
2013-01-10 22:59:00,31.7,20.9,30.48,WNW,300,0.0,1.0,64,0.00,,---,0.11,VWS V14.01,2013-01-11 03:59:00,
2013-01-10 23:00:00,31.6,20.5,30.48,WSW,243,1.0,2.0,63,0.00,,---,0.11,VWS V14.01,2013-01-11 04:00:00,
2013-01-10 23:01:00,31.5,21.1,30.48,WSW,243,0.0,1.0,65,0.00,,---,0.11,VWS V14.01,2013-01-11 04:01:00,
2013-01-10 23:02:00,31.3,20.9,30.49,WSW,243,0.0,0.0,65,0.00,,---,0.11,VWS V14.01,2013-01-11 04:02:00,
2013-01-10 23:03:00,27.8,20.3,30.49,SSW,204,0.0,0.0,73,0.00,,---,0.11,VWS V14.01,2013-01-11 04:03:00,
2013-01-10 23:04:00,30.9,20.5,30.49,WSW,242,0.0,0.0,65,0.00,,---,0.11,VWS V14.01,2013-01-11 04:04:00,
2013-01-10 23:05:00,30.7,20.3,30.49,WSW,242,0.0,0.0,65,0.00,,---,0.11,VWS V14.01,2013-01-11 04:05:00,
2013-01-10 23:06:00,30.6,20.2,30.49,WSW,243,0.0,0.0,65,0.00,,---,0.11,VWS V14.01,2013-01-11 04:06:00,
2013-01-10 23:07:00,30.5,20.1,30.49,WSW,243,0.0,0.0,65,0.00,,---,0.11,VWS V14.01,2013-01-11 04:07:00,
2013-01-10 23:08:00,27.5,20.3,30.49,SSW,204,0.0,0.0,74,0.00,,---,0.11,VWS V14.01,2013-01-11 04:08:00,
2013-01-10 23:09:00,30.2,20.2,30.49,WSW,243,0.0,0.0,66,0.00,,---,0.11,VWS V14.01,2013-01-11 04:09:00,
2013-01-10 23:10:00,30.1,19.8,30.49,WSW,242,0.0,0.0,65,0.00,,---,0.11,VWS V14.01,2013-01-11 04:10:00,
2013-01-10 23:11:00,30.1,19.8,30.49,WSW,244,0.0,1.0,65,0.00,,---,0.11,VWS V14.01,2013-01-11 04:11:00,
2013-01-10 23:12:00,30.1,19.8,30.49,WSW,244,0.0,0.0,65,0.00,,---,0.11,VWS V14.01,2013-01-11 04:12:00,
2013-01-10 23:13:00,27.2,19.7,30.50,SSW,203,0.0,0.0,73,0.00,,---,0.11,VWS V14.01,2013-01-11 04:13:00,
2013-01-10 23:14:00,30.0,20.0,30.49,WSW,244,0.0,0.0,66,0.00,,---,0.11,VWS V14.01,2013-01-11 04:14:00,
2013-01-10 23:15:00,29.9,19.9,30.49,WSW,244,0.0,0.0,66,0.00,,---,0.11,VWS V14.01,2013-01-11 04:15:00,
2013-01-10 23:16:00,29.8,20.5,30.49,WSW,244,0.0,0.0,68,0.00,,---,0.11,VWS V14.01,2013-01-11 04:16:00,
2013-01-10 23:17:00,29.7,20.5,30.49,WSW,244,0.0,0.0,68,0.00,,---,0.11,VWS V14.01,2013-01-11 04:17:00,
2013-01-10 23:18:00,29.6,20.0,30.49,WSW,244,0.0,0.0,67,0.00,,---,0.11,VWS V14.01,2013-01-11 04:18:00,
2013-01-10 23:19:00,26.8,19.6,30.50,SSW,203,0.0,0.0,74,0.00,,---,0.00,VWS V14.01,2013-01-11 04:19:00,
2013-01-10 23:20:00,29.6,19.6,30.49,WSW,242,0.0,0.0,66,0.00,,---,0.11,VWS V14.01,2013-01-11 04:20:00,
2013-01-10 23:21:00,29.6,20.0,30.49,WSW,242,0.0,0.0,67,0.00,,---,0.11,VWS V14.01,2013-01-11 04:21:00,
2013-01-10 23:22:00,29.7,19.8,30.49,WSW,242,0.0,0.0,66,0.00,,---,0.11,VWS V14.01,2013-01-11 04:22:00,
2013-01-10 23:23:00,29.7,19.8,30.49,WSW,241,0.0,0.0,66,0.00,,---,0.11,VWS V14.01,2013-01-11 04:23:00,
2013-01-10 23:24:00,29.8,19.8,30.49,WSW,238,0.0,0.0,66,0.00,,---,0.11,VWS V14.01,2013-01-11 04:24:00,
2013-01-10 23:25:00,26.5,19.7,30.50,SSW,203,0.0,0.0,75,0.00,,---,0.00,VWS V14.01,2013-01-11 04:25:00,
2013-01-10 23:26:00,30.0,20.0,30.49,SSW,194,0.0,0.0,66,0.00,,---,0.11,VWS V14.01,2013-01-11 04:26:00,
2013-01-10 23:27:00,30.1,20.1,30.49,SSW,194,0.0,0.0,66,0.00,,---,0.11,VWS V14.01,2013-01-11 04:27:00,
2013-01-10 23:28:00,30.1,20.1,30.49,SSW,194,0.0,0.0,66,0.00,,---,0.11,VWS V14.01,2013-01-11 04:28:00,
2013-01-10 23:29:00,30.1,20.1,30.49,SSW,194,0.0,0.0,66,0.00,,---,0.11,VWS V14.01,2013-01-11 04:29:00,
2013-01-10 23:30:00,26.3,19.5,30.50,SSW,203,0.0,0.0,75,0.00,,---,0.00,VWS V14.01,2013-01-11 04:30:00,
2013-01-10 23:31:00,30.2,20.2,30.49,SSW,194,0.0,0.0,66,0.00,,---,0.11,VWS V14.01,2013-01-11 04:31:00,
2013-01-10 23:32:00,30.1,20.1,30.49,SSW,199,0.0,0.0,66,0.00,,---,0.11,VWS V14.01,2013-01-11 04:32:00,
2013-01-10 23:33:00,29.9,20.3,30.49,SSW,199,0.0,0.0,67,0.00,,---,0.11,VWS V14.01,2013-01-11 04:33:00,
2013-01-10 23:34:00,29.8,20.2,30.49,SSW,199,0.0,0.0,67,0.00,,---,0.11,VWS V14.01,2013-01-11 04:34:00,
2013-01-10 23:35:00,29.7,20.5,30.49,SSW,199,0.0,0.0,68,0.00,,---,0.11,VWS V14.01,2013-01-11 04:35:00,
2013-01-10 23:36:00,26.3,20.1,30.50,SSW,204,0.0,0.0,77,0.00,,---,0.00,VWS V14.01,2013-01-11 04:36:00,
2013-01-10 23:37:00,29.1,20.2,30.49,SSW,206,0.0,0.0,69,0.00,,---,0.11,VWS V14.01,2013-01-11 04:37:00,
2013-01-10 23:38:00,28.9,20.0,30.49,SSW,206,0.0,0.0,69,0.00,,---,0.11,VWS V14.01,2013-01-11 04:38:00,
2013-01-10 23:39:00,28.7,20.2,30.49,SSW,206,0.0,0.0,70,0.00,,---,0.11,VWS V14.01,2013-01-11 04:39:00,
2013-01-10 23:40:00,28.6,20.1,30.49,SSW,206,0.0,0.0,70,0.00,,---,0.11,VWS V14.01,2013-01-11 04:40:00,
2013-01-10 23:41:00,28.4,19.9,30.49,SSW,206,0.0,0.0,70,0.00,,---,0.11,VWS V14.01,2013-01-11 04:41:00,
2013-01-10 23:42:00,26.6,19.8,30.50,SSW,205,0.0,0.0,75,0.00,,---,0.00,VWS V14.01,2013-01-11 04:42:00,
2013-01-10 23:43:00,28.2,19.7,30.49,SSW,202,0.0,0.0,70,0.00,,---,0.11,VWS V14.01,2013-01-11 04:43:00,
2013-01-10 23:44:00,28.1,19.6,30.49,SSW,202,0.0,0.0,70,0.00,,---,0.11,VWS V14.01,2013-01-11 04:44:00,
2013-01-10 23:45:00,28.1,19.6,30.49,SSW,202,0.0,0.0,70,0.00,,---,0.11,VWS V14.01,2013-01-11 04:45:00,
2013-01-10 23:46:00,28.0,19.5,30.49,SSW,202,0.0,0.0,70,0.00,,---,0.11,VWS V14.01,2013-01-11 04:46:00,
2013-01-10 23:47:00,27.9,20.1,30.49,SSW,204,0.0,0.0,72,0.00,,---,0.11,VWS V14.01,2013-01-11 04:47:00,
2013-01-10 23:48:00,26.6,19.8,30.50,SSW,205,0.0,0.0,75,0.00,,---,0.00,VWS V14.01,2013-01-11 04:48:00,
2013-01-10 23:49:00,27.7,20.2,30.49,SSW,204,0.0,0.0,73,0.00,,---,0.11,VWS V14.01,2013-01-11 04:49:00,
2013-01-10 23:50:00,27.6,20.4,30.49,SSW,204,0.0,0.0,74,0.00,,---,0.11,VWS V14.01,2013-01-11 04:50:00,
2013-01-10 23:51:00,27.6,20.4,30.49,SSW,203,0.0,0.0,74,0.00,,---,0.11,VWS V14.01,2013-01-11 04:51:00,
2013-01-10 23:52:00,27.5,20.3,30.49,SSW,203,0.0,0.0,74,0.00,,---,0.11,VWS V14.01,2013-01-11 04:52:00,
2013-01-10 23:53:00,26.4,19.9,30.50,SSW,205,0.0,0.0,76,0.00,,---,0.00,VWS V14.01,2013-01-11 04:53:00,
2013-01-10 23:54:00,27.4,19.9,30.49,SSW,204,0.0,0.0,73,0.00,,---,0.11,VWS V14.01,2013-01-11 04:54:00,
2013-01-10 23:56:00,27.3,19.8,30.49,SSW,204,0.0,0.0,73,0.00,,---,0.11,VWS V14.01,2013-01-11 04:56:00,
2013-01-10 23:57:00,27.2,19.7,30.50,SSW,204,0.0,0.0,73,0.00,,---,0.11,VWS V14.01,2013-01-11 04:57:00,
2013-01-10 23:58:00,27.2,19.7,30.50,SSW,203,0.0,0.0,73,0.00,,---,0.11,VWS V14.01,2013-01-11 04:58:00,
2013-01-10 23:59:00,26.2,19.7,30.50,SSW,205,0.0,0.0,76,0.00,,---,0.00,VWS V14.01,2013-01-11 04:59:00,